<?xml version='1.0' encoding='UTF-8'?><gpx version="1.1" creator="JPX - https://github.com/jenetics/jpx" xmlns="http://www.topografix.com/GPX/1/1"><trk><trkseg><trkpt lat="45.9731033" lon="8.7918017"><ele>926.5000000000001</ele><time>2026-05-03T10:50:00.834Z</time></trkpt><trkpt lat="45.9730667" lon="8.791955"><ele>927.0</ele><time>2026-05-03T10:50:02.834Z</time></trkpt><trkpt lat="45.97303" lon="8.7920483"><ele>927.5</ele><time>2026-05-03T10:50:03.834Z</time></trkpt><trkpt lat="45.9729917" lon="8.7921283"><ele>928.0</ele><time>2026-05-03T10:50:04.834Z</time></trkpt><trkpt lat="45.97295" lon="8.7922033"><ele>928.5000000000001</ele><time>2026-05-03T10:50:05.834Z</time></trkpt><trkpt lat="45.972895" lon="8.792275"><ele>929.0</ele><time>2026-05-03T10:50:06.833Z</time></trkpt><trkpt lat="45.972825" lon="8.7923467"><ele>929.0000000000001</ele><time>2026-05-03T10:50:07.834Z</time></trkpt><trkpt lat="45.972745" lon="8.7924267"><ele>929.0</ele><time>2026-05-03T10:50:08.834Z</time></trkpt><trkpt lat="45.9726717" lon="8.7925017"><ele>929.0</ele><time>2026-05-03T10:50:09.834Z</time></trkpt><trkpt lat="45.9726067" lon="8.7925683"><ele>929.0</ele><time>2026-05-03T10:50:10.834Z</time></trkpt><trkpt lat="45.9725517" lon="8.7926233"><ele>929.0000000000001</ele><time>2026-05-03T10:50:11.834Z</time></trkpt><trkpt lat="45.9724833" lon="8.7927267"><ele>929.0</ele><time>2026-05-03T10:50:13.834Z</time></trkpt><trkpt lat="45.9724233" lon="8.7928717"><ele>929.8333333333334</ele><time>2026-05-03T10:50:15.833Z</time></trkpt><trkpt lat="45.9723817" lon="8.79297"><ele>930.6666666666667</ele><time>2026-05-03T10:50:16.834Z</time></trkpt><trkpt lat="45.9723483" lon="8.7930833"><ele>931.5</ele><time>2026-05-03T10:50:17.834Z</time></trkpt><trkpt lat="45.972315" lon="8.793185"><ele>932.3333333333333</ele><time>2026-05-03T10:50:18.834Z</time></trkpt><trkpt lat="45.972265" lon="8.7932817"><ele>933.1666666666666</ele><time>2026-05-03T10:50:19.834Z</time></trkpt><trkpt lat="45.9722083" lon="8.7933583"><ele>934.0</ele><time>2026-05-03T10:50:20.834Z</time></trkpt><trkpt lat="45.9721583" lon="8.793425"><ele>935.8571428571427</ele><time>2026-05-03T10:50:21.834Z</time></trkpt><trkpt lat="45.9721167" lon="8.7935067"><ele>937.7142857142857</ele><time>2026-05-03T10:50:22.834Z</time></trkpt><trkpt lat="45.9720717" lon="8.793595"><ele>939.5714285714284</ele><time>2026-05-03T10:50:23.833Z</time></trkpt><trkpt lat="45.9720333" lon="8.7936933"><ele>941.4285714285713</ele><time>2026-05-03T10:50:24.834Z</time></trkpt><trkpt lat="45.9719933" lon="8.79378"><ele>943.2857142857142</ele><time>2026-05-03T10:50:25.833Z</time></trkpt><trkpt lat="45.971945" lon="8.793855"><ele>945.1428571428571</ele><time>2026-05-03T10:50:26.834Z</time></trkpt><trkpt lat="45.9718933" lon="8.7939083"><ele>947.0</ele><time>2026-05-03T10:50:27.833Z</time></trkpt><trkpt lat="45.9718383" lon="8.7939717"><ele>947.0</ele><time>2026-05-03T10:50:28.834Z</time></trkpt><trkpt lat="45.9717833" lon="8.794035"><ele>947.0</ele><time>2026-05-03T10:50:29.834Z</time></trkpt><trkpt lat="45.9717217" lon="8.7941133"><ele>947.0</ele><time>2026-05-03T10:50:30.833Z</time></trkpt><trkpt lat="45.9716617" lon="8.7942183"><ele>947.0</ele><time>2026-05-03T10:50:31.833Z</time></trkpt><trkpt lat="45.9715967" lon="8.7943333"><ele>947.0</ele><time>2026-05-03T10:50:32.834Z</time></trkpt><trkpt lat="45.9715317" lon="8.7944617"><ele>944.0</ele><time>2026-05-03T10:50:33.834Z</time></trkpt><trkpt lat="45.9714817" lon="8.7945867"><ele>941.0</ele><time>2026-05-03T10:50:34.833Z</time></trkpt><trkpt lat="45.971435" lon="8.79471"><ele>938.0</ele><time>2026-05-03T10:50:35.834Z</time></trkpt><trkpt lat="45.9713933" lon="8.7948483"><ele>935.0</ele><time>2026-05-03T10:50:36.834Z</time></trkpt><trkpt lat="45.9713467" lon="8.7949783"><ele>932.0</ele><time>2026-05-03T10:50:37.834Z</time></trkpt><trkpt lat="45.9713083" lon="8.79509"><ele>931.6</ele><time>2026-05-03T10:50:38.833Z</time></trkpt><trkpt lat="45.9712683" lon="8.7951817"><ele>931.2</ele><time>2026-05-03T10:50:39.833Z</time></trkpt><trkpt lat="45.9712283" lon="8.7952533"><ele>930.8</ele><time>2026-05-03T10:50:40.834Z</time></trkpt><trkpt lat="45.971145" lon="8.795335"><ele>930.4</ele><time>2026-05-03T10:50:42.834Z</time></trkpt><trkpt lat="45.9710433" lon="8.7953733"><ele>930.0</ele><time>2026-05-03T10:50:44.834Z</time></trkpt><trkpt lat="45.970935" lon="8.7954367"><ele>927.6</ele><time>2026-05-03T10:50:46.834Z</time></trkpt><trkpt lat="45.97084" lon="8.7955433"><ele>925.2</ele><time>2026-05-03T10:50:48.834Z</time></trkpt><trkpt lat="45.9707667" lon="8.795665"><ele>922.8</ele><time>2026-05-03T10:50:50.833Z</time></trkpt><trkpt lat="45.970715" lon="8.7957783"><ele>920.4</ele><time>2026-05-03T10:50:52.834Z</time></trkpt><trkpt lat="45.9706817" lon="8.7958667"><ele>918.0</ele><time>2026-05-03T10:50:54.834Z</time></trkpt><trkpt lat="45.970625" lon="8.7959817"><ele>918.0</ele><time>2026-05-03T10:50:57.834Z</time></trkpt><trkpt lat="45.970605" lon="8.796105"><ele>918.0</ele><time>2026-05-03T10:50:59.834Z</time></trkpt><trkpt lat="45.970605" lon="8.7962317"><ele>918.0</ele><time>2026-05-03T10:51:01.833Z</time></trkpt><trkpt lat="45.970595" lon="8.7963333"><ele>918.0</ele><time>2026-05-03T10:51:03.833Z</time></trkpt><trkpt lat="45.9705783" lon="8.7964267"><ele>918.0</ele><time>2026-05-03T10:51:05.833Z</time></trkpt><trkpt lat="45.970555" lon="8.7965117"><ele>918.0</ele><time>2026-05-03T10:51:07.834Z</time></trkpt><trkpt lat="45.9705117" lon="8.7965833"><ele>918.0</ele><time>2026-05-03T10:51:11.834Z</time></trkpt><trkpt lat="45.9704217" lon="8.7966867"><ele>918.5999999999999</ele><time>2026-05-03T10:51:59.833Z</time></trkpt><trkpt lat="45.970365" lon="8.7968367"><ele>919.1999999999999</ele><time>2026-05-03T10:52:01.834Z</time></trkpt><trkpt lat="45.9703417" lon="8.7969667"><ele>919.8</ele><time>2026-05-03T10:52:02.833Z</time></trkpt><trkpt lat="45.9703167" lon="8.7971117"><ele>920.4</ele><time>2026-05-03T10:52:03.834Z</time></trkpt><trkpt lat="45.9702867" lon="8.7972833"><ele>921.0</ele><time>2026-05-03T10:52:04.834Z</time></trkpt><trkpt lat="45.97026" lon="8.7974467"><ele>921.0</ele><time>2026-05-03T10:52:05.833Z</time></trkpt><trkpt lat="45.9702267" lon="8.7976017"><ele>921.0</ele><time>2026-05-03T10:52:06.834Z</time></trkpt><trkpt lat="45.9701917" lon="8.7977533"><ele>921.0</ele><time>2026-05-03T10:52:07.833Z</time></trkpt><trkpt lat="45.9701533" lon="8.7979083"><ele>921.0</ele><time>2026-05-03T10:52:08.833Z</time></trkpt><trkpt lat="45.97011" lon="8.7980633"><ele>921.0</ele><time>2026-05-03T10:52:09.834Z</time></trkpt><trkpt lat="45.9700667" lon="8.79822"><ele>921.0</ele><time>2026-05-03T10:52:10.834Z</time></trkpt><trkpt lat="45.9700233" lon="8.79838"><ele>921.0</ele><time>2026-05-03T10:52:11.833Z</time></trkpt><trkpt lat="45.9699767" lon="8.7985417"><ele>921.0</ele><time>2026-05-03T10:52:12.834Z</time></trkpt><trkpt lat="45.9699317" lon="8.79871"><ele>921.0</ele><time>2026-05-03T10:52:13.833Z</time></trkpt><trkpt lat="45.9698917" lon="8.7988833"><ele>921.0</ele><time>2026-05-03T10:52:14.833Z</time></trkpt><trkpt lat="45.9698533" lon="8.7990617"><ele>921.0</ele><time>2026-05-03T10:52:15.834Z</time></trkpt><trkpt lat="45.9698167" lon="8.7992433"><ele>921.0</ele><time>2026-05-03T10:52:16.834Z</time></trkpt><trkpt lat="45.9697767" lon="8.7994267"><ele>922.75</ele><time>2026-05-03T10:52:17.833Z</time></trkpt><trkpt lat="45.9697367" lon="8.7996133"><ele>924.5</ele><time>2026-05-03T10:52:18.834Z</time></trkpt><trkpt lat="45.9696933" lon="8.7997933"><ele>926.25</ele><time>2026-05-03T10:52:19.834Z</time></trkpt><trkpt lat="45.969645" lon="8.7999667"><ele>928.0</ele><time>2026-05-03T10:52:20.834Z</time></trkpt><trkpt lat="45.9696" lon="8.80014"><ele>929.75</ele><time>2026-05-03T10:52:21.833Z</time></trkpt><trkpt lat="45.9695533" lon="8.800305"><ele>931.5</ele><time>2026-05-03T10:52:22.834Z</time></trkpt><trkpt lat="45.969505" lon="8.8004633"><ele>933.25</ele><time>2026-05-03T10:52:23.834Z</time></trkpt><trkpt lat="45.9694567" lon="8.8006067"><ele>935.0</ele><time>2026-05-03T10:52:24.834Z</time></trkpt><trkpt lat="45.9694067" lon="8.8007467"><ele>935.0</ele><time>2026-05-03T10:52:25.834Z</time></trkpt><trkpt lat="45.96936" lon="8.8008917"><ele>935.0</ele><time>2026-05-03T10:52:26.834Z</time></trkpt><trkpt lat="45.9693167" lon="8.8010433"><ele>935.0</ele><time>2026-05-03T10:52:27.833Z</time></trkpt><trkpt lat="45.9692733" lon="8.80119"><ele>935.0</ele><time>2026-05-03T10:52:28.833Z</time></trkpt><trkpt lat="45.969235" lon="8.8013283"><ele>935.0</ele><time>2026-05-03T10:52:29.834Z</time></trkpt><trkpt lat="45.969205" lon="8.801455"><ele>933.0000000000001</ele><time>2026-05-03T10:52:30.834Z</time></trkpt><trkpt lat="45.9691817" lon="8.8015717"><ele>931.0</ele><time>2026-05-03T10:52:31.834Z</time></trkpt><trkpt lat="45.9691633" lon="8.801675"><ele>929.0</ele><time>2026-05-03T10:52:32.834Z</time></trkpt><trkpt lat="45.9691433" lon="8.8017683"><ele>927.0</ele><time>2026-05-03T10:52:33.833Z</time></trkpt><trkpt lat="45.9690917" lon="8.8019067"><ele>925.0000000000001</ele><time>2026-05-03T10:52:35.834Z</time></trkpt><trkpt lat="45.9690317" lon="8.8018083"><ele>923.0</ele><time>2026-05-03T10:52:38.833Z</time></trkpt><trkpt lat="45.9690383" lon="8.8016567"><ele>921.8333333333334</ele><time>2026-05-03T10:52:51.834Z</time></trkpt><trkpt lat="45.9690567" lon="8.8015683"><ele>920.6666666666667</ele><time>2026-05-03T10:52:52.834Z</time></trkpt><trkpt lat="45.9690817" lon="8.8014617"><ele>919.5</ele><time>2026-05-03T10:52:53.834Z</time></trkpt><trkpt lat="45.9691133" lon="8.8013383"><ele>918.3333333333333</ele><time>2026-05-03T10:52:54.834Z</time></trkpt><trkpt lat="45.9691283" lon="8.80121"><ele>917.1666666666666</ele><time>2026-05-03T10:52:55.834Z</time></trkpt><trkpt lat="45.9691383" lon="8.8010917"><ele>916.0</ele><time>2026-05-03T10:52:56.834Z</time></trkpt><trkpt lat="45.9691467" lon="8.8009833"><ele>914.4999999999999</ele><time>2026-05-03T10:52:57.833Z</time></trkpt><trkpt lat="45.9691533" lon="8.8008767"><ele>913.0</ele><time>2026-05-03T10:52:58.834Z</time></trkpt><trkpt lat="45.9691517" lon="8.8007783"><ele>911.5</ele><time>2026-05-03T10:52:59.834Z</time></trkpt><trkpt lat="45.9691667" lon="8.8006817"><ele>910.0</ele><time>2026-05-03T10:53:00.834Z</time></trkpt><trkpt lat="45.96922" lon="8.8005217"><ele>908.4999999999999</ele><time>2026-05-03T10:53:02.834Z</time></trkpt><trkpt lat="45.969255" lon="8.800445"><ele>907.0</ele><time>2026-05-03T10:53:03.834Z</time></trkpt><trkpt lat="45.969285" lon="8.800355"><ele>911.2</ele><time>2026-05-03T10:53:04.834Z</time></trkpt><trkpt lat="45.9693233" lon="8.80026"><ele>915.4000000000001</ele><time>2026-05-03T10:53:05.834Z</time></trkpt><trkpt lat="45.969355" lon="8.80014"><ele>919.5999999999999</ele><time>2026-05-03T10:53:06.834Z</time></trkpt><trkpt lat="45.9693733" lon="8.8"><ele>923.8</ele><time>2026-05-03T10:53:07.834Z</time></trkpt><trkpt lat="45.9693867" lon="8.7998383"><ele>928.0</ele><time>2026-05-03T10:53:08.834Z</time></trkpt><trkpt lat="45.9694017" lon="8.799675"><ele>928.0</ele><time>2026-05-03T10:53:09.834Z</time></trkpt><trkpt lat="45.9694183" lon="8.79951"><ele>928.0</ele><time>2026-05-03T10:53:10.834Z</time></trkpt><trkpt lat="45.9694417" lon="8.7993617"><ele>928.0</ele><time>2026-05-03T10:53:11.834Z</time></trkpt><trkpt lat="45.9694733" lon="8.7992317"><ele>928.0</ele><time>2026-05-03T10:53:12.834Z</time></trkpt><trkpt lat="45.9695083" lon="8.7991183"><ele>928.0</ele><time>2026-05-03T10:53:13.834Z</time></trkpt><trkpt lat="45.9695267" lon="8.7990067"><ele>926.8333333333333</ele><time>2026-05-03T10:53:14.834Z</time></trkpt><trkpt lat="45.9695433" lon="8.798895"><ele>925.6666666666666</ele><time>2026-05-03T10:53:15.834Z</time></trkpt><trkpt lat="45.9695483" lon="8.798795"><ele>924.5</ele><time>2026-05-03T10:53:16.833Z</time></trkpt><trkpt lat="45.9694883" lon="8.79871"><ele>923.3333333333333</ele><time>2026-05-03T10:53:18.833Z</time></trkpt><trkpt lat="45.96943" lon="8.79882"><ele>922.1666666666666</ele><time>2026-05-03T10:53:19.834Z</time></trkpt><trkpt lat="45.96938" lon="8.7989417"><ele>921.0</ele><time>2026-05-03T10:53:20.834Z</time></trkpt><trkpt lat="45.96934" lon="8.7990783"><ele>921.0</ele><time>2026-05-03T10:53:21.834Z</time></trkpt><trkpt lat="45.96929" lon="8.7992333"><ele>921.0</ele><time>2026-05-03T10:53:22.833Z</time></trkpt><trkpt lat="45.969235" lon="8.799385"><ele>921.0</ele><time>2026-05-03T10:53:23.834Z</time></trkpt><trkpt lat="45.9691717" lon="8.79953"><ele>921.0</ele><time>2026-05-03T10:53:24.834Z</time></trkpt><trkpt lat="45.969095" lon="8.799665"><ele>917.5</ele><time>2026-05-03T10:53:25.833Z</time></trkpt><trkpt lat="45.969015" lon="8.79981"><ele>914.0</ele><time>2026-05-03T10:53:26.834Z</time></trkpt><trkpt lat="45.96894" lon="8.7999467"><ele>910.5</ele><time>2026-05-03T10:53:27.834Z</time></trkpt><trkpt lat="45.968875" lon="8.8000817"><ele>907.0</ele><time>2026-05-03T10:53:28.833Z</time></trkpt><trkpt lat="45.9688133" lon="8.80022"><ele>907.0</ele><time>2026-05-03T10:53:29.833Z</time></trkpt><trkpt lat="45.9687583" lon="8.8003583"><ele>907.0</ele><time>2026-05-03T10:53:30.834Z</time></trkpt><trkpt lat="45.9687067" lon="8.8005"><ele>907.0</ele><time>2026-05-03T10:53:31.834Z</time></trkpt><trkpt lat="45.9686583" lon="8.8006317"><ele>907.0</ele><time>2026-05-03T10:53:32.834Z</time></trkpt><trkpt lat="45.96862" lon="8.8007533"><ele>907.0</ele><time>2026-05-03T10:53:33.833Z</time></trkpt><trkpt lat="45.96859" lon="8.8008783"><ele>908.8</ele><time>2026-05-03T10:53:34.834Z</time></trkpt><trkpt lat="45.96856" lon="8.801005"><ele>910.6</ele><time>2026-05-03T10:53:35.834Z</time></trkpt><trkpt lat="45.96853" lon="8.8011267"><ele>912.3999999999999</ele><time>2026-05-03T10:53:36.834Z</time></trkpt><trkpt lat="45.9684867" lon="8.80124"><ele>914.1999999999999</ele><time>2026-05-03T10:53:37.834Z</time></trkpt><trkpt lat="45.96843" lon="8.8013417"><ele>916.0</ele><time>2026-05-03T10:53:38.833Z</time></trkpt><trkpt lat="45.9683667" lon="8.80143"><ele>913.9999999999999</ele><time>2026-05-03T10:53:39.834Z</time></trkpt><trkpt lat="45.9682967" lon="8.80151"><ele>912.0</ele><time>2026-05-03T10:53:40.834Z</time></trkpt><trkpt lat="45.9682317" lon="8.8015883"><ele>910.0</ele><time>2026-05-03T10:53:41.833Z</time></trkpt><trkpt lat="45.96817" lon="8.8016633"><ele>908.0</ele><time>2026-05-03T10:53:42.834Z</time></trkpt><trkpt lat="45.9681067" lon="8.8017367"><ele>905.9999999999999</ele><time>2026-05-03T10:53:43.834Z</time></trkpt><trkpt lat="45.968055" lon="8.8018067"><ele>904.0</ele><time>2026-05-03T10:53:44.834Z</time></trkpt><trkpt lat="45.96796" lon="8.80192"><ele>903.9999999999999</ele><time>2026-05-03T10:53:46.834Z</time></trkpt><trkpt lat="45.9679033" lon="8.801985"><ele>904.0</ele><time>2026-05-03T10:53:48.833Z</time></trkpt><trkpt lat="45.9678567" lon="8.802075"><ele>904.0</ele><time>2026-05-03T10:53:57.834Z</time></trkpt><trkpt lat="45.9677717" lon="8.80209"><ele>904.0</ele><time>2026-05-03T10:53:58.834Z</time></trkpt><trkpt lat="45.9676867" lon="8.8020883"><ele>903.9999999999999</ele><time>2026-05-03T10:53:59.834Z</time></trkpt><trkpt lat="45.9676083" lon="8.8020667"><ele>904.0</ele><time>2026-05-03T10:54:00.833Z</time></trkpt><trkpt lat="45.96753" lon="8.80202"><ele>901.4999999999999</ele><time>2026-05-03T10:54:01.833Z</time></trkpt><trkpt lat="45.9674567" lon="8.801975"><ele>899.0</ele><time>2026-05-03T10:54:02.834Z</time></trkpt><trkpt lat="45.9673883" lon="8.8019217"><ele>896.5</ele><time>2026-05-03T10:54:03.834Z</time></trkpt><trkpt lat="45.967325" lon="8.8018883"><ele>894.0</ele><time>2026-05-03T10:54:04.834Z</time></trkpt><trkpt lat="45.9672033" lon="8.8018867"><ele>891.4999999999999</ele><time>2026-05-03T10:54:06.834Z</time></trkpt><trkpt lat="45.9671233" lon="8.8019217"><ele>889.0</ele><time>2026-05-03T10:54:07.833Z</time></trkpt><trkpt lat="45.9670383" lon="8.8019833"><ele>889.0</ele><time>2026-05-03T10:54:08.833Z</time></trkpt><trkpt lat="45.9669467" lon="8.8020683"><ele>889.0</ele><time>2026-05-03T10:54:09.834Z</time></trkpt><trkpt lat="45.96687" lon="8.8021633"><ele>889.0</ele><time>2026-05-03T10:54:10.834Z</time></trkpt><trkpt lat="45.9667933" lon="8.802275"><ele>889.0</ele><time>2026-05-03T10:54:11.833Z</time></trkpt><trkpt lat="45.9667183" lon="8.8024283"><ele>882.75</ele><time>2026-05-03T10:54:12.834Z</time></trkpt><trkpt lat="45.966665" lon="8.8025883"><ele>876.5</ele><time>2026-05-03T10:54:13.833Z</time></trkpt><trkpt lat="45.9666117" lon="8.8027383"><ele>870.25</ele><time>2026-05-03T10:54:14.834Z</time></trkpt><trkpt lat="45.9665667" lon="8.8028833"><ele>864.0</ele><time>2026-05-03T10:54:15.834Z</time></trkpt><trkpt lat="45.9665417" lon="8.80303"><ele>864.0</ele><time>2026-05-03T10:54:16.834Z</time></trkpt><trkpt lat="45.9665333" lon="8.8031633"><ele>864.0</ele><time>2026-05-03T10:54:17.834Z</time></trkpt><trkpt lat="45.9665317" lon="8.8032717"><ele>864.0</ele><time>2026-05-03T10:54:18.834Z</time></trkpt><trkpt lat="45.9665333" lon="8.803365"><ele>864.0</ele><time>2026-05-03T10:54:19.833Z</time></trkpt><trkpt lat="45.9664867" lon="8.80326"><ele>864.0</ele><time>2026-05-03T10:54:23.834Z</time></trkpt><trkpt lat="45.9665" lon="8.803135"><ele>864.0</ele><time>2026-05-03T10:54:24.834Z</time></trkpt><trkpt lat="45.9665167" lon="8.80299"><ele>864.0</ele><time>2026-05-03T10:54:25.834Z</time></trkpt><trkpt lat="45.9665433" lon="8.8027933"><ele>864.0</ele><time>2026-05-03T10:54:26.834Z</time></trkpt><trkpt lat="45.966565" lon="8.8025967"><ele>864.0</ele><time>2026-05-03T10:54:27.834Z</time></trkpt><trkpt lat="45.9665883" lon="8.80241"><ele>864.0</ele><time>2026-05-03T10:54:28.834Z</time></trkpt><trkpt lat="45.966605" lon="8.8022333"><ele>865.0</ele><time>2026-05-03T10:54:29.834Z</time></trkpt><trkpt lat="45.96662" lon="8.8020633"><ele>866.0000000000001</ele><time>2026-05-03T10:54:30.834Z</time></trkpt><trkpt lat="45.9666317" lon="8.8018983"><ele>867.0000000000001</ele><time>2026-05-03T10:54:31.834Z</time></trkpt><trkpt lat="45.966665" lon="8.8017567"><ele>868.0</ele><time>2026-05-03T10:54:32.834Z</time></trkpt><trkpt lat="45.9667133" lon="8.80163"><ele>869.0</ele><time>2026-05-03T10:54:33.834Z</time></trkpt><trkpt lat="45.9667717" lon="8.801515"><ele>869.0000000000001</ele><time>2026-05-03T10:54:34.834Z</time></trkpt><trkpt lat="45.9668283" lon="8.8014133"><ele>869.0</ele><time>2026-05-03T10:54:35.834Z</time></trkpt><trkpt lat="45.966885" lon="8.801325"><ele>869.0</ele><time>2026-05-03T10:54:36.834Z</time></trkpt><trkpt lat="45.9669333" lon="8.801245"><ele>869.0</ele><time>2026-05-03T10:54:37.834Z</time></trkpt><trkpt lat="45.966965" lon="8.8011633"><ele>869.0000000000001</ele><time>2026-05-03T10:54:38.834Z</time></trkpt><trkpt lat="45.9669167" lon="8.80107"><ele>869.0</ele><time>2026-05-03T10:54:40.834Z</time></trkpt><trkpt lat="45.96681" lon="8.8011583"><ele>869.0</ele><time>2026-05-03T10:54:42.834Z</time></trkpt><trkpt lat="45.96675" lon="8.801235"><ele>869.0000000000001</ele><time>2026-05-03T10:54:43.834Z</time></trkpt><trkpt lat="45.966685" lon="8.8013167"><ele>869.0000000000001</ele><time>2026-05-03T10:54:44.834Z</time></trkpt><trkpt lat="45.966615" lon="8.801405"><ele>869.0</ele><time>2026-05-03T10:54:45.833Z</time></trkpt><trkpt lat="45.9665317" lon="8.801515"><ele>869.0</ele><time>2026-05-03T10:54:46.834Z</time></trkpt><trkpt lat="45.9664467" lon="8.801685"><ele>866.25</ele><time>2026-05-03T10:54:47.834Z</time></trkpt><trkpt lat="45.96637" lon="8.8018567"><ele>863.5</ele><time>2026-05-03T10:54:48.834Z</time></trkpt><trkpt lat="45.9663017" lon="8.8020267"><ele>860.75</ele><time>2026-05-03T10:54:49.834Z</time></trkpt><trkpt lat="45.966235" lon="8.802185"><ele>858.0</ele><time>2026-05-03T10:54:50.834Z</time></trkpt><trkpt lat="45.9661867" lon="8.8023533"><ele>858.0</ele><time>2026-05-03T10:54:51.834Z</time></trkpt><trkpt lat="45.9661383" lon="8.8025083"><ele>858.0</ele><time>2026-05-03T10:54:52.834Z</time></trkpt><trkpt lat="45.966095" lon="8.80265"><ele>858.0</ele><time>2026-05-03T10:54:53.834Z</time></trkpt><trkpt lat="45.9660633" lon="8.802775"><ele>858.0</ele><time>2026-05-03T10:54:54.834Z</time></trkpt><trkpt lat="45.9660317" lon="8.8028817"><ele>858.0</ele><time>2026-05-03T10:54:55.833Z</time></trkpt><trkpt lat="45.9660133" lon="8.8029883"><ele>858.3333333333334</ele><time>2026-05-03T10:54:56.833Z</time></trkpt><trkpt lat="45.9659917" lon="8.803085"><ele>858.6666666666667</ele><time>2026-05-03T10:54:57.834Z</time></trkpt><trkpt lat="45.9659717" lon="8.8031917"><ele>859.0</ele><time>2026-05-03T10:54:58.833Z</time></trkpt><trkpt lat="45.9659567" lon="8.8033017"><ele>859.3333333333334</ele><time>2026-05-03T10:54:59.834Z</time></trkpt><trkpt lat="45.9659467" lon="8.8034317"><ele>859.6666666666667</ele><time>2026-05-03T10:55:00.833Z</time></trkpt><trkpt lat="45.9659383" lon="8.8035717"><ele>860.0</ele><time>2026-05-03T10:55:01.834Z</time></trkpt><trkpt lat="45.965945" lon="8.8037283"><ele>860.0</ele><time>2026-05-03T10:55:02.834Z</time></trkpt><trkpt lat="45.965955" lon="8.8038783"><ele>860.0</ele><time>2026-05-03T10:55:03.834Z</time></trkpt><trkpt lat="45.9659733" lon="8.804035"><ele>860.0</ele><time>2026-05-03T10:55:04.834Z</time></trkpt><trkpt lat="45.9659733" lon="8.80419"><ele>860.0</ele><time>2026-05-03T10:55:05.834Z</time></trkpt><trkpt lat="45.965955" lon="8.8043583"><ele>860.0</ele><time>2026-05-03T10:55:06.834Z</time></trkpt><trkpt lat="45.9659167" lon="8.80452"><ele>849.5</ele><time>2026-05-03T10:55:07.833Z</time></trkpt><trkpt lat="45.9658617" lon="8.8046833"><ele>839.0</ele><time>2026-05-03T10:55:08.833Z</time></trkpt><trkpt lat="45.9657983" lon="8.804835"><ele>828.5</ele><time>2026-05-03T10:55:09.833Z</time></trkpt><trkpt lat="45.96574" lon="8.8049817"><ele>818.0</ele><time>2026-05-03T10:55:10.833Z</time></trkpt><trkpt lat="45.9656933" lon="8.8051083"><ele>817.4</ele><time>2026-05-03T10:55:11.833Z</time></trkpt><trkpt lat="45.9656567" lon="8.8052333"><ele>816.8</ele><time>2026-05-03T10:55:12.833Z</time></trkpt><trkpt lat="45.965645" lon="8.8053633"><ele>816.2</ele><time>2026-05-03T10:55:13.833Z</time></trkpt><trkpt lat="45.96569" lon="8.805485"><ele>815.6</ele><time>2026-05-03T10:55:14.833Z</time></trkpt><trkpt lat="45.9657383" lon="8.8056117"><ele>815.0</ele><time>2026-05-03T10:55:15.833Z</time></trkpt><trkpt lat="45.965815" lon="8.8057617"><ele>815.8</ele><time>2026-05-03T10:55:16.833Z</time></trkpt><trkpt lat="45.9658883" lon="8.8059033"><ele>816.6</ele><time>2026-05-03T10:55:17.833Z</time></trkpt><trkpt lat="45.9659633" lon="8.806035"><ele>817.4000000000001</ele><time>2026-05-03T10:55:18.833Z</time></trkpt><trkpt lat="45.96603" lon="8.80615"><ele>818.2</ele><time>2026-05-03T10:55:19.833Z</time></trkpt><trkpt lat="45.9660717" lon="8.8062317"><ele>819.0</ele><time>2026-05-03T10:55:20.833Z</time></trkpt><trkpt lat="45.9660833" lon="8.806335"><ele>819.0</ele><time>2026-05-03T10:55:22.833Z</time></trkpt><trkpt lat="45.9661517" lon="8.8063883"><ele>819.0</ele><time>2026-05-03T10:57:04.833Z</time></trkpt><trkpt lat="45.966185" lon="8.80647"><ele>819.0</ele><time>2026-05-03T10:57:07.833Z</time></trkpt><trkpt lat="45.966235" lon="8.8065783"><ele>819.0</ele><time>2026-05-03T10:57:10.832Z</time></trkpt><trkpt lat="45.966305" lon="8.8067717"><ele>819.0</ele><time>2026-05-03T10:57:12.832Z</time></trkpt><trkpt lat="45.9663567" lon="8.80692"><ele>819.0</ele><time>2026-05-03T10:57:13.833Z</time></trkpt><trkpt lat="45.966435" lon="8.8070633"><ele>819.0</ele><time>2026-05-03T10:57:14.833Z</time></trkpt><trkpt lat="45.966495" lon="8.80721"><ele>819.0</ele><time>2026-05-03T10:57:15.833Z</time></trkpt><trkpt lat="45.966535" lon="8.807385"><ele>819.0</ele><time>2026-05-03T10:57:16.833Z</time></trkpt><trkpt lat="45.96654" lon="8.807565"><ele>819.4000000000001</ele><time>2026-05-03T10:57:17.833Z</time></trkpt><trkpt lat="45.96654" lon="8.807755"><ele>819.8</ele><time>2026-05-03T10:57:18.832Z</time></trkpt><trkpt lat="45.96655" lon="8.8079167"><ele>820.2</ele><time>2026-05-03T10:57:19.833Z</time></trkpt><trkpt lat="45.9665817" lon="8.8080517"><ele>820.5999999999999</ele><time>2026-05-03T10:57:20.833Z</time></trkpt><trkpt lat="45.9666083" lon="8.8081633"><ele>821.0</ele><time>2026-05-03T10:57:21.833Z</time></trkpt><trkpt lat="45.9666367" lon="8.8082633"><ele>821.0</ele><time>2026-05-03T10:57:22.832Z</time></trkpt><trkpt lat="45.9665617" lon="8.8081983"><ele>821.0</ele><time>2026-05-03T10:57:28.833Z</time></trkpt><trkpt lat="45.966495" lon="8.8080533"><ele>821.0</ele><time>2026-05-03T10:57:30.833Z</time></trkpt><trkpt lat="45.9664617" lon="8.8079717"><ele>821.0</ele><time>2026-05-03T10:57:31.832Z</time></trkpt><trkpt lat="45.9664217" lon="8.807895"><ele>821.0</ele><time>2026-05-03T10:57:32.833Z</time></trkpt><trkpt lat="45.96635" lon="8.807775"><ele>821.0</ele><time>2026-05-03T10:57:34.832Z</time></trkpt><trkpt lat="45.966275" lon="8.8076733"><ele>821.0</ele><time>2026-05-03T10:57:36.833Z</time></trkpt><trkpt lat="45.96618" lon="8.8075683"><ele>821.0</ele><time>2026-05-03T10:57:38.833Z</time></trkpt><trkpt lat="45.9661267" lon="8.8075083"><ele>821.0</ele><time>2026-05-03T10:57:39.833Z</time></trkpt><trkpt lat="45.96608" lon="8.80744"><ele>821.0</ele><time>2026-05-03T10:57:40.832Z</time></trkpt><trkpt lat="45.9660067" lon="8.8073217"><ele>821.0</ele><time>2026-05-03T10:57:42.833Z</time></trkpt><trkpt lat="45.965945" lon="8.807225"><ele>821.0</ele><time>2026-05-03T10:57:44.833Z</time></trkpt><trkpt lat="45.965965" lon="8.8073483"><ele>821.0</ele><time>2026-05-03T10:57:47.833Z</time></trkpt><trkpt lat="45.9660033" lon="8.8075717"><ele>821.0</ele><time>2026-05-03T10:57:49.833Z</time></trkpt><trkpt lat="45.9660333" lon="8.80769"><ele>821.0</ele><time>2026-05-03T10:57:50.833Z</time></trkpt><trkpt lat="45.9660667" lon="8.807815"><ele>821.0000000000001</ele><time>2026-05-03T10:57:51.833Z</time></trkpt><trkpt lat="45.9660917" lon="8.8079383"><ele>821.0</ele><time>2026-05-03T10:57:52.833Z</time></trkpt><trkpt lat="45.966105" lon="8.8080367"><ele>821.0</ele><time>2026-05-03T10:57:53.833Z</time></trkpt><trkpt lat="45.9661083" lon="8.80813"><ele>821.0</ele><time>2026-05-03T10:57:54.833Z</time></trkpt><trkpt lat="45.9660983" lon="8.8082317"><ele>821.0000000000001</ele><time>2026-05-03T10:57:55.833Z</time></trkpt><trkpt lat="45.966055" lon="8.80843"><ele>821.0</ele><time>2026-05-03T10:57:57.832Z</time></trkpt><trkpt lat="45.9660233" lon="8.8085467"><ele>818.5000000000001</ele><time>2026-05-03T10:57:58.832Z</time></trkpt><trkpt lat="45.9659883" lon="8.8086583"><ele>816.0</ele><time>2026-05-03T10:57:59.832Z</time></trkpt><trkpt lat="45.965945" lon="8.808765"><ele>813.5</ele><time>2026-05-03T10:58:00.833Z</time></trkpt><trkpt lat="45.9659" lon="8.8088617"><ele>811.0</ele><time>2026-05-03T10:58:01.833Z</time></trkpt><trkpt lat="45.9658533" lon="8.8089583"><ele>808.5000000000001</ele><time>2026-05-03T10:58:02.832Z</time></trkpt><trkpt lat="45.9657783" lon="8.809035"><ele>806.0</ele><time>2026-05-03T10:58:03.833Z</time></trkpt><trkpt lat="45.9656933" lon="8.8091133"><ele>808.8333333333334</ele><time>2026-05-03T10:58:04.832Z</time></trkpt><trkpt lat="45.9656067" lon="8.8091933"><ele>811.6666666666667</ele><time>2026-05-03T10:58:05.832Z</time></trkpt><trkpt lat="45.9655283" lon="8.80927"><ele>814.5</ele><time>2026-05-03T10:58:06.833Z</time></trkpt><trkpt lat="45.9654633" lon="8.8093483"><ele>817.3333333333333</ele><time>2026-05-03T10:58:07.832Z</time></trkpt><trkpt lat="45.9654083" lon="8.8094267"><ele>820.1666666666666</ele><time>2026-05-03T10:58:08.833Z</time></trkpt><trkpt lat="45.9653567" lon="8.8095067"><ele>823.0</ele><time>2026-05-03T10:58:09.833Z</time></trkpt><trkpt lat="45.9653183" lon="8.8095933"><ele>822.9999999999999</ele><time>2026-05-03T10:58:10.833Z</time></trkpt><trkpt lat="45.9652733" lon="8.8096767"><ele>823.0</ele><time>2026-05-03T10:58:11.833Z</time></trkpt><trkpt lat="45.9652267" lon="8.8097483"><ele>823.0</ele><time>2026-05-03T10:58:12.832Z</time></trkpt><trkpt lat="45.9651633" lon="8.8098133"><ele>823.0</ele><time>2026-05-03T10:58:13.832Z</time></trkpt><trkpt lat="45.96509" lon="8.8098533"><ele>822.9999999999999</ele><time>2026-05-03T10:58:14.833Z</time></trkpt><trkpt lat="45.9650233" lon="8.8098833"><ele>823.0</ele><time>2026-05-03T10:58:15.833Z</time></trkpt><trkpt lat="45.9649183" lon="8.809955"><ele>830.3333333333333</ele><time>2026-05-03T10:58:17.833Z</time></trkpt><trkpt lat="45.9649083" lon="8.8100533"><ele>837.6666666666666</ele><time>2026-05-03T10:58:18.833Z</time></trkpt><trkpt lat="45.9649417" lon="8.8101683"><ele>845.0</ele><time>2026-05-03T10:58:19.833Z</time></trkpt><trkpt lat="45.9649683" lon="8.8102917"><ele>852.3333333333333</ele><time>2026-05-03T10:58:20.833Z</time></trkpt><trkpt lat="45.964985" lon="8.8104267"><ele>859.6666666666666</ele><time>2026-05-03T10:58:21.833Z</time></trkpt><trkpt lat="45.9649767" lon="8.8105467"><ele>867.0</ele><time>2026-05-03T10:58:22.833Z</time></trkpt><trkpt lat="45.9649633" lon="8.8106567"><ele>867.0</ele><time>2026-05-03T10:58:23.833Z</time></trkpt><trkpt lat="45.9649417" lon="8.8107583"><ele>867.0</ele><time>2026-05-03T10:58:24.833Z</time></trkpt><trkpt lat="45.964905" lon="8.8108517"><ele>867.0</ele><time>2026-05-03T10:58:25.833Z</time></trkpt><trkpt lat="45.96483" lon="8.8110367"><ele>867.0</ele><time>2026-05-03T10:58:27.833Z</time></trkpt><trkpt lat="45.9647917" lon="8.8111233"><ele>867.0</ele><time>2026-05-03T10:58:28.833Z</time></trkpt><trkpt lat="45.9647533" lon="8.8112383"><ele>865.8</ele><time>2026-05-03T10:58:29.833Z</time></trkpt><trkpt lat="45.9647283" lon="8.8113767"><ele>864.6</ele><time>2026-05-03T10:58:30.832Z</time></trkpt><trkpt lat="45.9647067" lon="8.811525"><ele>863.3999999999999</ele><time>2026-05-03T10:58:31.832Z</time></trkpt><trkpt lat="45.9646783" lon="8.8116717"><ele>862.1999999999999</ele><time>2026-05-03T10:58:32.833Z</time></trkpt><trkpt lat="45.9646633" lon="8.8118167"><ele>861.0</ele><time>2026-05-03T10:58:33.833Z</time></trkpt><trkpt lat="45.96466" lon="8.8119483"><ele>861.0</ele><time>2026-05-03T10:58:34.833Z</time></trkpt><trkpt lat="45.9646617" lon="8.8120783"><ele>860.9999999999999</ele><time>2026-05-03T10:58:35.833Z</time></trkpt><trkpt lat="45.9646567" lon="8.8122033"><ele>860.9999999999999</ele><time>2026-05-03T10:58:36.833Z</time></trkpt><trkpt lat="45.9646517" lon="8.8123383"><ele>861.0</ele><time>2026-05-03T10:58:37.833Z</time></trkpt><trkpt lat="45.96466" lon="8.8124733"><ele>861.0</ele><time>2026-05-03T10:58:38.833Z</time></trkpt><trkpt lat="45.9646783" lon="8.8126233"><ele>862.5999999999999</ele><time>2026-05-03T10:58:39.833Z</time></trkpt><trkpt lat="45.9646967" lon="8.812775"><ele>864.1999999999999</ele><time>2026-05-03T10:58:40.832Z</time></trkpt><trkpt lat="45.9647017" lon="8.8129217"><ele>865.8000000000001</ele><time>2026-05-03T10:58:41.832Z</time></trkpt><trkpt lat="45.9647117" lon="8.8130583"><ele>867.4000000000001</ele><time>2026-05-03T10:58:42.832Z</time></trkpt><trkpt lat="45.9647133" lon="8.8131983"><ele>869.0</ele><time>2026-05-03T10:58:43.833Z</time></trkpt><trkpt lat="45.9647183" lon="8.8133317"><ele>869.0</ele><time>2026-05-03T10:58:44.833Z</time></trkpt><trkpt lat="45.9647267" lon="8.8134467"><ele>869.0</ele><time>2026-05-03T10:58:45.833Z</time></trkpt><trkpt lat="45.964725" lon="8.8135633"><ele>869.0</ele><time>2026-05-03T10:58:46.833Z</time></trkpt><trkpt lat="45.9647367" lon="8.8136767"><ele>869.0</ele><time>2026-05-03T10:58:47.832Z</time></trkpt><trkpt lat="45.96475" lon="8.813785"><ele>869.0</ele><time>2026-05-03T10:58:48.833Z</time></trkpt><trkpt lat="45.9647667" lon="8.813875"><ele>869.0</ele><time>2026-05-03T10:58:49.833Z</time></trkpt><trkpt lat="45.9647767" lon="8.813965"><ele>869.0</ele><time>2026-05-03T10:58:50.833Z</time></trkpt><trkpt lat="45.9648233" lon="8.8140617"><ele>870.6666666666667</ele><time>2026-05-03T10:58:51.833Z</time></trkpt><trkpt lat="45.964875" lon="8.814155"><ele>872.3333333333334</ele><time>2026-05-03T10:58:52.833Z</time></trkpt><trkpt lat="45.96493" lon="8.8142367"><ele>874.0</ele><time>2026-05-03T10:58:53.833Z</time></trkpt><trkpt lat="45.9649783" lon="8.814315"><ele>875.6666666666667</ele><time>2026-05-03T10:58:54.833Z</time></trkpt><trkpt lat="45.96502" lon="8.8143867"><ele>877.3333333333334</ele><time>2026-05-03T10:58:55.833Z</time></trkpt><trkpt lat="45.9650933" lon="8.81449"><ele>879.0</ele><time>2026-05-03T10:58:57.832Z</time></trkpt><trkpt lat="45.9651367" lon="8.814605"><ele>879.0</ele><time>2026-05-03T10:59:00.832Z</time></trkpt><trkpt lat="45.9652083" lon="8.8146567"><ele>879.0</ele><time>2026-05-03T10:59:03.833Z</time></trkpt><trkpt lat="45.96527" lon="8.8147583"><ele>879.0</ele><time>2026-05-03T10:59:07.833Z</time></trkpt><trkpt lat="45.965285" lon="8.814885"><ele>879.0</ele><time>2026-05-03T10:59:09.833Z</time></trkpt><trkpt lat="45.9652883" lon="8.8149783"><ele>879.0</ele><time>2026-05-03T10:59:10.833Z</time></trkpt><trkpt lat="45.9652967" lon="8.815085"><ele>879.0</ele><time>2026-05-03T10:59:11.832Z</time></trkpt><trkpt lat="45.9653283" lon="8.8151967"><ele>882.6666666666666</ele><time>2026-05-03T10:59:12.833Z</time></trkpt><trkpt lat="45.9653517" lon="8.8153067"><ele>886.3333333333333</ele><time>2026-05-03T10:59:13.833Z</time></trkpt><trkpt lat="45.9653683" lon="8.8154033"><ele>890.0</ele><time>2026-05-03T10:59:14.832Z</time></trkpt><trkpt lat="45.9653783" lon="8.815495"><ele>893.6666666666666</ele><time>2026-05-03T10:59:15.833Z</time></trkpt><trkpt lat="45.9653617" lon="8.8156733"><ele>897.3333333333333</ele><time>2026-05-03T10:59:17.833Z</time></trkpt><trkpt lat="45.96535" lon="8.8157717"><ele>901.0</ele><time>2026-05-03T10:59:18.832Z</time></trkpt><trkpt lat="45.9653483" lon="8.8158783"><ele>900.9999999999999</ele><time>2026-05-03T10:59:19.833Z</time></trkpt><trkpt lat="45.965355" lon="8.8159833"><ele>901.0</ele><time>2026-05-03T10:59:20.833Z</time></trkpt><trkpt lat="45.9653567" lon="8.8160783"><ele>901.0</ele><time>2026-05-03T10:59:21.832Z</time></trkpt><trkpt lat="45.96539" lon="8.8162483"><ele>901.0</ele><time>2026-05-03T10:59:23.833Z</time></trkpt><trkpt lat="45.9654017" lon="8.8163467"><ele>900.9999999999999</ele><time>2026-05-03T10:59:24.832Z</time></trkpt><trkpt lat="45.9654033" lon="8.8164417"><ele>901.0</ele><time>2026-05-03T10:59:25.832Z</time></trkpt><trkpt lat="45.96538" lon="8.8166067"><ele>900.8333333333333</ele><time>2026-05-03T10:59:27.833Z</time></trkpt><trkpt lat="45.9653283" lon="8.81673"><ele>900.6666666666666</ele><time>2026-05-03T10:59:29.833Z</time></trkpt><trkpt lat="45.9652683" lon="8.8168217"><ele>900.5</ele><time>2026-05-03T10:59:31.832Z</time></trkpt><trkpt lat="45.9651967" lon="8.8169067"><ele>900.3333333333333</ele><time>2026-05-03T10:59:33.833Z</time></trkpt><trkpt lat="45.9651283" lon="8.81697"><ele>900.1666666666666</ele><time>2026-05-03T10:59:35.832Z</time></trkpt><trkpt lat="45.9650567" lon="8.8170383"><ele>900.0</ele><time>2026-05-03T10:59:37.833Z</time></trkpt><trkpt lat="45.965" lon="8.8170983"><ele>899.2</ele><time>2026-05-03T10:59:39.832Z</time></trkpt><trkpt lat="45.9649517" lon="8.8171867"><ele>898.4</ele><time>2026-05-03T10:59:41.833Z</time></trkpt><trkpt lat="45.9649367" lon="8.8173217"><ele>897.5999999999999</ele><time>2026-05-03T10:59:43.833Z</time></trkpt><trkpt lat="45.9649417" lon="8.8174917"><ele>896.8</ele><time>2026-05-03T10:59:45.833Z</time></trkpt><trkpt lat="45.9649433" lon="8.8175967"><ele>896.0</ele><time>2026-05-03T10:59:46.833Z</time></trkpt><trkpt lat="45.9649467" lon="8.817735"><ele>895.3333333333334</ele><time>2026-05-03T10:59:47.833Z</time></trkpt><trkpt lat="45.9649617" lon="8.817865"><ele>894.6666666666667</ele><time>2026-05-03T10:59:48.833Z</time></trkpt><trkpt lat="45.9649683" lon="8.8179833"><ele>894.0</ele><time>2026-05-03T10:59:49.833Z</time></trkpt><trkpt lat="45.9649783" lon="8.8180817"><ele>893.3333333333333</ele><time>2026-05-03T10:59:50.833Z</time></trkpt><trkpt lat="45.965015" lon="8.81822"><ele>892.6666666666666</ele><time>2026-05-03T10:59:52.833Z</time></trkpt><trkpt lat="45.9650517" lon="8.81833"><ele>892.0</ele><time>2026-05-03T10:59:54.832Z</time></trkpt><trkpt lat="45.9650983" lon="8.81843"><ele>890.8</ele><time>2026-05-03T10:59:56.833Z</time></trkpt><trkpt lat="45.9651183" lon="8.8185517"><ele>889.6</ele><time>2026-05-03T10:59:59.833Z</time></trkpt><trkpt lat="45.96512" lon="8.818675"><ele>888.3999999999999</ele><time>2026-05-03T11:00:01.833Z</time></trkpt><trkpt lat="45.965135" lon="8.8188117"><ele>887.1999999999999</ele><time>2026-05-03T11:00:03.833Z</time></trkpt><trkpt lat="45.9651533" lon="8.8189717"><ele>886.0</ele><time>2026-05-03T11:00:05.832Z</time></trkpt><trkpt lat="45.9651183" lon="8.8191333"><ele>885.9999999999999</ele><time>2026-05-03T11:00:07.833Z</time></trkpt><trkpt lat="45.965075" lon="8.8192667"><ele>886.0</ele><time>2026-05-03T11:00:09.833Z</time></trkpt><trkpt lat="45.9650317" lon="8.8193333"><ele>886.0</ele><time>2026-05-03T11:00:10.833Z</time></trkpt><trkpt lat="45.9649683" lon="8.8194"><ele>886.0</ele><time>2026-05-03T11:00:11.833Z</time></trkpt><trkpt lat="45.96491" lon="8.8194567"><ele>885.9999999999999</ele><time>2026-05-03T11:00:12.832Z</time></trkpt><trkpt lat="45.964845" lon="8.819505"><ele>886.0</ele><time>2026-05-03T11:00:13.833Z</time></trkpt><trkpt lat="45.9647783" lon="8.8195483"><ele>885.8571428571429</ele><time>2026-05-03T11:00:14.832Z</time></trkpt><trkpt lat="45.9647133" lon="8.81959"><ele>885.7142857142858</ele><time>2026-05-03T11:00:15.833Z</time></trkpt><trkpt lat="45.9646567" lon="8.819655"><ele>885.5714285714286</ele><time>2026-05-03T11:00:16.833Z</time></trkpt><trkpt lat="45.9645933" lon="8.8197167"><ele>885.4285714285714</ele><time>2026-05-03T11:00:17.832Z</time></trkpt><trkpt lat="45.9645317" lon="8.8197467"><ele>885.2857142857142</ele><time>2026-05-03T11:00:18.832Z</time></trkpt><trkpt lat="45.9644783" lon="8.8198067"><ele>885.1428571428571</ele><time>2026-05-03T11:00:19.833Z</time></trkpt><trkpt lat="45.96442" lon="8.8198617"><ele>885.0</ele><time>2026-05-03T11:00:20.833Z</time></trkpt><trkpt lat="45.9643633" lon="8.8199033"><ele>885.0</ele><time>2026-05-03T11:00:21.832Z</time></trkpt><trkpt lat="45.9643083" lon="8.8199517"><ele>885.0</ele><time>2026-05-03T11:00:22.833Z</time></trkpt><trkpt lat="45.9641983" lon="8.8199883"><ele>885.0</ele><time>2026-05-03T11:00:24.832Z</time></trkpt><trkpt lat="45.964135" lon="8.8199767"><ele>885.0</ele><time>2026-05-03T11:00:25.833Z</time></trkpt><trkpt lat="45.9640233" lon="8.81995"><ele>885.0</ele><time>2026-05-03T11:00:27.832Z</time></trkpt><trkpt lat="45.96396" lon="8.8199367"><ele>885.0</ele><time>2026-05-03T11:00:28.833Z</time></trkpt><trkpt lat="45.9638867" lon="8.8199283"><ele>885.5714285714286</ele><time>2026-05-03T11:00:29.833Z</time></trkpt><trkpt lat="45.9638133" lon="8.8199233"><ele>886.1428571428571</ele><time>2026-05-03T11:00:30.833Z</time></trkpt><trkpt lat="45.9637417" lon="8.8199133"><ele>886.7142857142858</ele><time>2026-05-03T11:00:31.833Z</time></trkpt><trkpt lat="45.963665" lon="8.8199067"><ele>887.2857142857142</ele><time>2026-05-03T11:00:32.833Z</time></trkpt><trkpt lat="45.963595" lon="8.8198883"><ele>887.8571428571429</ele><time>2026-05-03T11:00:33.833Z</time></trkpt><trkpt lat="45.963525" lon="8.8198817"><ele>888.4285714285714</ele><time>2026-05-03T11:00:34.832Z</time></trkpt><trkpt lat="45.9634533" lon="8.8198667"><ele>889.0</ele><time>2026-05-03T11:00:35.833Z</time></trkpt><trkpt lat="45.9633733" lon="8.8198633"><ele>889.2857142857143</ele><time>2026-05-03T11:00:36.833Z</time></trkpt><trkpt lat="45.9633017" lon="8.81986"><ele>889.5714285714286</ele><time>2026-05-03T11:00:37.833Z</time></trkpt><trkpt lat="45.9632333" lon="8.8198567"><ele>889.8571428571429</ele><time>2026-05-03T11:00:38.833Z</time></trkpt><trkpt lat="45.9631617" lon="8.8198417"><ele>890.1428571428571</ele><time>2026-05-03T11:00:39.833Z</time></trkpt><trkpt lat="45.9630933" lon="8.8198267"><ele>890.4285714285714</ele><time>2026-05-03T11:00:40.833Z</time></trkpt><trkpt lat="45.9630217" lon="8.8198167"><ele>890.7142857142858</ele><time>2026-05-03T11:00:41.833Z</time></trkpt><trkpt lat="45.9629417" lon="8.8198117"><ele>891.0</ele><time>2026-05-03T11:00:42.833Z</time></trkpt><trkpt lat="45.9628783" lon="8.819815"><ele>891.0</ele><time>2026-05-03T11:00:43.833Z</time></trkpt><trkpt lat="45.9627667" lon="8.81983"><ele>891.0</ele><time>2026-05-03T11:00:45.832Z</time></trkpt><trkpt lat="45.9626733" lon="8.8198433"><ele>891.0</ele><time>2026-05-03T11:00:47.833Z</time></trkpt><trkpt lat="45.9625933" lon="8.8198217"><ele>891.0</ele><time>2026-05-03T11:00:49.833Z</time></trkpt><trkpt lat="45.962525" lon="8.8197967"><ele>891.0</ele><time>2026-05-03T11:00:51.832Z</time></trkpt><trkpt lat="45.962465" lon="8.8197667"><ele>891.0</ele><time>2026-05-03T11:00:53.833Z</time></trkpt><trkpt lat="45.9623983" lon="8.8197183"><ele>890.5999999999999</ele><time>2026-05-03T11:00:58.833Z</time></trkpt><trkpt lat="45.9623383" lon="8.8197933"><ele>890.1999999999999</ele><time>2026-05-03T11:01:02.833Z</time></trkpt><trkpt lat="45.9622883" lon="8.8198933"><ele>889.8000000000001</ele><time>2026-05-03T11:01:04.833Z</time></trkpt><trkpt lat="45.9622283" lon="8.820035"><ele>889.4000000000001</ele><time>2026-05-03T11:01:06.833Z</time></trkpt><trkpt lat="45.9621783" lon="8.820185"><ele>889.0</ele><time>2026-05-03T11:01:08.833Z</time></trkpt><trkpt lat="45.962145" lon="8.820345"><ele>887.2</ele><time>2026-05-03T11:01:10.833Z</time></trkpt><trkpt lat="45.9621217" lon="8.8204767"><ele>885.4000000000001</ele><time>2026-05-03T11:01:12.833Z</time></trkpt><trkpt lat="45.962105" lon="8.8206117"><ele>883.6</ele><time>2026-05-03T11:01:14.832Z</time></trkpt><trkpt lat="45.9620933" lon="8.8207133"><ele>881.8</ele><time>2026-05-03T11:01:17.833Z</time></trkpt><trkpt lat="45.96212" lon="8.8208933"><ele>880.0</ele><time>2026-05-03T11:01:25.832Z</time></trkpt><trkpt lat="45.962135" lon="8.8211033"><ele>879.9999999999999</ele><time>2026-05-03T11:01:36.833Z</time></trkpt><trkpt lat="45.9620817" lon="8.8210383"><ele>880.0</ele><time>2026-05-03T11:01:45.833Z</time></trkpt><trkpt lat="45.9620617" lon="8.8209483"><ele>880.0</ele><time>2026-05-03T11:01:47.833Z</time></trkpt><trkpt lat="45.9620717" lon="8.8208417"><ele>880.0</ele><time>2026-05-03T11:01:49.833Z</time></trkpt><trkpt lat="45.9621217" lon="8.82071"><ele>879.9999999999999</ele><time>2026-05-03T11:01:51.832Z</time></trkpt><trkpt lat="45.96218" lon="8.8205817"><ele>880.0</ele><time>2026-05-03T11:01:53.833Z</time></trkpt><trkpt lat="45.9622133" lon="8.8204967"><ele>879.9999999999999</ele><time>2026-05-03T11:01:55.833Z</time></trkpt><trkpt lat="45.96215" lon="8.8204333"><ele>880.0</ele><time>2026-05-03T11:01:58.832Z</time></trkpt><trkpt lat="45.9620717" lon="8.8203917"><ele>880.0</ele><time>2026-05-03T11:02:00.833Z</time></trkpt><trkpt lat="45.9619483" lon="8.82035"><ele>880.0</ele><time>2026-05-03T11:02:02.833Z</time></trkpt><trkpt lat="45.9618717" lon="8.82033"><ele>879.9999999999999</ele><time>2026-05-03T11:02:03.833Z</time></trkpt><trkpt lat="45.9617967" lon="8.8203083"><ele>880.0</ele><time>2026-05-03T11:02:04.833Z</time></trkpt><trkpt lat="45.9617117" lon="8.820285"><ele>880.6666666666666</ele><time>2026-05-03T11:02:05.833Z</time></trkpt><trkpt lat="45.9616317" lon="8.8202483"><ele>881.3333333333333</ele><time>2026-05-03T11:02:06.833Z</time></trkpt><trkpt lat="45.96156" lon="8.8202"><ele>882.0</ele><time>2026-05-03T11:02:07.833Z</time></trkpt><trkpt lat="45.9614967" lon="8.8201417"><ele>882.6666666666667</ele><time>2026-05-03T11:02:08.832Z</time></trkpt><trkpt lat="45.9614317" lon="8.8200767"><ele>883.3333333333334</ele><time>2026-05-03T11:02:09.833Z</time></trkpt><trkpt lat="45.9613567" lon="8.8200067"><ele>884.0</ele><time>2026-05-03T11:02:10.832Z</time></trkpt><trkpt lat="45.961295" lon="8.8199417"><ele>884.0000000000001</ele><time>2026-05-03T11:02:11.833Z</time></trkpt><trkpt lat="45.9612333" lon="8.819885"><ele>884.0</ele><time>2026-05-03T11:02:12.833Z</time></trkpt><trkpt lat="45.9611383" lon="8.8197883"><ele>884.0</ele><time>2026-05-03T11:02:14.833Z</time></trkpt><trkpt lat="45.961055" lon="8.8197283"><ele>884.0</ele><time>2026-05-03T11:02:16.833Z</time></trkpt><trkpt lat="45.9609717" lon="8.8197017"><ele>884.0000000000001</ele><time>2026-05-03T11:02:18.833Z</time></trkpt><trkpt lat="45.9609" lon="8.8197283"><ele>884.0</ele><time>2026-05-03T11:02:21.833Z</time></trkpt><trkpt lat="45.9608617" lon="8.8198017"><ele>881.3333333333334</ele><time>2026-05-03T11:02:25.833Z</time></trkpt><trkpt lat="45.9608233" lon="8.8198983"><ele>878.6666666666667</ele><time>2026-05-03T11:02:31.832Z</time></trkpt><trkpt lat="45.9607517" lon="8.8199633"><ele>876.0</ele><time>2026-05-03T11:02:35.832Z</time></trkpt><trkpt lat="45.9606817" lon="8.8200317"><ele>873.3333333333333</ele><time>2026-05-03T11:02:38.832Z</time></trkpt><trkpt lat="45.96062" lon="8.8200917"><ele>870.6666666666666</ele><time>2026-05-03T11:02:41.833Z</time></trkpt><trkpt lat="45.96054" lon="8.82013"><ele>868.0</ele><time>2026-05-03T11:02:44.833Z</time></trkpt><trkpt lat="45.9604667" lon="8.820125"><ele>868.0</ele><time>2026-05-03T11:02:46.832Z</time></trkpt><trkpt lat="45.9604" lon="8.8201283"><ele>868.0</ele><time>2026-05-03T11:02:48.833Z</time></trkpt><trkpt lat="45.9603217" lon="8.8201617"><ele>868.0</ele><time>2026-05-03T11:02:51.833Z</time></trkpt><trkpt lat="45.9602483" lon="8.8202"><ele>868.0</ele><time>2026-05-03T11:02:54.833Z</time></trkpt><trkpt lat="45.9601833" lon="8.8202633"><ele>868.0</ele><time>2026-05-03T11:02:57.833Z</time></trkpt><trkpt lat="45.9601183" lon="8.8203017"><ele>868.0</ele><time>2026-05-03T11:03:00.833Z</time></trkpt><trkpt lat="45.9600533" lon="8.8203467"><ele>868.0</ele><time>2026-05-03T11:03:03.833Z</time></trkpt><trkpt lat="45.959995" lon="8.820455"><ele>863.9999999999999</ele><time>2026-05-03T11:03:06.832Z</time></trkpt><trkpt lat="45.959915" lon="8.82051"><ele>860.0</ele><time>2026-05-03T11:03:09.833Z</time></trkpt><trkpt lat="45.9598517" lon="8.820515"><ele>856.0</ele><time>2026-05-03T11:03:11.833Z</time></trkpt><trkpt lat="45.959785" lon="8.8205083"><ele>852.0</ele><time>2026-05-03T11:03:13.833Z</time></trkpt><trkpt lat="45.9597133" lon="8.8205067"><ele>847.9999999999999</ele><time>2026-05-03T11:03:15.833Z</time></trkpt><trkpt lat="45.9596433" lon="8.8205267"><ele>844.0</ele><time>2026-05-03T11:03:17.832Z</time></trkpt><trkpt lat="45.9595583" lon="8.82057"><ele>843.9999999999999</ele><time>2026-05-03T11:03:19.833Z</time></trkpt><trkpt lat="45.95949" lon="8.82062"><ele>844.0</ele><time>2026-05-03T11:03:21.833Z</time></trkpt><trkpt lat="45.959455" lon="8.8206983"><ele>844.0</ele><time>2026-05-03T11:03:23.833Z</time></trkpt><trkpt lat="45.9594033" lon="8.8208033"><ele>844.0</ele><time>2026-05-03T11:03:26.833Z</time></trkpt><trkpt lat="45.9593467" lon="8.82087"><ele>843.9999999999999</ele><time>2026-05-03T11:03:29.833Z</time></trkpt><trkpt lat="45.9592783" lon="8.820915"><ele>844.0</ele><time>2026-05-03T11:03:32.833Z</time></trkpt><trkpt lat="45.95922" lon="8.8209733"><ele>837.6</ele><time>2026-05-03T11:03:34.833Z</time></trkpt><trkpt lat="45.9591517" lon="8.8210533"><ele>831.2</ele><time>2026-05-03T11:03:36.833Z</time></trkpt><trkpt lat="45.959095" lon="8.8211233"><ele>824.8000000000001</ele><time>2026-05-03T11:03:38.833Z</time></trkpt><trkpt lat="45.958945" lon="8.8212133"><ele>818.4000000000001</ele><time>2026-05-03T11:04:14.833Z</time></trkpt><trkpt lat="45.9588933" lon="8.8211567"><ele>812.0</ele><time>2026-05-03T11:04:16.832Z</time></trkpt><trkpt lat="45.95889" lon="8.8210167"><ele>816.1666666666667</ele><time>2026-05-03T11:04:19.833Z</time></trkpt><trkpt lat="45.9589033" lon="8.8208433"><ele>820.3333333333334</ele><time>2026-05-03T11:04:21.832Z</time></trkpt><trkpt lat="45.9589033" lon="8.820725"><ele>824.5</ele><time>2026-05-03T11:04:22.833Z</time></trkpt><trkpt lat="45.9588917" lon="8.8206033"><ele>828.6666666666667</ele><time>2026-05-03T11:04:23.833Z</time></trkpt><trkpt lat="45.9588717" lon="8.8204933"><ele>832.8333333333334</ele><time>2026-05-03T11:04:24.832Z</time></trkpt><trkpt lat="45.9588583" lon="8.8204033"><ele>837.0</ele><time>2026-05-03T11:04:25.833Z</time></trkpt><trkpt lat="45.95881" lon="8.8202717"><ele>837.0</ele><time>2026-05-03T11:04:27.833Z</time></trkpt><trkpt lat="45.9587583" lon="8.820195"><ele>837.0</ele><time>2026-05-03T11:04:28.833Z</time></trkpt><trkpt lat="45.9587067" lon="8.820115"><ele>837.0</ele><time>2026-05-03T11:04:29.833Z</time></trkpt><trkpt lat="45.9586517" lon="8.8200483"><ele>837.0</ele><time>2026-05-03T11:04:30.833Z</time></trkpt><trkpt lat="45.9585783" lon="8.8199917"><ele>837.0</ele><time>2026-05-03T11:04:31.832Z</time></trkpt><trkpt lat="45.9585133" lon="8.819925"><ele>837.0</ele><time>2026-05-03T11:04:32.832Z</time></trkpt><trkpt lat="45.9584467" lon="8.819885"><ele>836.6666666666666</ele><time>2026-05-03T11:04:33.833Z</time></trkpt><trkpt lat="45.95834" lon="8.81983"><ele>836.3333333333333</ele><time>2026-05-03T11:04:35.833Z</time></trkpt><trkpt lat="45.958275" lon="8.81981"><ele>836.0</ele><time>2026-05-03T11:04:37.833Z</time></trkpt><trkpt lat="45.9581833" lon="8.8197567"><ele>835.6666666666666</ele><time>2026-05-03T11:04:40.833Z</time></trkpt><trkpt lat="45.9581133" lon="8.8197017"><ele>835.3333333333333</ele><time>2026-05-03T11:04:42.832Z</time></trkpt><trkpt lat="45.9580383" lon="8.81963"><ele>835.0</ele><time>2026-05-03T11:04:44.833Z</time></trkpt><trkpt lat="45.9579667" lon="8.8195667"><ele>834.9999999999999</ele><time>2026-05-03T11:04:46.833Z</time></trkpt><trkpt lat="45.9578967" lon="8.8195117"><ele>835.0</ele><time>2026-05-03T11:04:48.833Z</time></trkpt><trkpt lat="45.9578217" lon="8.8194667"><ele>835.0</ele><time>2026-05-03T11:04:50.833Z</time></trkpt><trkpt lat="45.95774" lon="8.8194133"><ele>835.0</ele><time>2026-05-03T11:04:53.833Z</time></trkpt><trkpt lat="45.9576617" lon="8.819395"><ele>834.9999999999999</ele><time>2026-05-03T11:04:56.833Z</time></trkpt><trkpt lat="45.9575883" lon="8.8193517"><ele>835.0</ele><time>2026-05-03T11:05:00.832Z</time></trkpt><trkpt lat="45.9574633" lon="8.81926"><ele>833.7142857142858</ele><time>2026-05-03T11:05:08.833Z</time></trkpt><trkpt lat="45.9574017" lon="8.8192233"><ele>832.4285714285714</ele><time>2026-05-03T11:05:11.832Z</time></trkpt><trkpt lat="45.957345" lon="8.81916"><ele>831.1428571428571</ele><time>2026-05-03T11:05:14.833Z</time></trkpt><trkpt lat="45.957275" lon="8.8191"><ele>829.8571428571429</ele><time>2026-05-03T11:05:18.833Z</time></trkpt><trkpt lat="45.9572133" lon="8.8190617"><ele>828.5714285714286</ele><time>2026-05-03T11:05:22.833Z</time></trkpt><trkpt lat="45.9571517" lon="8.8190283"><ele>827.2857142857143</ele><time>2026-05-03T11:05:25.833Z</time></trkpt><trkpt lat="45.9570967" lon="8.81898"><ele>826.0</ele><time>2026-05-03T11:05:28.833Z</time></trkpt><trkpt lat="45.9570183" lon="8.818965"><ele>825.9999999999999</ele><time>2026-05-03T11:05:31.833Z</time></trkpt><trkpt lat="45.9569483" lon="8.8189483"><ele>826.0</ele><time>2026-05-03T11:05:34.833Z</time></trkpt><trkpt lat="45.9568767" lon="8.81893"><ele>826.0</ele><time>2026-05-03T11:05:37.833Z</time></trkpt><trkpt lat="45.9568133" lon="8.8189183"><ele>826.0</ele><time>2026-05-03T11:05:40.832Z</time></trkpt><trkpt lat="45.956755" lon="8.8188767"><ele>825.9999999999999</ele><time>2026-05-03T11:05:43.833Z</time></trkpt><trkpt lat="45.95658" lon="8.8188917"><ele>826.0</ele><time>2026-05-03T11:05:54.833Z</time></trkpt><trkpt lat="45.956485" lon="8.8189183"><ele>820.1666666666666</ele><time>2026-05-03T11:06:04.833Z</time></trkpt><trkpt lat="45.9564467" lon="8.81901"><ele>814.3333333333333</ele><time>2026-05-03T11:06:10.833Z</time></trkpt><trkpt lat="45.9564133" lon="8.8191017"><ele>808.5</ele><time>2026-05-03T11:06:14.833Z</time></trkpt><trkpt lat="45.9563867" lon="8.8191983"><ele>802.6666666666667</ele><time>2026-05-03T11:06:18.832Z</time></trkpt><trkpt lat="45.956375" lon="8.8192933"><ele>796.8333333333334</ele><time>2026-05-03T11:06:28.833Z</time></trkpt><trkpt lat="45.9563433" lon="8.819425"><ele>791.0</ele><time>2026-05-03T11:06:29.833Z</time></trkpt><trkpt lat="45.9562967" lon="8.819585"><ele>788.5000000000001</ele><time>2026-05-03T11:06:38.832Z</time></trkpt><trkpt lat="45.9562733" lon="8.819675"><ele>786.0</ele><time>2026-05-03T11:06:42.832Z</time></trkpt><trkpt lat="45.9562683" lon="8.8197767"><ele>783.5</ele><time>2026-05-03T11:06:46.832Z</time></trkpt><trkpt lat="45.956275" lon="8.819885"><ele>781.0</ele><time>2026-05-03T11:06:49.832Z</time></trkpt><trkpt lat="45.956265" lon="8.819995"><ele>778.5000000000001</ele><time>2026-05-03T11:06:52.831Z</time></trkpt><trkpt lat="45.956225" lon="8.8201"><ele>776.0</ele><time>2026-05-03T11:06:56.832Z</time></trkpt><trkpt lat="45.9561617" lon="8.8201883"><ele>774.1666666666667</ele><time>2026-05-03T11:06:59.832Z</time></trkpt><trkpt lat="45.956085" lon="8.8202733"><ele>772.3333333333334</ele><time>2026-05-03T11:07:02.832Z</time></trkpt><trkpt lat="45.9560233" lon="8.8203383"><ele>770.5</ele><time>2026-05-03T11:07:04.831Z</time></trkpt><trkpt lat="45.955965" lon="8.8203933"><ele>768.6666666666667</ele><time>2026-05-03T11:07:06.832Z</time></trkpt><trkpt lat="45.95591" lon="8.82045"><ele>766.8333333333334</ele><time>2026-05-03T11:07:08.832Z</time></trkpt><trkpt lat="45.95584" lon="8.82052"><ele>765.0</ele><time>2026-05-03T11:07:10.832Z</time></trkpt><trkpt lat="45.9557567" lon="8.8206083"><ele>760.8</ele><time>2026-05-03T11:07:12.832Z</time></trkpt><trkpt lat="45.9556683" lon="8.82072"><ele>756.6</ele><time>2026-05-03T11:07:14.832Z</time></trkpt><trkpt lat="45.9556117" lon="8.8207933"><ele>752.4000000000001</ele><time>2026-05-03T11:07:16.832Z</time></trkpt><trkpt lat="45.9555833" lon="8.8208833"><ele>748.2</ele><time>2026-05-03T11:07:18.832Z</time></trkpt><trkpt lat="45.9555733" lon="8.8210183"><ele>744.0</ele><time>2026-05-03T11:07:21.832Z</time></trkpt><trkpt lat="45.9555733" lon="8.82116"><ele>743.1666666666666</ele><time>2026-05-03T11:07:23.832Z</time></trkpt><trkpt lat="45.95554" lon="8.821315"><ele>742.3333333333334</ele><time>2026-05-03T11:07:25.831Z</time></trkpt><trkpt lat="45.955495" lon="8.82144"><ele>741.5</ele><time>2026-05-03T11:07:27.831Z</time></trkpt><trkpt lat="45.9554783" lon="8.821545"><ele>740.6666666666667</ele><time>2026-05-03T11:07:29.832Z</time></trkpt><trkpt lat="45.95547" lon="8.82165"><ele>739.8333333333334</ele><time>2026-05-03T11:07:31.832Z</time></trkpt><trkpt lat="45.95546" lon="8.8217533"><ele>739.0</ele><time>2026-05-03T11:07:33.832Z</time></trkpt><trkpt lat="45.9554517" lon="8.8218517"><ele>737.4285714285714</ele><time>2026-05-03T11:07:35.832Z</time></trkpt><trkpt lat="45.9554517" lon="8.8219483"><ele>735.8571428571429</ele><time>2026-05-03T11:07:37.832Z</time></trkpt><trkpt lat="45.95547" lon="8.8220533"><ele>734.2857142857142</ele><time>2026-05-03T11:07:39.832Z</time></trkpt><trkpt lat="45.95548" lon="8.8221433"><ele>732.7142857142858</ele><time>2026-05-03T11:07:41.832Z</time></trkpt><trkpt lat="45.9555067" lon="8.8222417"><ele>731.1428571428571</ele><time>2026-05-03T11:07:44.832Z</time></trkpt><trkpt lat="45.9555567" lon="8.8223333"><ele>729.5714285714286</ele><time>2026-05-03T11:07:47.832Z</time></trkpt><trkpt lat="45.9555933" lon="8.8224117"><ele>728.0</ele><time>2026-05-03T11:07:49.832Z</time></trkpt><trkpt lat="45.9556383" lon="8.822485"><ele>728.0</ele><time>2026-05-03T11:07:51.832Z</time></trkpt><trkpt lat="45.9556883" lon="8.8225533"><ele>728.0</ele><time>2026-05-03T11:07:53.831Z</time></trkpt><trkpt lat="45.9557267" lon="8.8226317"><ele>728.0</ele><time>2026-05-03T11:07:55.832Z</time></trkpt><trkpt lat="45.9557617" lon="8.8227233"><ele>728.0</ele><time>2026-05-03T11:07:57.832Z</time></trkpt><trkpt lat="45.9557967" lon="8.8228"><ele>728.0</ele><time>2026-05-03T11:07:59.832Z</time></trkpt><trkpt lat="45.955825" lon="8.8228833"><ele>728.0</ele><time>2026-05-03T11:08:01.832Z</time></trkpt><trkpt lat="45.9558567" lon="8.8229967"><ele>728.0</ele><time>2026-05-03T11:08:03.831Z</time></trkpt><trkpt lat="45.9558783" lon="8.823115"><ele>725.5</ele><time>2026-05-03T11:08:05.832Z</time></trkpt><trkpt lat="45.955905" lon="8.8232083"><ele>723.0</ele><time>2026-05-03T11:08:07.832Z</time></trkpt><trkpt lat="45.9559367" lon="8.823325"><ele>720.5</ele><time>2026-05-03T11:08:10.831Z</time></trkpt><trkpt lat="45.9559733" lon="8.82341"><ele>718.0</ele><time>2026-05-03T11:08:13.832Z</time></trkpt><trkpt lat="45.9559817" lon="8.8235117"><ele>715.5</ele><time>2026-05-03T11:08:16.832Z</time></trkpt><trkpt lat="45.9559317" lon="8.823605"><ele>713.0</ele><time>2026-05-03T11:08:20.832Z</time></trkpt><trkpt lat="45.95583" lon="8.8236783"><ele>710.0</ele><time>2026-05-03T11:08:24.832Z</time></trkpt><trkpt lat="45.955765" lon="8.82373"><ele>707.0</ele><time>2026-05-03T11:08:25.832Z</time></trkpt><trkpt lat="45.955645" lon="8.8237717"><ele>704.0</ele><time>2026-05-03T11:08:27.832Z</time></trkpt><trkpt lat="45.9555283" lon="8.8238317"><ele>701.0</ele><time>2026-05-03T11:08:29.831Z</time></trkpt><trkpt lat="45.9554283" lon="8.823805"><ele>698.0</ele><time>2026-05-03T11:08:31.832Z</time></trkpt><trkpt lat="45.95532" lon="8.823835"><ele>698.0</ele><time>2026-05-03T11:08:33.832Z</time></trkpt><trkpt lat="45.9552417" lon="8.8238733"><ele>698.0</ele><time>2026-05-03T11:08:35.832Z</time></trkpt><trkpt lat="45.9551883" lon="8.8239533"><ele>698.0</ele><time>2026-05-03T11:08:37.831Z</time></trkpt><trkpt lat="45.9551533" lon="8.8240717"><ele>698.0</ele><time>2026-05-03T11:08:39.832Z</time></trkpt><trkpt lat="45.95513" lon="8.824195"><ele>698.0</ele><time>2026-05-03T11:08:41.832Z</time></trkpt><trkpt lat="45.9551067" lon="8.8243033"><ele>698.0</ele><time>2026-05-03T11:08:43.831Z</time></trkpt><trkpt lat="45.9550883" lon="8.8244133"><ele>695.6666666666666</ele><time>2026-05-03T11:08:45.831Z</time></trkpt><trkpt lat="45.9550533" lon="8.8245167"><ele>693.3333333333333</ele><time>2026-05-03T11:08:47.831Z</time></trkpt><trkpt lat="45.955" lon="8.8245717"><ele>691.0</ele><time>2026-05-03T11:08:49.832Z</time></trkpt><trkpt lat="45.9549233" lon="8.8246017"><ele>688.6666666666666</ele><time>2026-05-03T11:08:53.832Z</time></trkpt><trkpt lat="45.9548917" lon="8.8247183"><ele>686.3333333333334</ele><time>2026-05-03T11:08:56.831Z</time></trkpt><trkpt lat="45.9548967" lon="8.824835"><ele>684.0</ele><time>2026-05-03T11:08:58.832Z</time></trkpt><trkpt lat="45.9549133" lon="8.8249417"><ele>682.0</ele><time>2026-05-03T11:09:00.832Z</time></trkpt><trkpt lat="45.9549383" lon="8.8250583"><ele>680.0</ele><time>2026-05-03T11:09:03.831Z</time></trkpt><trkpt lat="45.9549667" lon="8.8251867"><ele>678.0</ele><time>2026-05-03T11:09:06.832Z</time></trkpt><trkpt lat="45.9549833" lon="8.82528"><ele>676.0</ele><time>2026-05-03T11:09:08.831Z</time></trkpt><trkpt lat="45.9550133" lon="8.825395"><ele>674.0</ele><time>2026-05-03T11:09:10.831Z</time></trkpt><trkpt lat="45.9550417" lon="8.825505"><ele>672.0</ele><time>2026-05-03T11:09:12.832Z</time></trkpt><trkpt lat="45.955075" lon="8.8256017"><ele>670.1666666666666</ele><time>2026-05-03T11:09:14.831Z</time></trkpt><trkpt lat="45.9551267" lon="8.825685"><ele>668.3333333333334</ele><time>2026-05-03T11:09:16.832Z</time></trkpt><trkpt lat="45.9551517" lon="8.8257683"><ele>666.5</ele><time>2026-05-03T11:09:18.832Z</time></trkpt><trkpt lat="45.95517" lon="8.8258633"><ele>664.6666666666667</ele><time>2026-05-03T11:09:20.831Z</time></trkpt><trkpt lat="45.9551967" lon="8.8259783"><ele>662.8333333333334</ele><time>2026-05-03T11:09:23.832Z</time></trkpt><trkpt lat="45.9551767" lon="8.826095"><ele>661.0</ele><time>2026-05-03T11:09:25.832Z</time></trkpt><trkpt lat="45.955135" lon="8.8262183"><ele>657.8333333333334</ele><time>2026-05-03T11:09:27.832Z</time></trkpt><trkpt lat="45.9550767" lon="8.8263167"><ele>654.6666666666667</ele><time>2026-05-03T11:09:29.831Z</time></trkpt><trkpt lat="45.9550067" lon="8.8263717"><ele>651.5</ele><time>2026-05-03T11:09:31.831Z</time></trkpt><trkpt lat="45.954935" lon="8.8263583"><ele>648.3333333333334</ele><time>2026-05-03T11:09:33.832Z</time></trkpt><trkpt lat="45.9548467" lon="8.8262833"><ele>645.1666666666666</ele><time>2026-05-03T11:09:35.832Z</time></trkpt><trkpt lat="45.954775" lon="8.8262383"><ele>642.0</ele><time>2026-05-03T11:09:36.832Z</time></trkpt><trkpt lat="45.9546833" lon="8.82619"><ele>641.6</ele><time>2026-05-03T11:09:37.832Z</time></trkpt><trkpt lat="45.954585" lon="8.8261367"><ele>641.2</ele><time>2026-05-03T11:09:38.831Z</time></trkpt><trkpt lat="45.9544967" lon="8.826095"><ele>640.8</ele><time>2026-05-03T11:09:39.831Z</time></trkpt><trkpt lat="45.9544133" lon="8.8260583"><ele>640.4</ele><time>2026-05-03T11:09:40.831Z</time></trkpt><trkpt lat="45.9543217" lon="8.8260417"><ele>640.0</ele><time>2026-05-03T11:09:41.832Z</time></trkpt><trkpt lat="45.95424" lon="8.8260417"><ele>638.7142857142857</ele><time>2026-05-03T11:09:42.832Z</time></trkpt><trkpt lat="45.9541717" lon="8.8260433"><ele>637.4285714285714</ele><time>2026-05-03T11:09:43.832Z</time></trkpt><trkpt lat="45.9541133" lon="8.8260783"><ele>636.1428571428571</ele><time>2026-05-03T11:09:44.832Z</time></trkpt><trkpt lat="45.954055" lon="8.8261383"><ele>634.8571428571429</ele><time>2026-05-03T11:09:45.832Z</time></trkpt><trkpt lat="45.9539933" lon="8.8262217"><ele>633.5714285714286</ele><time>2026-05-03T11:09:46.832Z</time></trkpt><trkpt lat="45.9539367" lon="8.8262917"><ele>632.2857142857143</ele><time>2026-05-03T11:09:47.832Z</time></trkpt><trkpt lat="45.953875" lon="8.82635"><ele>631.0</ele><time>2026-05-03T11:09:48.832Z</time></trkpt><trkpt lat="45.9538067" lon="8.8264"><ele>631.0</ele><time>2026-05-03T11:09:49.832Z</time></trkpt><trkpt lat="45.9537167" lon="8.82648"><ele>631.0</ele><time>2026-05-03T11:09:51.832Z</time></trkpt><trkpt lat="45.953615" lon="8.82655"><ele>631.0</ele><time>2026-05-03T11:09:53.831Z</time></trkpt><trkpt lat="45.9535283" lon="8.8266267"><ele>631.0</ele><time>2026-05-03T11:09:55.832Z</time></trkpt><trkpt lat="45.9534367" lon="8.82669"><ele>631.0</ele><time>2026-05-03T11:09:57.832Z</time></trkpt><trkpt lat="45.9533283" lon="8.8267483"><ele>629.5</ele><time>2026-05-03T11:09:59.832Z</time></trkpt><trkpt lat="45.953205" lon="8.8267783"><ele>628.0</ele><time>2026-05-03T11:10:01.832Z</time></trkpt><trkpt lat="45.95313" lon="8.82678"><ele>626.5</ele><time>2026-05-03T11:10:02.832Z</time></trkpt><trkpt lat="45.9530567" lon="8.8267783"><ele>625.0</ele><time>2026-05-03T11:10:03.832Z</time></trkpt><trkpt lat="45.9529783" lon="8.82676"><ele>623.5</ele><time>2026-05-03T11:10:04.832Z</time></trkpt><trkpt lat="45.9528967" lon="8.8267333"><ele>622.0</ele><time>2026-05-03T11:10:05.832Z</time></trkpt><trkpt lat="45.9528117" lon="8.8267"><ele>622.0</ele><time>2026-05-03T11:10:06.832Z</time></trkpt><trkpt lat="45.9527267" lon="8.8266817"><ele>622.0</ele><time>2026-05-03T11:10:07.832Z</time></trkpt><trkpt lat="45.9526417" lon="8.826655"><ele>622.0</ele><time>2026-05-03T11:10:08.832Z</time></trkpt><trkpt lat="45.9525583" lon="8.8266367"><ele>622.0</ele><time>2026-05-03T11:10:09.832Z</time></trkpt><trkpt lat="45.9524817" lon="8.8266217"><ele>622.0</ele><time>2026-05-03T11:10:10.832Z</time></trkpt><trkpt lat="45.9523917" lon="8.82663"><ele>622.0</ele><time>2026-05-03T11:10:11.832Z</time></trkpt><trkpt lat="45.9523117" lon="8.82664"><ele>620.0</ele><time>2026-05-03T11:10:12.832Z</time></trkpt><trkpt lat="45.9522417" lon="8.8266483"><ele>618.0</ele><time>2026-05-03T11:10:13.832Z</time></trkpt><trkpt lat="45.952165" lon="8.8266733"><ele>616.0</ele><time>2026-05-03T11:10:14.831Z</time></trkpt><trkpt lat="45.95208" lon="8.8267183"><ele>614.0</ele><time>2026-05-03T11:10:15.832Z</time></trkpt><trkpt lat="45.9519933" lon="8.8267717"><ele>612.0</ele><time>2026-05-03T11:10:16.832Z</time></trkpt><trkpt lat="45.9519167" lon="8.826835"><ele>610.0</ele><time>2026-05-03T11:10:17.832Z</time></trkpt><trkpt lat="45.9518383" lon="8.8269"><ele>607.5</ele><time>2026-05-03T11:10:18.832Z</time></trkpt><trkpt lat="45.95177" lon="8.82697"><ele>605.0</ele><time>2026-05-03T11:10:19.832Z</time></trkpt><trkpt lat="45.9517033" lon="8.82704"><ele>602.5</ele><time>2026-05-03T11:10:20.831Z</time></trkpt><trkpt lat="45.9516567" lon="8.8271017"><ele>600.0</ele><time>2026-05-03T11:10:21.831Z</time></trkpt><trkpt lat="45.95158" lon="8.8271933"><ele>597.5</ele><time>2026-05-03T11:10:23.832Z</time></trkpt><trkpt lat="45.9515067" lon="8.82729"><ele>595.0</ele><time>2026-05-03T11:10:25.832Z</time></trkpt><trkpt lat="45.9514333" lon="8.8273667"><ele>592.5</ele><time>2026-05-03T11:10:27.831Z</time></trkpt><trkpt lat="45.9513617" lon="8.82747"><ele>590.0</ele><time>2026-05-03T11:10:29.832Z</time></trkpt><trkpt lat="45.9512667" lon="8.8275567"><ele>587.5</ele><time>2026-05-03T11:10:31.832Z</time></trkpt><trkpt lat="45.9512083" lon="8.8275967"><ele>585.0</ele><time>2026-05-03T11:10:32.831Z</time></trkpt><trkpt lat="45.9511433" lon="8.8276333"><ele>582.5</ele><time>2026-05-03T11:10:33.832Z</time></trkpt><trkpt lat="45.9510733" lon="8.82767"><ele>580.0</ele><time>2026-05-03T11:10:34.832Z</time></trkpt><trkpt lat="45.9509983" lon="8.82772"><ele>578.1666666666667</ele><time>2026-05-03T11:10:35.832Z</time></trkpt><trkpt lat="45.9509333" lon="8.8277667"><ele>576.3333333333334</ele><time>2026-05-03T11:10:36.832Z</time></trkpt><trkpt lat="45.9508817" lon="8.82784"><ele>574.5</ele><time>2026-05-03T11:10:37.832Z</time></trkpt><trkpt lat="45.9507983" lon="8.827875"><ele>572.6666666666666</ele><time>2026-05-03T11:10:39.831Z</time></trkpt><trkpt lat="45.9507317" lon="8.8277417"><ele>570.8333333333333</ele><time>2026-05-03T11:10:41.832Z</time></trkpt><trkpt lat="45.9507033" lon="8.8276467"><ele>569.0</ele><time>2026-05-03T11:10:42.832Z</time></trkpt><trkpt lat="45.9506817" lon="8.8275567"><ele>566.8</ele><time>2026-05-03T11:10:43.832Z</time></trkpt><trkpt lat="45.9506333" lon="8.8274083"><ele>564.5999999999999</ele><time>2026-05-03T11:10:45.832Z</time></trkpt><trkpt lat="45.9505983" lon="8.82727"><ele>562.4</ele><time>2026-05-03T11:10:47.832Z</time></trkpt><trkpt lat="45.95058" lon="8.8271083"><ele>560.1999999999999</ele><time>2026-05-03T11:10:49.832Z</time></trkpt><trkpt lat="45.9505033" lon="8.8272"><ele>558.0</ele><time>2026-05-03T11:10:54.832Z</time></trkpt><trkpt lat="45.9504867" lon="8.8273283"><ele>558.0</ele><time>2026-05-03T11:10:55.832Z</time></trkpt><trkpt lat="45.9504733" lon="8.82745"><ele>558.0</ele><time>2026-05-03T11:10:56.832Z</time></trkpt><trkpt lat="45.9504883" lon="8.827555"><ele>558.0</ele><time>2026-05-03T11:10:57.832Z</time></trkpt><trkpt lat="45.9505017" lon="8.82766"><ele>558.0</ele><time>2026-05-03T11:10:58.832Z</time></trkpt><trkpt lat="45.950485" lon="8.8277633"><ele>558.0</ele><time>2026-05-03T11:10:59.831Z</time></trkpt><trkpt lat="45.950455" lon="8.82787"><ele>558.0</ele><time>2026-05-03T11:11:00.832Z</time></trkpt><trkpt lat="45.95041" lon="8.8279717"><ele>556.5</ele><time>2026-05-03T11:11:01.831Z</time></trkpt><trkpt lat="45.9503483" lon="8.8280783"><ele>555.0</ele><time>2026-05-03T11:11:02.832Z</time></trkpt><trkpt lat="45.9502867" lon="8.82819"><ele>553.5</ele><time>2026-05-03T11:11:03.832Z</time></trkpt><trkpt lat="45.9502233" lon="8.8282917"><ele>552.0</ele><time>2026-05-03T11:11:04.831Z</time></trkpt><trkpt lat="45.950165" lon="8.8283617"><ele>550.5</ele><time>2026-05-03T11:11:05.832Z</time></trkpt><trkpt lat="45.95012" lon="8.82843"><ele>549.0</ele><time>2026-05-03T11:11:06.832Z</time></trkpt><trkpt lat="45.95009" lon="8.828515"><ele>547.5</ele><time>2026-05-03T11:11:07.832Z</time></trkpt><trkpt lat="45.9500767" lon="8.82861"><ele>546.0</ele><time>2026-05-03T11:11:08.832Z</time></trkpt><trkpt lat="45.9500633" lon="8.8287117"><ele>544.5</ele><time>2026-05-03T11:11:09.832Z</time></trkpt><trkpt lat="45.9500533" lon="8.828815"><ele>543.0</ele><time>2026-05-03T11:11:10.832Z</time></trkpt><trkpt lat="45.9500433" lon="8.8289383"><ele>541.5</ele><time>2026-05-03T11:11:11.832Z</time></trkpt><trkpt lat="45.95004" lon="8.8290483"><ele>540.0</ele><time>2026-05-03T11:11:12.831Z</time></trkpt><trkpt lat="45.9500233" lon="8.8291567"><ele>538.4285714285714</ele><time>2026-05-03T11:11:13.831Z</time></trkpt><trkpt lat="45.9500017" lon="8.8292583"><ele>536.8571428571428</ele><time>2026-05-03T11:11:14.832Z</time></trkpt><trkpt lat="45.9499733" lon="8.8293533"><ele>535.2857142857142</ele><time>2026-05-03T11:11:15.832Z</time></trkpt><trkpt lat="45.949945" lon="8.8294467"><ele>533.7142857142857</ele><time>2026-05-03T11:11:16.832Z</time></trkpt><trkpt lat="45.94992" lon="8.829535"><ele>532.1428571428571</ele><time>2026-05-03T11:11:17.832Z</time></trkpt><trkpt lat="45.9498983" lon="8.829625"><ele>530.5714285714286</ele><time>2026-05-03T11:11:18.831Z</time></trkpt><trkpt lat="45.9498733" lon="8.8297083"><ele>529.0</ele><time>2026-05-03T11:11:19.831Z</time></trkpt><trkpt lat="45.9498067" lon="8.8298083"><ele>527.3333333333334</ele><time>2026-05-03T11:11:21.832Z</time></trkpt><trkpt lat="45.9497033" lon="8.8298183"><ele>525.6666666666667</ele><time>2026-05-03T11:11:23.832Z</time></trkpt><trkpt lat="45.9496133" lon="8.829805"><ele>524.0</ele><time>2026-05-03T11:11:25.831Z</time></trkpt><trkpt lat="45.9495267" lon="8.8298017"><ele>522.3333333333334</ele><time>2026-05-03T11:11:27.831Z</time></trkpt><trkpt lat="45.949485" lon="8.82988"><ele>520.6666666666666</ele><time>2026-05-03T11:11:29.832Z</time></trkpt><trkpt lat="45.9494767" lon="8.82997"><ele>519.0</ele><time>2026-05-03T11:11:30.832Z</time></trkpt><trkpt lat="45.9494683" lon="8.8300683"><ele>517.2857142857142</ele><time>2026-05-03T11:11:31.832Z</time></trkpt><trkpt lat="45.9494533" lon="8.8301683"><ele>515.5714285714286</ele><time>2026-05-03T11:11:32.832Z</time></trkpt><trkpt lat="45.9494317" lon="8.830265"><ele>513.8571428571429</ele><time>2026-05-03T11:11:33.832Z</time></trkpt><trkpt lat="45.9494067" lon="8.83036"><ele>512.1428571428571</ele><time>2026-05-03T11:11:34.832Z</time></trkpt><trkpt lat="45.9493717" lon="8.83045"><ele>510.42857142857144</ele><time>2026-05-03T11:11:35.832Z</time></trkpt><trkpt lat="45.9493217" lon="8.830515"><ele>508.71428571428567</ele><time>2026-05-03T11:11:36.831Z</time></trkpt><trkpt lat="45.9492617" lon="8.83058"><ele>507.0</ele><time>2026-05-03T11:11:37.832Z</time></trkpt><trkpt lat="45.949195" lon="8.8306383"><ele>506.5</ele><time>2026-05-03T11:11:38.831Z</time></trkpt><trkpt lat="45.9491317" lon="8.8306833"><ele>506.0</ele><time>2026-05-03T11:11:39.832Z</time></trkpt><trkpt lat="45.94907" lon="8.83072"><ele>505.5</ele><time>2026-05-03T11:11:40.832Z</time></trkpt><trkpt lat="45.9490083" lon="8.8307567"><ele>505.0</ele><time>2026-05-03T11:11:41.832Z</time></trkpt><trkpt lat="45.9489083" lon="8.83079"><ele>504.5</ele><time>2026-05-03T11:11:43.832Z</time></trkpt><trkpt lat="45.948845" lon="8.8308233"><ele>504.0</ele><time>2026-05-03T11:11:45.832Z</time></trkpt><trkpt lat="45.94878" lon="8.83088"><ele>501.79999999999995</ele><time>2026-05-03T11:11:47.832Z</time></trkpt><trkpt lat="45.9486967" lon="8.8309867"><ele>499.59999999999997</ele><time>2026-05-03T11:11:49.832Z</time></trkpt><trkpt lat="45.9486183" lon="8.8310833"><ele>497.4</ele><time>2026-05-03T11:11:51.832Z</time></trkpt><trkpt lat="45.9485367" lon="8.8311833"><ele>495.2</ele><time>2026-05-03T11:11:53.832Z</time></trkpt><trkpt lat="45.9484833" lon="8.8312383"><ele>493.0</ele><time>2026-05-03T11:11:54.832Z</time></trkpt><trkpt lat="45.9484183" lon="8.8312867"><ele>492.57142857142856</ele><time>2026-05-03T11:11:55.831Z</time></trkpt><trkpt lat="45.9483533" lon="8.8312983"><ele>492.14285714285717</ele><time>2026-05-03T11:11:56.832Z</time></trkpt><trkpt lat="45.9482783" lon="8.8313167"><ele>491.7142857142857</ele><time>2026-05-03T11:11:57.832Z</time></trkpt><trkpt lat="45.9482033" lon="8.83132"><ele>491.2857142857143</ele><time>2026-05-03T11:11:58.831Z</time></trkpt><trkpt lat="45.9481283" lon="8.8313183"><ele>490.8571428571429</ele><time>2026-05-03T11:11:59.832Z</time></trkpt><trkpt lat="45.948055" lon="8.83131"><ele>490.42857142857144</ele><time>2026-05-03T11:12:00.831Z</time></trkpt><trkpt lat="45.9479883" lon="8.83129"><ele>490.0</ele><time>2026-05-03T11:12:01.832Z</time></trkpt><trkpt lat="45.9479233" lon="8.8312783"><ele>490.00000000000006</ele><time>2026-05-03T11:12:02.832Z</time></trkpt><trkpt lat="45.947855" lon="8.8312783"><ele>490.0</ele><time>2026-05-03T11:12:03.832Z</time></trkpt><trkpt lat="45.947785" lon="8.8312883"><ele>490.0</ele><time>2026-05-03T11:12:04.831Z</time></trkpt><trkpt lat="45.947715" lon="8.8313317"><ele>490.0</ele><time>2026-05-03T11:12:05.832Z</time></trkpt><trkpt lat="45.9476417" lon="8.8313833"><ele>490.00000000000006</ele><time>2026-05-03T11:12:06.831Z</time></trkpt><trkpt lat="45.9475683" lon="8.831435"><ele>490.0</ele><time>2026-05-03T11:12:07.832Z</time></trkpt><trkpt lat="45.947495" lon="8.8314867"><ele>489.00000000000006</ele><time>2026-05-03T11:12:08.831Z</time></trkpt><trkpt lat="45.947425" lon="8.831545"><ele>488.0</ele><time>2026-05-03T11:12:09.832Z</time></trkpt><trkpt lat="45.947365" lon="8.8316133"><ele>487.0</ele><time>2026-05-03T11:12:10.831Z</time></trkpt><trkpt lat="45.94731" lon="8.8316917"><ele>486.0</ele><time>2026-05-03T11:12:11.832Z</time></trkpt><trkpt lat="45.947265" lon="8.8317817"><ele>485.00000000000006</ele><time>2026-05-03T11:12:12.832Z</time></trkpt><trkpt lat="45.9472233" lon="8.8318767"><ele>484.0</ele><time>2026-05-03T11:12:13.831Z</time></trkpt><trkpt lat="45.94718" lon="8.8319633"><ele>483.1666666666667</ele><time>2026-05-03T11:12:14.832Z</time></trkpt><trkpt lat="45.9471383" lon="8.8320467"><ele>482.33333333333337</ele><time>2026-05-03T11:12:15.831Z</time></trkpt><trkpt lat="45.9470967" lon="8.832125"><ele>481.5</ele><time>2026-05-03T11:12:16.831Z</time></trkpt><trkpt lat="45.94702" lon="8.832245"><ele>480.66666666666663</ele><time>2026-05-03T11:12:18.832Z</time></trkpt><trkpt lat="45.9469033" lon="8.8322683"><ele>479.8333333333333</ele><time>2026-05-03T11:12:20.832Z</time></trkpt><trkpt lat="45.9468367" lon="8.8322717"><ele>479.0</ele><time>2026-05-03T11:12:21.832Z</time></trkpt><trkpt lat="45.9467733" lon="8.8322733"><ele>478.79999999999995</ele><time>2026-05-03T11:12:22.831Z</time></trkpt><trkpt lat="45.9466617" lon="8.8322717"><ele>478.59999999999997</ele><time>2026-05-03T11:12:24.831Z</time></trkpt><trkpt lat="45.9465683" lon="8.8322817"><ele>478.4</ele><time>2026-05-03T11:12:26.831Z</time></trkpt><trkpt lat="45.9464933" lon="8.8322933"><ele>478.2</ele><time>2026-05-03T11:12:29.831Z</time></trkpt><trkpt lat="45.9464317" lon="8.8323283"><ele>478.0</ele><time>2026-05-03T11:13:04.832Z</time></trkpt><trkpt lat="45.9463067" lon="8.8323217"><ele>478.0</ele><time>2026-05-03T11:13:06.832Z</time></trkpt><trkpt lat="45.94622" lon="8.83232"><ele>477.99999999999994</ele><time>2026-05-03T11:13:07.831Z</time></trkpt><trkpt lat="45.94612" lon="8.8323267"><ele>477.99999999999994</ele><time>2026-05-03T11:13:08.832Z</time></trkpt><trkpt lat="45.9460083" lon="8.832345"><ele>478.0</ele><time>2026-05-03T11:13:09.831Z</time></trkpt><trkpt lat="45.945885" lon="8.8323617"><ele>478.0</ele><time>2026-05-03T11:13:10.832Z</time></trkpt><trkpt lat="45.9457567" lon="8.8323817"><ele>477.75</ele><time>2026-05-03T11:13:11.831Z</time></trkpt><trkpt lat="45.9456283" lon="8.832405"><ele>477.5</ele><time>2026-05-03T11:13:12.831Z</time></trkpt><trkpt lat="45.945495" lon="8.8324367"><ele>477.25</ele><time>2026-05-03T11:13:13.832Z</time></trkpt><trkpt lat="45.9453517" lon="8.8324517"><ele>477.0</ele><time>2026-05-03T11:13:14.832Z</time></trkpt><trkpt lat="45.9452183" lon="8.8324717"><ele>477.0</ele><time>2026-05-03T11:13:15.832Z</time></trkpt><trkpt lat="45.945095" lon="8.832475"><ele>477.00000000000006</ele><time>2026-05-03T11:13:16.832Z</time></trkpt><trkpt lat="45.94498" lon="8.8324883"><ele>477.00000000000006</ele><time>2026-05-03T11:13:17.832Z</time></trkpt><trkpt lat="45.9448683" lon="8.8325067"><ele>477.0</ele><time>2026-05-03T11:13:18.832Z</time></trkpt><trkpt lat="45.9447867" lon="8.832505"><ele>477.0</ele><time>2026-05-03T11:13:19.832Z</time></trkpt><trkpt lat="45.9446867" lon="8.8324767"><ele>476.6666666666667</ele><time>2026-05-03T11:13:21.832Z</time></trkpt><trkpt lat="45.94459" lon="8.8324067"><ele>476.33333333333337</ele><time>2026-05-03T11:13:24.831Z</time></trkpt><trkpt lat="45.9445417" lon="8.83234"><ele>476.0</ele><time>2026-05-03T11:13:25.831Z</time></trkpt><trkpt lat="45.9444833" lon="8.8322567"><ele>475.6666666666667</ele><time>2026-05-03T11:13:26.831Z</time></trkpt><trkpt lat="45.94442" lon="8.8321617"><ele>475.33333333333337</ele><time>2026-05-03T11:13:27.832Z</time></trkpt><trkpt lat="45.94435" lon="8.8320733"><ele>475.0</ele><time>2026-05-03T11:13:28.831Z</time></trkpt><trkpt lat="45.9442933" lon="8.8319833"><ele>475.00000000000006</ele><time>2026-05-03T11:13:29.832Z</time></trkpt><trkpt lat="45.944245" lon="8.8319083"><ele>475.0</ele><time>2026-05-03T11:13:30.832Z</time></trkpt><trkpt lat="45.9442083" lon="8.831815"><ele>475.0</ele><time>2026-05-03T11:13:31.832Z</time></trkpt><trkpt lat="45.9441883" lon="8.8317"><ele>475.0</ele><time>2026-05-03T11:13:32.831Z</time></trkpt><trkpt lat="45.9441783" lon="8.8315583"><ele>475.00000000000006</ele><time>2026-05-03T11:13:33.832Z</time></trkpt><trkpt lat="45.9441767" lon="8.8314017"><ele>475.0</ele><time>2026-05-03T11:13:34.832Z</time></trkpt><trkpt lat="45.9441683" lon="8.83125"><ele>475.25</ele><time>2026-05-03T11:13:35.832Z</time></trkpt><trkpt lat="45.94415" lon="8.831085"><ele>475.5</ele><time>2026-05-03T11:13:36.832Z</time></trkpt><trkpt lat="45.94413" lon="8.8309067"><ele>475.75</ele><time>2026-05-03T11:13:37.831Z</time></trkpt><trkpt lat="45.9441033" lon="8.8307317"><ele>476.0</ele><time>2026-05-03T11:13:38.832Z</time></trkpt><trkpt lat="45.9440733" lon="8.83056"><ele>475.5</ele><time>2026-05-03T11:13:39.831Z</time></trkpt><trkpt lat="45.9440433" lon="8.830395"><ele>475.0</ele><time>2026-05-03T11:13:40.832Z</time></trkpt><trkpt lat="45.9439967" lon="8.830225"><ele>474.5</ele><time>2026-05-03T11:13:41.832Z</time></trkpt><trkpt lat="45.9439567" lon="8.8300467"><ele>474.0</ele><time>2026-05-03T11:13:42.832Z</time></trkpt><trkpt lat="45.94391" lon="8.8298733"><ele>474.0</ele><time>2026-05-03T11:13:43.832Z</time></trkpt><trkpt lat="45.9438667" lon="8.8297067"><ele>474.0</ele><time>2026-05-03T11:13:44.832Z</time></trkpt><trkpt lat="45.9438183" lon="8.8295517"><ele>474.0</ele><time>2026-05-03T11:13:45.831Z</time></trkpt><trkpt lat="45.9437667" lon="8.8293867"><ele>474.0</ele><time>2026-05-03T11:13:46.831Z</time></trkpt><trkpt lat="45.9437233" lon="8.82921"><ele>474.0</ele><time>2026-05-03T11:13:47.832Z</time></trkpt><trkpt lat="45.9436717" lon="8.8290267"><ele>474.0</ele><time>2026-05-03T11:13:48.832Z</time></trkpt><trkpt lat="45.943625" lon="8.82884"><ele>474.0</ele><time>2026-05-03T11:13:49.831Z</time></trkpt><trkpt lat="45.9435717" lon="8.828625"><ele>474.0</ele><time>2026-05-03T11:13:50.832Z</time></trkpt><trkpt lat="45.9435283" lon="8.8284333"><ele>474.0</ele><time>2026-05-03T11:13:51.832Z</time></trkpt><trkpt lat="45.9434917" lon="8.828255"><ele>474.0</ele><time>2026-05-03T11:13:52.832Z</time></trkpt><trkpt lat="45.9434367" lon="8.8280717"><ele>474.0</ele><time>2026-05-03T11:13:53.831Z</time></trkpt><trkpt lat="45.943385" lon="8.8278967"><ele>474.0</ele><time>2026-05-03T11:13:54.832Z</time></trkpt><trkpt lat="45.9433367" lon="8.8277317"><ele>474.25</ele><time>2026-05-03T11:13:55.832Z</time></trkpt><trkpt lat="45.9432817" lon="8.8275367"><ele>474.5</ele><time>2026-05-03T11:13:56.832Z</time></trkpt><trkpt lat="45.9432217" lon="8.8273283"><ele>474.75</ele><time>2026-05-03T11:13:57.832Z</time></trkpt><trkpt lat="45.94317" lon="8.82715"><ele>475.0</ele><time>2026-05-03T11:13:58.832Z</time></trkpt><trkpt lat="45.9431133" lon="8.826975"><ele>475.25</ele><time>2026-05-03T11:13:59.832Z</time></trkpt><trkpt lat="45.94305" lon="8.82679"><ele>475.5</ele><time>2026-05-03T11:14:00.832Z</time></trkpt><trkpt lat="45.9429967" lon="8.82661"><ele>475.75</ele><time>2026-05-03T11:14:01.832Z</time></trkpt><trkpt lat="45.94294" lon="8.8264333"><ele>476.0</ele><time>2026-05-03T11:14:02.832Z</time></trkpt><trkpt lat="45.9428817" lon="8.82626"><ele>476.0</ele><time>2026-05-03T11:14:03.832Z</time></trkpt><trkpt lat="45.94282" lon="8.826075"><ele>476.0</ele><time>2026-05-03T11:14:04.832Z</time></trkpt><trkpt lat="45.94277" lon="8.8258983"><ele>476.0</ele><time>2026-05-03T11:14:05.832Z</time></trkpt><trkpt lat="45.942715" lon="8.82572"><ele>476.0</ele><time>2026-05-03T11:14:06.832Z</time></trkpt><trkpt lat="45.9426583" lon="8.8255433"><ele>476.25</ele><time>2026-05-03T11:14:07.832Z</time></trkpt><trkpt lat="45.9426033" lon="8.82537"><ele>476.5</ele><time>2026-05-03T11:14:08.831Z</time></trkpt><trkpt lat="45.9425533" lon="8.825185"><ele>476.75</ele><time>2026-05-03T11:14:09.832Z</time></trkpt><trkpt lat="45.942505" lon="8.82501"><ele>477.0</ele><time>2026-05-03T11:14:10.832Z</time></trkpt><trkpt lat="45.9424683" lon="8.824835"><ele>476.25</ele><time>2026-05-03T11:14:11.832Z</time></trkpt><trkpt lat="45.94244" lon="8.8246583"><ele>475.5</ele><time>2026-05-03T11:14:12.831Z</time></trkpt><trkpt lat="45.9424117" lon="8.8244883"><ele>474.75</ele><time>2026-05-03T11:14:13.832Z</time></trkpt><trkpt lat="45.9423917" lon="8.824325"><ele>474.0</ele><time>2026-05-03T11:14:14.832Z</time></trkpt><trkpt lat="45.94238" lon="8.824175"><ele>474.0</ele><time>2026-05-03T11:14:15.831Z</time></trkpt><trkpt lat="45.9423667" lon="8.8240483"><ele>474.0</ele><time>2026-05-03T11:14:16.832Z</time></trkpt><trkpt lat="45.94235" lon="8.8239383"><ele>474.0</ele><time>2026-05-03T11:14:17.831Z</time></trkpt><trkpt lat="45.9423283" lon="8.82383"><ele>474.0</ele><time>2026-05-03T11:14:18.831Z</time></trkpt><trkpt lat="45.9423017" lon="8.8237217"><ele>474.0</ele><time>2026-05-03T11:14:19.832Z</time></trkpt><trkpt lat="45.9422633" lon="8.8235783"><ele>474.0</ele><time>2026-05-03T11:14:20.832Z</time></trkpt><trkpt lat="45.9422117" lon="8.82342"><ele>473.5</ele><time>2026-05-03T11:14:21.832Z</time></trkpt><trkpt lat="45.9421567" lon="8.82325"><ele>473.0</ele><time>2026-05-03T11:14:22.832Z</time></trkpt><trkpt lat="45.9421083" lon="8.8230867"><ele>472.5</ele><time>2026-05-03T11:14:23.832Z</time></trkpt><trkpt lat="45.9420517" lon="8.8229283"><ele>472.0</ele><time>2026-05-03T11:14:24.831Z</time></trkpt><trkpt lat="45.9419967" lon="8.8227633"><ele>471.5</ele><time>2026-05-03T11:14:25.832Z</time></trkpt><trkpt lat="45.941945" lon="8.8226083"><ele>471.0</ele><time>2026-05-03T11:14:26.831Z</time></trkpt><trkpt lat="45.941895" lon="8.822465"><ele>470.5</ele><time>2026-05-03T11:14:27.832Z</time></trkpt><trkpt lat="45.9418383" lon="8.822305"><ele>470.0</ele><time>2026-05-03T11:14:28.832Z</time></trkpt><trkpt lat="45.94178" lon="8.8221367"><ele>470.0</ele><time>2026-05-03T11:14:29.832Z</time></trkpt><trkpt lat="45.9417067" lon="8.8219533"><ele>470.0</ele><time>2026-05-03T11:14:30.831Z</time></trkpt><trkpt lat="45.9416433" lon="8.8217767"><ele>470.0</ele><time>2026-05-03T11:14:31.832Z</time></trkpt><trkpt lat="45.941585" lon="8.82161"><ele>470.0</ele><time>2026-05-03T11:14:32.832Z</time></trkpt><trkpt lat="45.9415283" lon="8.821445"><ele>469.5</ele><time>2026-05-03T11:14:33.831Z</time></trkpt><trkpt lat="45.9414917" lon="8.8212683"><ele>469.0</ele><time>2026-05-03T11:14:34.832Z</time></trkpt><trkpt lat="45.9414667" lon="8.8210733"><ele>468.5</ele><time>2026-05-03T11:14:35.831Z</time></trkpt><trkpt lat="45.9414483" lon="8.820875"><ele>468.0</ele><time>2026-05-03T11:14:36.831Z</time></trkpt><trkpt lat="45.94142" lon="8.8207"><ele>467.2</ele><time>2026-05-03T11:14:37.831Z</time></trkpt><trkpt lat="45.9413883" lon="8.8205417"><ele>466.4</ele><time>2026-05-03T11:14:38.832Z</time></trkpt><trkpt lat="45.941345" lon="8.8204067"><ele>465.59999999999997</ele><time>2026-05-03T11:14:39.832Z</time></trkpt><trkpt lat="45.9412867" lon="8.8202867"><ele>464.79999999999995</ele><time>2026-05-03T11:14:40.832Z</time></trkpt><trkpt lat="45.941225" lon="8.82019"><ele>464.0</ele><time>2026-05-03T11:14:41.831Z</time></trkpt><trkpt lat="45.9411433" lon="8.8201"><ele>464.0</ele><time>2026-05-03T11:14:42.831Z</time></trkpt><trkpt lat="45.9410617" lon="8.82"><ele>464.0</ele><time>2026-05-03T11:14:43.831Z</time></trkpt><trkpt lat="45.9409817" lon="8.819895"><ele>464.0</ele><time>2026-05-03T11:14:44.832Z</time></trkpt><trkpt lat="45.9408917" lon="8.8197717"><ele>464.0</ele><time>2026-05-03T11:14:45.832Z</time></trkpt><trkpt lat="45.94078" lon="8.819625"><ele>463.0</ele><time>2026-05-03T11:14:46.832Z</time></trkpt><trkpt lat="45.9406567" lon="8.819475"><ele>462.0</ele><time>2026-05-03T11:14:47.832Z</time></trkpt><trkpt lat="45.940545" lon="8.819315"><ele>461.0</ele><time>2026-05-03T11:14:48.832Z</time></trkpt><trkpt lat="45.940435" lon="8.8191683"><ele>460.5</ele><time>2026-05-03T11:14:49.832Z</time></trkpt><trkpt lat="45.9403333" lon="8.81904"><ele>460.0</ele><time>2026-05-03T11:14:50.832Z</time></trkpt><trkpt lat="45.9402383" lon="8.8189083"><ele>459.5</ele><time>2026-05-03T11:14:51.832Z</time></trkpt><trkpt lat="45.9401517" lon="8.8187867"><ele>459.0</ele><time>2026-05-03T11:14:52.832Z</time></trkpt><trkpt lat="45.940065" lon="8.8186683"><ele>459.0</ele><time>2026-05-03T11:14:53.832Z</time></trkpt><trkpt lat="45.9399767" lon="8.8185383"><ele>459.0</ele><time>2026-05-03T11:14:54.832Z</time></trkpt><trkpt lat="45.9398883" lon="8.8184183"><ele>459.0</ele><time>2026-05-03T11:14:55.832Z</time></trkpt><trkpt lat="45.93979" lon="8.8182867"><ele>459.0</ele><time>2026-05-03T11:14:56.832Z</time></trkpt><trkpt lat="45.9396833" lon="8.8181533"><ele>459.0</ele><time>2026-05-03T11:14:57.832Z</time></trkpt><trkpt lat="45.9395667" lon="8.8180183"><ele>459.0</ele><time>2026-05-03T11:14:58.832Z</time></trkpt><trkpt lat="45.9394533" lon="8.81787"><ele>459.0</ele><time>2026-05-03T11:14:59.831Z</time></trkpt><trkpt lat="45.9393333" lon="8.8177233"><ele>460.25</ele><time>2026-05-03T11:15:00.832Z</time></trkpt><trkpt lat="45.9392267" lon="8.8175733"><ele>461.5</ele><time>2026-05-03T11:15:01.831Z</time></trkpt><trkpt lat="45.93912" lon="8.81743"><ele>462.75</ele><time>2026-05-03T11:15:02.831Z</time></trkpt><trkpt lat="45.9390167" lon="8.817295"><ele>464.0</ele><time>2026-05-03T11:15:03.831Z</time></trkpt><trkpt lat="45.9389233" lon="8.817165"><ele>464.0</ele><time>2026-05-03T11:15:04.832Z</time></trkpt><trkpt lat="45.9388433" lon="8.8170233"><ele>464.0</ele><time>2026-05-03T11:15:05.832Z</time></trkpt><trkpt lat="45.9387717" lon="8.8168633"><ele>464.0</ele><time>2026-05-03T11:15:06.832Z</time></trkpt><trkpt lat="45.9387017" lon="8.8166917"><ele>464.0</ele><time>2026-05-03T11:15:07.832Z</time></trkpt><trkpt lat="45.9386267" lon="8.8165083"><ele>463.5</ele><time>2026-05-03T11:15:08.832Z</time></trkpt><trkpt lat="45.938555" lon="8.81633"><ele>463.0</ele><time>2026-05-03T11:15:09.832Z</time></trkpt><trkpt lat="45.93847" lon="8.8161767"><ele>462.5</ele><time>2026-05-03T11:15:10.832Z</time></trkpt><trkpt lat="45.93836" lon="8.8160367"><ele>462.0</ele><time>2026-05-03T11:15:11.832Z</time></trkpt><trkpt lat="45.9382433" lon="8.8158967"><ele>461.5</ele><time>2026-05-03T11:15:12.832Z</time></trkpt><trkpt lat="45.93813" lon="8.8157767"><ele>461.0</ele><time>2026-05-03T11:15:13.831Z</time></trkpt><trkpt lat="45.9380283" lon="8.815665"><ele>460.5</ele><time>2026-05-03T11:15:14.832Z</time></trkpt><trkpt lat="45.937925" lon="8.81556"><ele>460.0</ele><time>2026-05-03T11:15:15.831Z</time></trkpt><trkpt lat="45.9378317" lon="8.81547"><ele>460.0</ele><time>2026-05-03T11:15:16.831Z</time></trkpt><trkpt lat="45.9377333" lon="8.8153883"><ele>460.0</ele><time>2026-05-03T11:15:17.831Z</time></trkpt><trkpt lat="45.9376333" lon="8.815335"><ele>460.0</ele><time>2026-05-03T11:15:18.832Z</time></trkpt><trkpt lat="45.937525" lon="8.8153433"><ele>460.0</ele><time>2026-05-03T11:15:19.832Z</time></trkpt><trkpt lat="45.9374" lon="8.815395"><ele>460.0</ele><time>2026-05-03T11:15:20.832Z</time></trkpt><trkpt lat="45.937265" lon="8.8154533"><ele>460.0</ele><time>2026-05-03T11:15:21.832Z</time></trkpt><trkpt lat="45.937115" lon="8.815505"><ele>460.0</ele><time>2026-05-03T11:15:22.832Z</time></trkpt><trkpt lat="45.9369683" lon="8.8155317"><ele>460.0</ele><time>2026-05-03T11:15:23.832Z</time></trkpt><trkpt lat="45.93682" lon="8.8155567"><ele>461.33333333333337</ele><time>2026-05-03T11:15:24.832Z</time></trkpt><trkpt lat="45.93667" lon="8.8155517"><ele>462.66666666666663</ele><time>2026-05-03T11:15:25.832Z</time></trkpt><trkpt lat="45.9365083" lon="8.815525"><ele>464.0</ele><time>2026-05-03T11:15:26.831Z</time></trkpt><trkpt lat="45.9363617" lon="8.8154667"><ele>464.0</ele><time>2026-05-03T11:15:27.831Z</time></trkpt><trkpt lat="45.9362233" lon="8.81538"><ele>464.0</ele><time>2026-05-03T11:15:28.831Z</time></trkpt><trkpt lat="45.9360983" lon="8.8152667"><ele>464.0</ele><time>2026-05-03T11:15:29.831Z</time></trkpt><trkpt lat="45.9359917" lon="8.8151367"><ele>464.0</ele><time>2026-05-03T11:15:30.831Z</time></trkpt><trkpt lat="45.9358983" lon="8.814995"><ele>464.6</ele><time>2026-05-03T11:15:31.832Z</time></trkpt><trkpt lat="45.9358033" lon="8.81488"><ele>465.2</ele><time>2026-05-03T11:15:32.831Z</time></trkpt><trkpt lat="45.935715" lon="8.8147817"><ele>465.80000000000007</ele><time>2026-05-03T11:15:33.832Z</time></trkpt><trkpt lat="45.9356167" lon="8.8147183"><ele>466.40000000000003</ele><time>2026-05-03T11:15:34.831Z</time></trkpt><trkpt lat="45.9355367" lon="8.8146533"><ele>467.0</ele><time>2026-05-03T11:15:35.832Z</time></trkpt><trkpt lat="45.935455" lon="8.8145783"><ele>467.0</ele><time>2026-05-03T11:15:36.831Z</time></trkpt><trkpt lat="45.935365" lon="8.81448"><ele>467.0</ele><time>2026-05-03T11:15:37.832Z</time></trkpt><trkpt lat="45.9352733" lon="8.81436"><ele>467.0</ele><time>2026-05-03T11:15:38.832Z</time></trkpt><trkpt lat="45.9351783" lon="8.8142117"><ele>467.0</ele><time>2026-05-03T11:15:39.831Z</time></trkpt><trkpt lat="45.93509" lon="8.8140433"><ele>465.66666666666663</ele><time>2026-05-03T11:15:40.831Z</time></trkpt><trkpt lat="45.935005" lon="8.8138533"><ele>464.33333333333337</ele><time>2026-05-03T11:15:41.831Z</time></trkpt><trkpt lat="45.9349233" lon="8.8136717"><ele>463.0</ele><time>2026-05-03T11:15:42.831Z</time></trkpt><trkpt lat="45.934865" lon="8.813485"><ele>463.0</ele><time>2026-05-03T11:15:43.832Z</time></trkpt><trkpt lat="45.934805" lon="8.8133"><ele>463.0</ele><time>2026-05-03T11:15:44.832Z</time></trkpt><trkpt lat="45.934755" lon="8.8131"><ele>463.0</ele><time>2026-05-03T11:15:45.832Z</time></trkpt><trkpt lat="45.9347117" lon="8.812885"><ele>463.0</ele><time>2026-05-03T11:15:46.832Z</time></trkpt><trkpt lat="45.934675" lon="8.8126817"><ele>463.0</ele><time>2026-05-03T11:15:47.832Z</time></trkpt><trkpt lat="45.9346383" lon="8.8124933"><ele>463.0</ele><time>2026-05-03T11:15:48.832Z</time></trkpt><trkpt lat="45.934615" lon="8.8123067"><ele>463.0</ele><time>2026-05-03T11:15:49.832Z</time></trkpt><trkpt lat="45.9346083" lon="8.8121217"><ele>463.0</ele><time>2026-05-03T11:15:50.831Z</time></trkpt><trkpt lat="45.9346167" lon="8.8119233"><ele>462.25</ele><time>2026-05-03T11:15:51.832Z</time></trkpt><trkpt lat="45.9346283" lon="8.8117133"><ele>461.5</ele><time>2026-05-03T11:15:52.832Z</time></trkpt><trkpt lat="45.934635" lon="8.81152"><ele>460.75</ele><time>2026-05-03T11:15:53.832Z</time></trkpt><trkpt lat="45.9346267" lon="8.8113333"><ele>460.0</ele><time>2026-05-03T11:15:54.832Z</time></trkpt><trkpt lat="45.9346233" lon="8.8111483"><ele>459.25</ele><time>2026-05-03T11:15:55.832Z</time></trkpt><trkpt lat="45.9346267" lon="8.8109767"><ele>458.5</ele><time>2026-05-03T11:15:56.832Z</time></trkpt><trkpt lat="45.934635" lon="8.8108167"><ele>457.75</ele><time>2026-05-03T11:15:57.832Z</time></trkpt><trkpt lat="45.9346483" lon="8.8106567"><ele>457.0</ele><time>2026-05-03T11:15:58.832Z</time></trkpt><trkpt lat="45.9346683" lon="8.8105"><ele>457.0</ele><time>2026-05-03T11:15:59.832Z</time></trkpt><trkpt lat="45.9346967" lon="8.8103483"><ele>457.00000000000006</ele><time>2026-05-03T11:16:00.832Z</time></trkpt><trkpt lat="45.93472" lon="8.8101933"><ele>457.00000000000006</ele><time>2026-05-03T11:16:01.832Z</time></trkpt><trkpt lat="45.9347483" lon="8.8100483"><ele>457.0</ele><time>2026-05-03T11:16:02.831Z</time></trkpt><trkpt lat="45.9347833" lon="8.8098983"><ele>457.0</ele><time>2026-05-03T11:16:03.831Z</time></trkpt><trkpt lat="45.9348233" lon="8.8097383"><ele>456.0</ele><time>2026-05-03T11:16:04.831Z</time></trkpt><trkpt lat="45.9348767" lon="8.8095767"><ele>455.0</ele><time>2026-05-03T11:16:05.832Z</time></trkpt><trkpt lat="45.9349167" lon="8.8093967"><ele>454.0</ele><time>2026-05-03T11:16:06.831Z</time></trkpt><trkpt lat="45.934965" lon="8.8092383"><ele>453.0</ele><time>2026-05-03T11:16:07.832Z</time></trkpt><trkpt lat="45.93501" lon="8.8090833"><ele>452.2</ele><time>2026-05-03T11:16:08.831Z</time></trkpt><trkpt lat="45.9350467" lon="8.80894"><ele>451.4</ele><time>2026-05-03T11:16:09.832Z</time></trkpt><trkpt lat="45.9350683" lon="8.808795"><ele>450.59999999999997</ele><time>2026-05-03T11:16:10.831Z</time></trkpt><trkpt lat="45.9350833" lon="8.8086467"><ele>449.79999999999995</ele><time>2026-05-03T11:16:11.832Z</time></trkpt><trkpt lat="45.93509" lon="8.8084867"><ele>449.0</ele><time>2026-05-03T11:16:12.832Z</time></trkpt><trkpt lat="45.9350933" lon="8.80832"><ele>451.0</ele><time>2026-05-03T11:16:13.832Z</time></trkpt><trkpt lat="45.9351033" lon="8.8081467"><ele>453.0</ele><time>2026-05-03T11:16:14.832Z</time></trkpt><trkpt lat="45.9351" lon="8.8079717"><ele>455.0</ele><time>2026-05-03T11:16:15.831Z</time></trkpt><trkpt lat="45.9350833" lon="8.8078"><ele>457.0</ele><time>2026-05-03T11:16:16.832Z</time></trkpt><trkpt lat="45.9350617" lon="8.8076217"><ele>454.25</ele><time>2026-05-03T11:16:17.831Z</time></trkpt><trkpt lat="45.93504" lon="8.807435"><ele>451.5</ele><time>2026-05-03T11:16:18.832Z</time></trkpt><trkpt lat="45.93502" lon="8.80725"><ele>448.75</ele><time>2026-05-03T11:16:19.832Z</time></trkpt><trkpt lat="45.9350083" lon="8.80707"><ele>446.0</ele><time>2026-05-03T11:16:20.832Z</time></trkpt><trkpt lat="45.9350083" lon="8.8069017"><ele>446.0</ele><time>2026-05-03T11:16:21.832Z</time></trkpt><trkpt lat="45.9350083" lon="8.8067283"><ele>446.0</ele><time>2026-05-03T11:16:22.832Z</time></trkpt><trkpt lat="45.9350183" lon="8.8065583"><ele>446.0</ele><time>2026-05-03T11:16:23.832Z</time></trkpt><trkpt lat="45.9350333" lon="8.8063667"><ele>446.0</ele><time>2026-05-03T11:16:24.832Z</time></trkpt><trkpt lat="45.9350667" lon="8.8061733"><ele>448.5</ele><time>2026-05-03T11:16:25.832Z</time></trkpt><trkpt lat="45.9351017" lon="8.8059883"><ele>451.0</ele><time>2026-05-03T11:16:26.831Z</time></trkpt><trkpt lat="45.9351317" lon="8.80581"><ele>453.5</ele><time>2026-05-03T11:16:27.831Z</time></trkpt><trkpt lat="45.9351617" lon="8.8056333"><ele>456.0</ele><time>2026-05-03T11:16:28.832Z</time></trkpt><trkpt lat="45.93519" lon="8.8054683"><ele>456.0</ele><time>2026-05-03T11:16:29.832Z</time></trkpt><trkpt lat="45.93522" lon="8.80532"><ele>456.0</ele><time>2026-05-03T11:16:30.832Z</time></trkpt><trkpt lat="45.935245" lon="8.8051667"><ele>456.0</ele><time>2026-05-03T11:16:31.832Z</time></trkpt><trkpt lat="45.935285" lon="8.8050317"><ele>456.0</ele><time>2026-05-03T11:16:32.832Z</time></trkpt><trkpt lat="45.9353083" lon="8.80488"><ele>456.0</ele><time>2026-05-03T11:16:33.831Z</time></trkpt><trkpt lat="45.9353183" lon="8.8047517"><ele>455.6</ele><time>2026-05-03T11:16:34.832Z</time></trkpt><trkpt lat="45.9353067" lon="8.8046167"><ele>455.20000000000005</ele><time>2026-05-03T11:16:35.832Z</time></trkpt><trkpt lat="45.9352683" lon="8.8044867"><ele>454.79999999999995</ele><time>2026-05-03T11:16:36.832Z</time></trkpt><trkpt lat="45.9351983" lon="8.804345"><ele>454.4</ele><time>2026-05-03T11:16:37.831Z</time></trkpt><trkpt lat="45.935135" lon="8.804215"><ele>454.0</ele><time>2026-05-03T11:16:38.832Z</time></trkpt><trkpt lat="45.9350517" lon="8.80407"><ele>450.0</ele><time>2026-05-03T11:16:39.831Z</time></trkpt><trkpt lat="45.93497" lon="8.803935"><ele>446.0</ele><time>2026-05-03T11:16:40.832Z</time></trkpt><trkpt lat="45.9348967" lon="8.8037933"><ele>442.0</ele><time>2026-05-03T11:16:41.832Z</time></trkpt><trkpt lat="45.9348383" lon="8.8036533"><ele>438.0</ele><time>2026-05-03T11:16:42.832Z</time></trkpt><trkpt lat="45.93481" lon="8.8035233"><ele>437.2</ele><time>2026-05-03T11:16:43.831Z</time></trkpt><trkpt lat="45.93479" lon="8.8034067"><ele>436.4</ele><time>2026-05-03T11:16:44.832Z</time></trkpt><trkpt lat="45.93478" lon="8.803265"><ele>435.59999999999997</ele><time>2026-05-03T11:16:46.832Z</time></trkpt><trkpt lat="45.9347117" lon="8.80314"><ele>434.79999999999995</ele><time>2026-05-03T11:18:06.832Z</time></trkpt><trkpt lat="45.93465" lon="8.8030317"><ele>434.0</ele><time>2026-05-03T11:18:09.831Z</time></trkpt><trkpt lat="45.934635" lon="8.8028633"><ele>434.0</ele><time>2026-05-03T11:18:11.831Z</time></trkpt><trkpt lat="45.9346317" lon="8.8026983"><ele>434.0</ele><time>2026-05-03T11:18:13.831Z</time></trkpt><trkpt lat="45.934595" lon="8.8026183"><ele>434.0</ele><time>2026-05-03T11:18:14.832Z</time></trkpt><trkpt lat="45.93453" lon="8.8025233"><ele>434.0</ele><time>2026-05-03T11:18:15.832Z</time></trkpt><trkpt lat="45.9344617" lon="8.80242"><ele>434.0</ele><time>2026-05-03T11:18:16.832Z</time></trkpt><trkpt lat="45.934385" lon="8.8023167"><ele>433.25</ele><time>2026-05-03T11:18:17.832Z</time></trkpt><trkpt lat="45.9342983" lon="8.8022083"><ele>432.5</ele><time>2026-05-03T11:18:18.832Z</time></trkpt><trkpt lat="45.9341883" lon="8.802085"><ele>431.75</ele><time>2026-05-03T11:18:19.832Z</time></trkpt><trkpt lat="45.9340617" lon="8.8019333"><ele>431.0</ele><time>2026-05-03T11:18:20.832Z</time></trkpt><trkpt lat="45.9339283" lon="8.8017783"><ele>430.3333333333333</ele><time>2026-05-03T11:18:21.832Z</time></trkpt><trkpt lat="45.9337967" lon="8.8016317"><ele>429.66666666666663</ele><time>2026-05-03T11:18:22.832Z</time></trkpt><trkpt lat="45.933665" lon="8.8014817"><ele>429.0</ele><time>2026-05-03T11:18:23.832Z</time></trkpt><trkpt lat="45.933555" lon="8.801345"><ele>429.0</ele><time>2026-05-03T11:18:24.832Z</time></trkpt><trkpt lat="45.9334533" lon="8.8012033"><ele>429.0</ele><time>2026-05-03T11:18:25.831Z</time></trkpt><trkpt lat="45.9333433" lon="8.8010767"><ele>429.0</ele><time>2026-05-03T11:18:26.832Z</time></trkpt><trkpt lat="45.9332417" lon="8.8009233"><ele>429.0</ele><time>2026-05-03T11:18:27.832Z</time></trkpt><trkpt lat="45.9331267" lon="8.8007867"><ele>428.75</ele><time>2026-05-03T11:18:28.832Z</time></trkpt><trkpt lat="45.93301" lon="8.800645"><ele>428.5</ele><time>2026-05-03T11:18:29.832Z</time></trkpt><trkpt lat="45.932905" lon="8.8005133"><ele>428.25</ele><time>2026-05-03T11:18:30.831Z</time></trkpt><trkpt lat="45.9328017" lon="8.8003717"><ele>428.0</ele><time>2026-05-03T11:18:31.832Z</time></trkpt><trkpt lat="45.932705" lon="8.8002317"><ele>428.0</ele><time>2026-05-03T11:18:32.832Z</time></trkpt><trkpt lat="45.9326017" lon="8.8001017"><ele>428.0</ele><time>2026-05-03T11:18:33.832Z</time></trkpt><trkpt lat="45.932505" lon="8.79998"><ele>428.0</ele><time>2026-05-03T11:18:34.832Z</time></trkpt><trkpt lat="45.9324233" lon="8.79986"><ele>428.0</ele><time>2026-05-03T11:18:35.831Z</time></trkpt><trkpt lat="45.93234" lon="8.7997367"><ele>427.59999999999997</ele><time>2026-05-03T11:18:36.832Z</time></trkpt><trkpt lat="45.9322683" lon="8.7996317"><ele>427.19999999999993</ele><time>2026-05-03T11:18:37.831Z</time></trkpt><trkpt lat="45.9322017" lon="8.79951"><ele>426.8</ele><time>2026-05-03T11:18:38.832Z</time></trkpt><trkpt lat="45.93216" lon="8.7993667"><ele>426.4</ele><time>2026-05-03T11:18:39.832Z</time></trkpt><trkpt lat="45.9321317" lon="8.79922"><ele>426.0</ele><time>2026-05-03T11:18:40.831Z</time></trkpt><trkpt lat="45.9321117" lon="8.799065"><ele>426.0</ele><time>2026-05-03T11:18:41.832Z</time></trkpt><trkpt lat="45.9321083" lon="8.79891"><ele>426.0</ele><time>2026-05-03T11:18:42.832Z</time></trkpt><trkpt lat="45.9321383" lon="8.79875"><ele>426.0</ele><time>2026-05-03T11:18:43.832Z</time></trkpt><trkpt lat="45.9321917" lon="8.79859"><ele>426.0</ele><time>2026-05-03T11:18:44.831Z</time></trkpt><trkpt lat="45.9322517" lon="8.798415"><ele>423.75</ele><time>2026-05-03T11:18:45.832Z</time></trkpt><trkpt lat="45.93229" lon="8.798225"><ele>421.5</ele><time>2026-05-03T11:18:46.832Z</time></trkpt><trkpt lat="45.9322967" lon="8.7980433"><ele>419.25</ele><time>2026-05-03T11:18:47.832Z</time></trkpt><trkpt lat="45.9322783" lon="8.7978517"><ele>417.0</ele><time>2026-05-03T11:18:48.831Z</time></trkpt><trkpt lat="45.9322167" lon="8.797635"><ele>414.66666666666663</ele><time>2026-05-03T11:18:49.831Z</time></trkpt><trkpt lat="45.932145" lon="8.79742"><ele>412.3333333333333</ele><time>2026-05-03T11:18:50.832Z</time></trkpt><trkpt lat="45.9320833" lon="8.79721"><ele>410.0</ele><time>2026-05-03T11:18:51.832Z</time></trkpt><trkpt lat="45.9320133" lon="8.7970117"><ele>408.25</ele><time>2026-05-03T11:18:52.832Z</time></trkpt><trkpt lat="45.931935" lon="8.7968317"><ele>406.5</ele><time>2026-05-03T11:18:53.832Z</time></trkpt><trkpt lat="45.931865" lon="8.796655"><ele>404.75</ele><time>2026-05-03T11:18:54.832Z</time></trkpt><trkpt lat="45.931795" lon="8.796485"><ele>403.0</ele><time>2026-05-03T11:18:55.831Z</time></trkpt><trkpt lat="45.9317333" lon="8.7963117"><ele>405.25</ele><time>2026-05-03T11:18:56.831Z</time></trkpt><trkpt lat="45.9316883" lon="8.7961433"><ele>407.5</ele><time>2026-05-03T11:18:57.831Z</time></trkpt><trkpt lat="45.9316633" lon="8.7959567"><ele>409.75</ele><time>2026-05-03T11:18:58.831Z</time></trkpt><trkpt lat="45.9316517" lon="8.7957717"><ele>412.0</ele><time>2026-05-03T11:18:59.832Z</time></trkpt><trkpt lat="45.9316417" lon="8.7955683"><ele>412.0</ele><time>2026-05-03T11:19:00.831Z</time></trkpt><trkpt lat="45.9316317" lon="8.795365"><ele>412.0</ele><time>2026-05-03T11:19:01.831Z</time></trkpt><trkpt lat="45.9316233" lon="8.7951617"><ele>412.0</ele><time>2026-05-03T11:19:02.831Z</time></trkpt><trkpt lat="45.9316183" lon="8.7949683"><ele>412.0</ele><time>2026-05-03T11:19:03.832Z</time></trkpt><trkpt lat="45.9316033" lon="8.7947733"><ele>410.25</ele><time>2026-05-03T11:19:04.831Z</time></trkpt><trkpt lat="45.9315683" lon="8.7945933"><ele>408.5</ele><time>2026-05-03T11:19:05.832Z</time></trkpt><trkpt lat="45.9315083" lon="8.79442"><ele>406.75</ele><time>2026-05-03T11:19:06.831Z</time></trkpt><trkpt lat="45.931425" lon="8.7942517"><ele>405.0</ele><time>2026-05-03T11:19:07.832Z</time></trkpt><trkpt lat="45.9313233" lon="8.7941033"><ele>401.0</ele><time>2026-05-03T11:19:08.832Z</time></trkpt><trkpt lat="45.9312133" lon="8.7939517"><ele>397.0</ele><time>2026-05-03T11:19:09.832Z</time></trkpt><trkpt lat="45.9311067" lon="8.7938"><ele>393.0</ele><time>2026-05-03T11:19:10.832Z</time></trkpt><trkpt lat="45.9310033" lon="8.7936533"><ele>389.0</ele><time>2026-05-03T11:19:11.832Z</time></trkpt><trkpt lat="45.9308983" lon="8.793505"><ele>387.25</ele><time>2026-05-03T11:19:12.832Z</time></trkpt><trkpt lat="45.930795" lon="8.7933617"><ele>385.5</ele><time>2026-05-03T11:19:13.832Z</time></trkpt><trkpt lat="45.9307017" lon="8.7932233"><ele>383.75</ele><time>2026-05-03T11:19:14.832Z</time></trkpt><trkpt lat="45.930605" lon="8.7930917"><ele>382.0</ele><time>2026-05-03T11:19:15.832Z</time></trkpt><trkpt lat="45.9305033" lon="8.7929567"><ele>382.0</ele><time>2026-05-03T11:19:16.832Z</time></trkpt><trkpt lat="45.9304117" lon="8.79281"><ele>382.0</ele><time>2026-05-03T11:19:17.831Z</time></trkpt><trkpt lat="45.9303233" lon="8.7926683"><ele>382.0</ele><time>2026-05-03T11:19:18.832Z</time></trkpt><trkpt lat="45.9302633" lon="8.79251"><ele>382.0</ele><time>2026-05-03T11:19:19.832Z</time></trkpt><trkpt lat="45.9302383" lon="8.792345"><ele>380.0</ele><time>2026-05-03T11:19:20.832Z</time></trkpt><trkpt lat="45.93024" lon="8.792185"><ele>378.0</ele><time>2026-05-03T11:19:21.832Z</time></trkpt><trkpt lat="45.9302783" lon="8.7920383"><ele>376.0</ele><time>2026-05-03T11:19:22.831Z</time></trkpt><trkpt lat="45.93034" lon="8.7919167"><ele>374.0</ele><time>2026-05-03T11:19:23.832Z</time></trkpt><trkpt lat="45.93042" lon="8.7918167"><ele>372.0</ele><time>2026-05-03T11:19:24.831Z</time></trkpt><trkpt lat="45.9305" lon="8.791745"><ele>369.5</ele><time>2026-05-03T11:19:25.832Z</time></trkpt><trkpt lat="45.930595" lon="8.791715"><ele>367.0</ele><time>2026-05-03T11:19:26.832Z</time></trkpt><trkpt lat="45.9307117" lon="8.7916983"><ele>364.5</ele><time>2026-05-03T11:19:27.832Z</time></trkpt><trkpt lat="45.93084" lon="8.7916983"><ele>362.0</ele><time>2026-05-03T11:19:28.832Z</time></trkpt><trkpt lat="45.9309717" lon="8.7917"><ele>359.75</ele><time>2026-05-03T11:19:29.832Z</time></trkpt><trkpt lat="45.9311117" lon="8.7917067"><ele>357.5</ele><time>2026-05-03T11:19:30.832Z</time></trkpt><trkpt lat="45.931245" lon="8.7917233"><ele>355.25</ele><time>2026-05-03T11:19:31.832Z</time></trkpt><trkpt lat="45.93138" lon="8.7917267"><ele>353.0</ele><time>2026-05-03T11:19:32.832Z</time></trkpt><trkpt lat="45.9315117" lon="8.7917017"><ele>353.0</ele><time>2026-05-03T11:19:33.832Z</time></trkpt><trkpt lat="45.9316317" lon="8.7916433"><ele>353.0</ele><time>2026-05-03T11:19:34.832Z</time></trkpt><trkpt lat="45.9317333" lon="8.7915783"><ele>353.0</ele><time>2026-05-03T11:19:35.832Z</time></trkpt><trkpt lat="45.9318133" lon="8.7915033"><ele>353.0</ele><time>2026-05-03T11:19:36.832Z</time></trkpt><trkpt lat="45.9318633" lon="8.7914117"><ele>353.0</ele><time>2026-05-03T11:19:37.832Z</time></trkpt><trkpt lat="45.9318733" lon="8.791265"><ele>349.5</ele><time>2026-05-03T11:19:38.832Z</time></trkpt><trkpt lat="45.93188" lon="8.79111"><ele>346.0</ele><time>2026-05-03T11:19:39.831Z</time></trkpt><trkpt lat="45.93189" lon="8.790925"><ele>342.5</ele><time>2026-05-03T11:19:40.832Z</time></trkpt><trkpt lat="45.9319017" lon="8.79073"><ele>339.0</ele><time>2026-05-03T11:19:41.832Z</time></trkpt><trkpt lat="45.9319" lon="8.79053"><ele>338.25</ele><time>2026-05-03T11:19:42.832Z</time></trkpt><trkpt lat="45.931895" lon="8.7903467"><ele>337.5</ele><time>2026-05-03T11:19:43.831Z</time></trkpt><trkpt lat="45.9318867" lon="8.790175"><ele>336.75</ele><time>2026-05-03T11:19:44.832Z</time></trkpt><trkpt lat="45.9318783" lon="8.790015"><ele>336.0</ele><time>2026-05-03T11:19:45.832Z</time></trkpt><trkpt lat="45.9318733" lon="8.7898667"><ele>336.0</ele><time>2026-05-03T11:19:46.831Z</time></trkpt><trkpt lat="45.9318717" lon="8.7897217"><ele>336.0</ele><time>2026-05-03T11:19:47.832Z</time></trkpt><trkpt lat="45.931875" lon="8.7895867"><ele>336.0</ele><time>2026-05-03T11:19:48.832Z</time></trkpt><trkpt lat="45.93187" lon="8.7894517"><ele>336.0</ele><time>2026-05-03T11:19:49.831Z</time></trkpt><trkpt lat="45.9318667" lon="8.78932"><ele>336.0</ele><time>2026-05-03T11:19:50.832Z</time></trkpt><trkpt lat="45.9318683" lon="8.7891817"><ele>336.20000000000005</ele><time>2026-05-03T11:19:51.831Z</time></trkpt><trkpt lat="45.9318667" lon="8.7890417"><ele>336.40000000000003</ele><time>2026-05-03T11:19:52.832Z</time></trkpt><trkpt lat="45.9318633" lon="8.7888967"><ele>336.6</ele><time>2026-05-03T11:19:53.832Z</time></trkpt><trkpt lat="45.9318583" lon="8.78876"><ele>336.8</ele><time>2026-05-03T11:19:54.832Z</time></trkpt><trkpt lat="45.93185" lon="8.7886283"><ele>337.0</ele><time>2026-05-03T11:19:55.832Z</time></trkpt><trkpt lat="45.931825" lon="8.78851"><ele>336.66666666666663</ele><time>2026-05-03T11:19:56.832Z</time></trkpt><trkpt lat="45.9317683" lon="8.7884267"><ele>336.3333333333333</ele><time>2026-05-03T11:19:57.831Z</time></trkpt><trkpt lat="45.9316983" lon="8.788355"><ele>336.0</ele><time>2026-05-03T11:19:58.832Z</time></trkpt><trkpt lat="45.93162" lon="8.7883017"><ele>335.6666666666667</ele><time>2026-05-03T11:19:59.832Z</time></trkpt><trkpt lat="45.9315433" lon="8.7882367"><ele>335.33333333333337</ele><time>2026-05-03T11:20:00.832Z</time></trkpt><trkpt lat="45.931485" lon="8.7881467"><ele>335.0</ele><time>2026-05-03T11:20:01.832Z</time></trkpt><trkpt lat="45.9314417" lon="8.7880233"><ele>334.8</ele><time>2026-05-03T11:20:02.832Z</time></trkpt><trkpt lat="45.9314183" lon="8.7878767"><ele>334.6</ele><time>2026-05-03T11:20:03.832Z</time></trkpt><trkpt lat="45.931405" lon="8.787715"><ele>334.4</ele><time>2026-05-03T11:20:04.832Z</time></trkpt><trkpt lat="45.9313933" lon="8.7875567"><ele>334.2</ele><time>2026-05-03T11:20:05.832Z</time></trkpt><trkpt lat="45.931385" lon="8.7874167"><ele>334.0</ele><time>2026-05-03T11:20:06.832Z</time></trkpt><trkpt lat="45.931385" lon="8.7872817"><ele>333.4</ele><time>2026-05-03T11:20:07.831Z</time></trkpt><trkpt lat="45.9314183" lon="8.78716"><ele>332.79999999999995</ele><time>2026-05-03T11:20:08.831Z</time></trkpt><trkpt lat="45.9314783" lon="8.7870733"><ele>332.20000000000005</ele><time>2026-05-03T11:20:09.832Z</time></trkpt><trkpt lat="45.931565" lon="8.7870033"><ele>331.6</ele><time>2026-05-03T11:20:10.832Z</time></trkpt><trkpt lat="45.9316617" lon="8.7869333"><ele>331.0</ele><time>2026-05-03T11:20:11.832Z</time></trkpt><trkpt lat="45.9317617" lon="8.7868633"><ele>328.6</ele><time>2026-05-03T11:20:12.832Z</time></trkpt><trkpt lat="45.93186" lon="8.7868017"><ele>326.20000000000005</ele><time>2026-05-03T11:20:13.832Z</time></trkpt><trkpt lat="45.93195" lon="8.7867417"><ele>323.79999999999995</ele><time>2026-05-03T11:20:14.832Z</time></trkpt><trkpt lat="45.932035" lon="8.7866817"><ele>321.4</ele><time>2026-05-03T11:20:15.832Z</time></trkpt><trkpt lat="45.932115" lon="8.7866267"><ele>319.0</ele><time>2026-05-03T11:20:16.832Z</time></trkpt><trkpt lat="45.9321983" lon="8.7865883"><ele>319.0</ele><time>2026-05-03T11:20:17.831Z</time></trkpt><trkpt lat="45.9322867" lon="8.7865833"><ele>319.0</ele><time>2026-05-03T11:20:18.831Z</time></trkpt><trkpt lat="45.93238" lon="8.7866333"><ele>319.0</ele><time>2026-05-03T11:20:19.831Z</time></trkpt><trkpt lat="45.9324783" lon="8.7867083"><ele>319.0</ele><time>2026-05-03T11:20:20.832Z</time></trkpt><trkpt lat="45.932585" lon="8.7868067"><ele>319.0</ele><time>2026-05-03T11:20:21.831Z</time></trkpt><trkpt lat="45.93269" lon="8.7868833"><ele>318.5</ele><time>2026-05-03T11:20:22.832Z</time></trkpt><trkpt lat="45.9327917" lon="8.786955"><ele>318.0</ele><time>2026-05-03T11:20:23.832Z</time></trkpt><trkpt lat="45.9328967" lon="8.7870217"><ele>317.5</ele><time>2026-05-03T11:20:24.832Z</time></trkpt><trkpt lat="45.9330017" lon="8.7870783"><ele>317.0</ele><time>2026-05-03T11:20:25.832Z</time></trkpt><trkpt lat="45.9331133" lon="8.787115"><ele>317.0</ele><time>2026-05-03T11:20:26.831Z</time></trkpt><trkpt lat="45.93323" lon="8.787135"><ele>317.0</ele><time>2026-05-03T11:20:27.832Z</time></trkpt><trkpt lat="45.9333433" lon="8.78714"><ele>317.0</ele><time>2026-05-03T11:20:28.832Z</time></trkpt><trkpt lat="45.9334533" lon="8.7871083"><ele>317.0</ele><time>2026-05-03T11:20:29.831Z</time></trkpt><trkpt lat="45.93356" lon="8.787045"><ele>317.0</ele><time>2026-05-03T11:20:30.831Z</time></trkpt><trkpt lat="45.9336683" lon="8.7869767"><ele>317.0</ele><time>2026-05-03T11:20:31.832Z</time></trkpt><trkpt lat="45.93377" lon="8.7868917"><ele>317.0</ele><time>2026-05-03T11:20:32.832Z</time></trkpt><trkpt lat="45.9338667" lon="8.7868033"><ele>317.0</ele><time>2026-05-03T11:20:33.832Z</time></trkpt><trkpt lat="45.93395" lon="8.7866867"><ele>315.6</ele><time>2026-05-03T11:20:34.832Z</time></trkpt><trkpt lat="45.9340267" lon="8.7865667"><ele>314.2</ele><time>2026-05-03T11:20:35.832Z</time></trkpt><trkpt lat="45.934095" lon="8.7864533"><ele>312.8</ele><time>2026-05-03T11:20:36.832Z</time></trkpt><trkpt lat="45.934155" lon="8.7863467"><ele>311.4</ele><time>2026-05-03T11:20:37.832Z</time></trkpt><trkpt lat="45.934205" lon="8.7862467"><ele>310.0</ele><time>2026-05-03T11:20:38.832Z</time></trkpt><trkpt lat="45.9342567" lon="8.78614"><ele>310.0</ele><time>2026-05-03T11:20:39.832Z</time></trkpt><trkpt lat="45.934295" lon="8.7860333"><ele>310.0</ele><time>2026-05-03T11:20:40.832Z</time></trkpt><trkpt lat="45.9343167" lon="8.7859283"><ele>310.0</ele><time>2026-05-03T11:20:41.832Z</time></trkpt><trkpt lat="45.934315" lon="8.7858133"><ele>310.0</ele><time>2026-05-03T11:20:42.832Z</time></trkpt><trkpt lat="45.9343033" lon="8.7856967"><ele>310.0</ele><time>2026-05-03T11:20:43.832Z</time></trkpt><trkpt lat="45.9342783" lon="8.7855667"><ele>310.0</ele><time>2026-05-03T11:20:44.832Z</time></trkpt><trkpt lat="45.9342583" lon="8.7854433"><ele>308.8</ele><time>2026-05-03T11:20:45.832Z</time></trkpt><trkpt lat="45.9342367" lon="8.7853217"><ele>307.6</ele><time>2026-05-03T11:20:46.831Z</time></trkpt><trkpt lat="45.9342017" lon="8.7851917"><ele>306.4</ele><time>2026-05-03T11:20:47.831Z</time></trkpt><trkpt lat="45.934145" lon="8.7850533"><ele>305.2</ele><time>2026-05-03T11:20:48.832Z</time></trkpt><trkpt lat="45.9340783" lon="8.7849417"><ele>304.0</ele><time>2026-05-03T11:20:49.832Z</time></trkpt><trkpt lat="45.93399" lon="8.78486"><ele>302.2</ele><time>2026-05-03T11:20:50.832Z</time></trkpt><trkpt lat="45.9338867" lon="8.7847983"><ele>300.4</ele><time>2026-05-03T11:20:51.832Z</time></trkpt><trkpt lat="45.93378" lon="8.7847683"><ele>298.6</ele><time>2026-05-03T11:20:52.832Z</time></trkpt><trkpt lat="45.9336667" lon="8.7847667"><ele>296.8</ele><time>2026-05-03T11:20:53.832Z</time></trkpt><trkpt lat="45.9335567" lon="8.7847717"><ele>295.0</ele><time>2026-05-03T11:20:54.832Z</time></trkpt><trkpt lat="45.9334517" lon="8.7847717"><ele>294.5</ele><time>2026-05-03T11:20:55.831Z</time></trkpt><trkpt lat="45.9333433" lon="8.784785"><ele>294.0</ele><time>2026-05-03T11:20:56.832Z</time></trkpt><trkpt lat="45.9332267" lon="8.78479"><ele>293.5</ele><time>2026-05-03T11:20:57.832Z</time></trkpt><trkpt lat="45.9331167" lon="8.7848"><ele>293.0</ele><time>2026-05-03T11:20:58.832Z</time></trkpt><trkpt lat="45.933" lon="8.7847933"><ele>293.0</ele><time>2026-05-03T11:20:59.832Z</time></trkpt><trkpt lat="45.932895" lon="8.7847733"><ele>293.0</ele><time>2026-05-03T11:21:00.831Z</time></trkpt><trkpt lat="45.9327983" lon="8.7847283"><ele>293.0</ele><time>2026-05-03T11:21:01.831Z</time></trkpt><trkpt lat="45.9327167" lon="8.78464"><ele>293.0</ele><time>2026-05-03T11:21:02.831Z</time></trkpt><trkpt lat="45.9326483" lon="8.7845183"><ele>293.0</ele><time>2026-05-03T11:21:03.832Z</time></trkpt><trkpt lat="45.9325867" lon="8.78438"><ele>293.0</ele><time>2026-05-03T11:21:04.832Z</time></trkpt><trkpt lat="45.932535" lon="8.7842167"><ele>293.0</ele><time>2026-05-03T11:21:05.832Z</time></trkpt><trkpt lat="45.9324933" lon="8.7840333"><ele>293.0</ele><time>2026-05-03T11:21:06.832Z</time></trkpt><trkpt lat="45.9324717" lon="8.7838567"><ele>293.0</ele><time>2026-05-03T11:21:07.832Z</time></trkpt><trkpt lat="45.93246" lon="8.7836767"><ele>290.4</ele><time>2026-05-03T11:21:08.832Z</time></trkpt><trkpt lat="45.9324367" lon="8.7835067"><ele>287.8</ele><time>2026-05-03T11:21:09.832Z</time></trkpt><trkpt lat="45.93241" lon="8.7833567"><ele>285.2</ele><time>2026-05-03T11:21:10.832Z</time></trkpt><trkpt lat="45.9323817" lon="8.7832317"><ele>282.6</ele><time>2026-05-03T11:21:11.832Z</time></trkpt><trkpt lat="45.932335" lon="8.78313"><ele>280.0</ele><time>2026-05-03T11:21:12.831Z</time></trkpt><trkpt lat="45.93227" lon="8.7830483"><ele>280.0</ele><time>2026-05-03T11:21:13.832Z</time></trkpt><trkpt lat="45.9322017" lon="8.783005"><ele>280.0</ele><time>2026-05-03T11:21:14.832Z</time></trkpt><trkpt lat="45.93211" lon="8.7829967"><ele>280.0</ele><time>2026-05-03T11:21:15.831Z</time></trkpt><trkpt lat="45.932005" lon="8.783015"><ele>280.0</ele><time>2026-05-03T11:21:16.832Z</time></trkpt><trkpt lat="45.9318917" lon="8.783005"><ele>280.0</ele><time>2026-05-03T11:21:17.831Z</time></trkpt><trkpt lat="45.931785" lon="8.7829383"><ele>281.0</ele><time>2026-05-03T11:21:18.832Z</time></trkpt><trkpt lat="45.931685" lon="8.782855"><ele>282.0</ele><time>2026-05-03T11:21:19.831Z</time></trkpt><trkpt lat="45.9315933" lon="8.7827583"><ele>283.0</ele><time>2026-05-03T11:21:20.832Z</time></trkpt><trkpt lat="45.9314983" lon="8.7826783"><ele>284.0</ele><time>2026-05-03T11:21:21.831Z</time></trkpt><trkpt lat="45.9314033" lon="8.7825983"><ele>285.0</ele><time>2026-05-03T11:21:22.832Z</time></trkpt><trkpt lat="45.93131" lon="8.7825017"><ele>281.25</ele><time>2026-05-03T11:21:23.831Z</time></trkpt><trkpt lat="45.9312433" lon="8.78238"><ele>277.5</ele><time>2026-05-03T11:21:24.832Z</time></trkpt><trkpt lat="45.9311933" lon="8.7822367"><ele>273.75</ele><time>2026-05-03T11:21:25.832Z</time></trkpt><trkpt lat="45.931155" lon="8.78208"><ele>270.0</ele><time>2026-05-03T11:21:26.831Z</time></trkpt><trkpt lat="45.9311167" lon="8.7819083"><ele>269.75</ele><time>2026-05-03T11:21:27.832Z</time></trkpt><trkpt lat="45.931065" lon="8.7817217"><ele>269.5</ele><time>2026-05-03T11:21:28.832Z</time></trkpt><trkpt lat="45.931005" lon="8.7815367"><ele>269.25</ele><time>2026-05-03T11:21:29.832Z</time></trkpt><trkpt lat="45.93093" lon="8.7813533"><ele>269.0</ele><time>2026-05-03T11:21:30.832Z</time></trkpt><trkpt lat="45.9308583" lon="8.7811767"><ele>265.25</ele><time>2026-05-03T11:21:31.832Z</time></trkpt><trkpt lat="45.93079" lon="8.781"><ele>261.5</ele><time>2026-05-03T11:21:32.831Z</time></trkpt><trkpt lat="45.9307217" lon="8.7808233"><ele>257.75</ele><time>2026-05-03T11:21:33.832Z</time></trkpt><trkpt lat="45.9306583" lon="8.7806467"><ele>254.0</ele><time>2026-05-03T11:21:34.831Z</time></trkpt><trkpt lat="45.9305967" lon="8.78047"><ele>254.0</ele><time>2026-05-03T11:21:35.831Z</time></trkpt><trkpt lat="45.9305383" lon="8.7802933"><ele>254.0</ele><time>2026-05-03T11:21:36.832Z</time></trkpt><trkpt lat="45.9304867" lon="8.7801283"><ele>254.0</ele><time>2026-05-03T11:21:37.832Z</time></trkpt><trkpt lat="45.9304483" lon="8.77996"><ele>254.0</ele><time>2026-05-03T11:21:38.832Z</time></trkpt><trkpt lat="45.9304133" lon="8.7797967"><ele>252.6</ele><time>2026-05-03T11:21:39.831Z</time></trkpt><trkpt lat="45.9303833" lon="8.7796417"><ele>251.2</ele><time>2026-05-03T11:21:40.831Z</time></trkpt><trkpt lat="45.930355" lon="8.7795033"><ele>249.79999999999998</ele><time>2026-05-03T11:21:41.831Z</time></trkpt><trkpt lat="45.9303317" lon="8.7793667"><ele>248.39999999999998</ele><time>2026-05-03T11:21:42.831Z</time></trkpt><trkpt lat="45.9303133" lon="8.7792317"><ele>247.0</ele><time>2026-05-03T11:21:43.832Z</time></trkpt><trkpt lat="45.9302883" lon="8.77911"><ele>246.57142857142858</ele><time>2026-05-03T11:21:44.831Z</time></trkpt><trkpt lat="45.93027" lon="8.7790017"><ele>246.1428571428571</ele><time>2026-05-03T11:21:45.832Z</time></trkpt><trkpt lat="45.93025" lon="8.7789017"><ele>245.7142857142857</ele><time>2026-05-03T11:21:46.832Z</time></trkpt><trkpt lat="45.9302317" lon="8.778805"><ele>245.28571428571428</ele><time>2026-05-03T11:21:47.832Z</time></trkpt><trkpt lat="45.9302083" lon="8.7787133"><ele>244.85714285714283</ele><time>2026-05-03T11:21:48.832Z</time></trkpt><trkpt lat="45.9301917" lon="8.7786167"><ele>244.4285714285714</ele><time>2026-05-03T11:21:49.831Z</time></trkpt><trkpt lat="45.9301767" lon="8.7785167"><ele>243.99999999999997</ele><time>2026-05-03T11:21:50.832Z</time></trkpt><trkpt lat="45.9301567" lon="8.7784183"><ele>243.79999999999998</ele><time>2026-05-03T11:21:51.831Z</time></trkpt><trkpt lat="45.9301383" lon="8.77833"><ele>243.59999999999997</ele><time>2026-05-03T11:21:52.832Z</time></trkpt><trkpt lat="45.9300967" lon="8.7782117"><ele>243.4</ele><time>2026-05-03T11:21:54.831Z</time></trkpt><trkpt lat="45.9300317" lon="8.778155"><ele>243.2</ele><time>2026-05-03T11:22:01.832Z</time></trkpt><trkpt lat="45.9299383" lon="8.7782333"><ele>243.0</ele><time>2026-05-03T11:22:04.831Z</time></trkpt><trkpt lat="45.9298417" lon="8.7783567"><ele>244.4</ele><time>2026-05-03T11:22:06.832Z</time></trkpt><trkpt lat="45.929785" lon="8.77844"><ele>245.8</ele><time>2026-05-03T11:22:07.831Z</time></trkpt><trkpt lat="45.929715" lon="8.7785467"><ele>247.2</ele><time>2026-05-03T11:22:08.831Z</time></trkpt><trkpt lat="45.92965" lon="8.7786683"><ele>248.6</ele><time>2026-05-03T11:22:09.832Z</time></trkpt><trkpt lat="45.9295883" lon="8.7787883"><ele>250.0</ele><time>2026-05-03T11:22:10.831Z</time></trkpt><trkpt lat="45.9295217" lon="8.7789217"><ele>250.75</ele><time>2026-05-03T11:22:11.832Z</time></trkpt><trkpt lat="45.9294383" lon="8.77907"><ele>251.5</ele><time>2026-05-03T11:22:12.831Z</time></trkpt><trkpt lat="45.929355" lon="8.7792033"><ele>252.25</ele><time>2026-05-03T11:22:13.832Z</time></trkpt><trkpt lat="45.9292767" lon="8.779315"><ele>253.0</ele><time>2026-05-03T11:22:14.832Z</time></trkpt><trkpt lat="45.9292117" lon="8.7794333"><ele>256.8</ele><time>2026-05-03T11:22:15.831Z</time></trkpt><trkpt lat="45.9291533" lon="8.7795633"><ele>260.6</ele><time>2026-05-03T11:22:16.832Z</time></trkpt><trkpt lat="45.929095" lon="8.779705"><ele>264.4</ele><time>2026-05-03T11:22:17.831Z</time></trkpt><trkpt lat="45.92904" lon="8.7798333"><ele>268.2</ele><time>2026-05-03T11:22:18.832Z</time></trkpt><trkpt lat="45.9289883" lon="8.77994"><ele>272.0</ele><time>2026-05-03T11:22:19.832Z</time></trkpt><trkpt lat="45.92893" lon="8.78003"><ele>272.0</ele><time>2026-05-03T11:22:20.832Z</time></trkpt><trkpt lat="45.9288733" lon="8.7800917"><ele>272.0</ele><time>2026-05-03T11:22:21.832Z</time></trkpt><trkpt lat="45.9288067" lon="8.78011"><ele>272.0</ele><time>2026-05-03T11:22:22.832Z</time></trkpt><trkpt lat="45.928745" lon="8.7800917"><ele>272.0</ele><time>2026-05-03T11:22:23.832Z</time></trkpt><trkpt lat="45.9286767" lon="8.7800617"><ele>272.0</ele><time>2026-05-03T11:22:24.832Z</time></trkpt><trkpt lat="45.92861" lon="8.780025"><ele>272.0</ele><time>2026-05-03T11:22:25.831Z</time></trkpt><trkpt lat="45.9285" lon="8.7800533"><ele>272.0</ele><time>2026-05-03T11:22:27.832Z</time></trkpt><trkpt lat="45.9284517" lon="8.7801517"><ele>272.0</ele><time>2026-05-03T11:22:28.831Z</time></trkpt><trkpt lat="45.9284033" lon="8.7802567"><ele>272.0</ele><time>2026-05-03T11:22:29.831Z</time></trkpt><trkpt lat="45.92837" lon="8.780345"><ele>272.0</ele><time>2026-05-03T11:22:30.832Z</time></trkpt><trkpt lat="45.928345" lon="8.78043"><ele>272.0</ele><time>2026-05-03T11:22:31.832Z</time></trkpt><trkpt lat="45.9283533" lon="8.7806117"><ele>272.0</ele><time>2026-05-03T11:22:33.831Z</time></trkpt><trkpt lat="45.928375" lon="8.7807317"><ele>274.0</ele><time>2026-05-03T11:22:34.832Z</time></trkpt><trkpt lat="45.9284117" lon="8.780855"><ele>276.0</ele><time>2026-05-03T11:22:35.832Z</time></trkpt><trkpt lat="45.9284567" lon="8.78098"><ele>278.0</ele><time>2026-05-03T11:22:36.832Z</time></trkpt><trkpt lat="45.928505" lon="8.781085"><ele>280.0</ele><time>2026-05-03T11:22:37.831Z</time></trkpt><trkpt lat="45.9285367" lon="8.781245"><ele>282.0</ele><time>2026-05-03T11:22:39.832Z</time></trkpt><trkpt lat="45.9284883" lon="8.7813033"><ele>283.25</ele><time>2026-05-03T11:22:40.832Z</time></trkpt><trkpt lat="45.9284267" lon="8.7813817"><ele>284.5</ele><time>2026-05-03T11:22:41.832Z</time></trkpt><trkpt lat="45.9283667" lon="8.7815033"><ele>285.75</ele><time>2026-05-03T11:22:42.832Z</time></trkpt><trkpt lat="45.9282983" lon="8.7816683"><ele>287.0</ele><time>2026-05-03T11:22:43.831Z</time></trkpt><trkpt lat="45.9282367" lon="8.7818533"><ele>288.2</ele><time>2026-05-03T11:22:44.832Z</time></trkpt><trkpt lat="45.92819" lon="8.782015"><ele>289.4</ele><time>2026-05-03T11:22:45.832Z</time></trkpt><trkpt lat="45.92815" lon="8.7821583"><ele>290.6</ele><time>2026-05-03T11:22:46.832Z</time></trkpt><trkpt lat="45.9281217" lon="8.7823067"><ele>291.8</ele><time>2026-05-03T11:22:47.832Z</time></trkpt><trkpt lat="45.9281033" lon="8.7824567"><ele>293.0</ele><time>2026-05-03T11:22:48.831Z</time></trkpt><trkpt lat="45.928095" lon="8.7825667"><ele>293.0</ele><time>2026-05-03T11:22:49.832Z</time></trkpt><trkpt lat="45.9280383" lon="8.78268"><ele>293.0</ele><time>2026-05-03T11:22:51.832Z</time></trkpt><trkpt lat="45.9279133" lon="8.7826683"><ele>293.0</ele><time>2026-05-03T11:22:53.832Z</time></trkpt><trkpt lat="45.927815" lon="8.7826367"><ele>293.0</ele><time>2026-05-03T11:22:54.832Z</time></trkpt><trkpt lat="45.9276817" lon="8.782595"><ele>293.0</ele><time>2026-05-03T11:22:55.832Z</time></trkpt><trkpt lat="45.9275483" lon="8.7825583"><ele>293.0</ele><time>2026-05-03T11:22:56.832Z</time></trkpt><trkpt lat="45.92742" lon="8.7825283"><ele>293.0</ele><time>2026-05-03T11:22:57.832Z</time></trkpt><trkpt lat="45.9273117" lon="8.782545"><ele>293.0</ele><time>2026-05-03T11:22:58.832Z</time></trkpt><trkpt lat="45.92722" lon="8.7825883"><ele>293.0</ele><time>2026-05-03T11:22:59.831Z</time></trkpt><trkpt lat="45.9271383" lon="8.7826383"><ele>293.0</ele><time>2026-05-03T11:23:00.832Z</time></trkpt><trkpt lat="45.92707" lon="8.7826917"><ele>293.0</ele><time>2026-05-03T11:23:01.831Z</time></trkpt><trkpt lat="45.9270067" lon="8.7827583"><ele>293.0</ele><time>2026-05-03T11:23:02.832Z</time></trkpt><trkpt lat="45.9269383" lon="8.7828567"><ele>293.0</ele><time>2026-05-03T11:23:03.831Z</time></trkpt><trkpt lat="45.92686" lon="8.7829783"><ele>293.0</ele><time>2026-05-03T11:23:04.832Z</time></trkpt><trkpt lat="45.926785" lon="8.7831017"><ele>293.0</ele><time>2026-05-03T11:23:05.831Z</time></trkpt><trkpt lat="45.92672" lon="8.7832167"><ele>293.0</ele><time>2026-05-03T11:23:06.832Z</time></trkpt><trkpt lat="45.9266667" lon="8.7832967"><ele>293.0</ele><time>2026-05-03T11:23:07.832Z</time></trkpt><trkpt lat="45.9266117" lon="8.7833683"><ele>293.0</ele><time>2026-05-03T11:23:08.832Z</time></trkpt><trkpt lat="45.92652" lon="8.7834283"><ele>294.75</ele><time>2026-05-03T11:23:10.832Z</time></trkpt><trkpt lat="45.9264383" lon="8.7832883"><ele>296.5</ele><time>2026-05-03T11:23:12.832Z</time></trkpt><trkpt lat="45.9263717" lon="8.7831783"><ele>298.25</ele><time>2026-05-03T11:23:13.831Z</time></trkpt><trkpt lat="45.9262733" lon="8.7830533"><ele>300.0</ele><time>2026-05-03T11:23:14.832Z</time></trkpt><trkpt lat="45.9261517" lon="8.7829367"><ele>300.0</ele><time>2026-05-03T11:23:15.831Z</time></trkpt><trkpt lat="45.926025" lon="8.782835"><ele>300.0</ele><time>2026-05-03T11:23:16.832Z</time></trkpt><trkpt lat="45.9258817" lon="8.7827483"><ele>300.0</ele><time>2026-05-03T11:23:17.831Z</time></trkpt><trkpt lat="45.9257483" lon="8.7826667"><ele>300.0</ele><time>2026-05-03T11:23:18.832Z</time></trkpt><trkpt lat="45.9256133" lon="8.7826067"><ele>299.4</ele><time>2026-05-03T11:23:19.832Z</time></trkpt><trkpt lat="45.9254983" lon="8.78252"><ele>298.8</ele><time>2026-05-03T11:23:20.831Z</time></trkpt><trkpt lat="45.9254067" lon="8.7824267"><ele>298.2</ele><time>2026-05-03T11:23:21.832Z</time></trkpt><trkpt lat="45.9253267" lon="8.7823433"><ele>297.6</ele><time>2026-05-03T11:23:22.831Z</time></trkpt><trkpt lat="45.9252683" lon="8.7822917"><ele>297.0</ele><time>2026-05-03T11:23:23.831Z</time></trkpt><trkpt lat="45.9251483" lon="8.78226"><ele>297.0</ele><time>2026-05-03T11:23:25.832Z</time></trkpt><trkpt lat="45.9250683" lon="8.7822867"><ele>297.0</ele><time>2026-05-03T11:23:26.832Z</time></trkpt><trkpt lat="45.92497" lon="8.7823067"><ele>297.0</ele><time>2026-05-03T11:23:27.832Z</time></trkpt><trkpt lat="45.9248517" lon="8.78233"><ele>297.0</ele><time>2026-05-03T11:23:28.832Z</time></trkpt><trkpt lat="45.92473" lon="8.7823667"><ele>297.0</ele><time>2026-05-03T11:23:29.832Z</time></trkpt><trkpt lat="45.9246217" lon="8.782415"><ele>297.25</ele><time>2026-05-03T11:23:30.832Z</time></trkpt><trkpt lat="45.9245333" lon="8.782505"><ele>297.5</ele><time>2026-05-03T11:23:31.832Z</time></trkpt><trkpt lat="45.9244483" lon="8.782635"><ele>297.75</ele><time>2026-05-03T11:23:32.831Z</time></trkpt><trkpt lat="45.9243567" lon="8.7827867"><ele>298.0</ele><time>2026-05-03T11:23:33.832Z</time></trkpt><trkpt lat="45.92428" lon="8.7829267"><ele>298.6</ele><time>2026-05-03T11:23:34.832Z</time></trkpt><trkpt lat="45.92422" lon="8.7830233"><ele>299.20000000000005</ele><time>2026-05-03T11:23:35.832Z</time></trkpt><trkpt lat="45.9241617" lon="8.78309"><ele>299.8</ele><time>2026-05-03T11:23:36.831Z</time></trkpt><trkpt lat="45.9240767" lon="8.7831433"><ele>300.40000000000003</ele><time>2026-05-03T11:23:37.831Z</time></trkpt><trkpt lat="45.9239533" lon="8.7831667"><ele>301.0</ele><time>2026-05-03T11:23:38.832Z</time></trkpt><trkpt lat="45.923825" lon="8.7831883"><ele>301.0</ele><time>2026-05-03T11:23:39.831Z</time></trkpt><trkpt lat="45.9236983" lon="8.7832167"><ele>301.0</ele><time>2026-05-03T11:23:40.832Z</time></trkpt><trkpt lat="45.9235733" lon="8.783235"><ele>301.0</ele><time>2026-05-03T11:23:41.831Z</time></trkpt><trkpt lat="45.92345" lon="8.7832483"><ele>301.0</ele><time>2026-05-03T11:23:42.832Z</time></trkpt><trkpt lat="45.923325" lon="8.7832617"><ele>300.5</ele><time>2026-05-03T11:23:43.831Z</time></trkpt><trkpt lat="45.9232" lon="8.78328"><ele>300.0</ele><time>2026-05-03T11:23:44.832Z</time></trkpt><trkpt lat="45.9230767" lon="8.78329"><ele>299.5</ele><time>2026-05-03T11:23:45.832Z</time></trkpt><trkpt lat="45.9229533" lon="8.7833"><ele>299.0</ele><time>2026-05-03T11:23:46.832Z</time></trkpt><trkpt lat="45.9228333" lon="8.7833117"><ele>299.0</ele><time>2026-05-03T11:23:47.832Z</time></trkpt><trkpt lat="45.9227267" lon="8.78332"><ele>299.0</ele><time>2026-05-03T11:23:48.832Z</time></trkpt><trkpt lat="45.92263" lon="8.7833117"><ele>299.0</ele><time>2026-05-03T11:23:49.831Z</time></trkpt><trkpt lat="45.9225333" lon="8.7832683"><ele>299.0</ele><time>2026-05-03T11:23:50.831Z</time></trkpt><trkpt lat="45.922435" lon="8.7831917"><ele>299.0</ele><time>2026-05-03T11:23:51.832Z</time></trkpt><trkpt lat="45.9223333" lon="8.7831017"><ele>299.25</ele><time>2026-05-03T11:23:52.832Z</time></trkpt><trkpt lat="45.9222283" lon="8.7830233"><ele>299.5</ele><time>2026-05-03T11:23:53.832Z</time></trkpt><trkpt lat="45.922125" lon="8.7829467"><ele>299.75</ele><time>2026-05-03T11:23:54.832Z</time></trkpt><trkpt lat="45.9220333" lon="8.782865"><ele>300.0</ele><time>2026-05-03T11:23:55.832Z</time></trkpt><trkpt lat="45.9219383" lon="8.7827717"><ele>299.4</ele><time>2026-05-03T11:23:56.832Z</time></trkpt><trkpt lat="45.9218617" lon="8.782655"><ele>298.8</ele><time>2026-05-03T11:23:57.832Z</time></trkpt><trkpt lat="45.9218083" lon="8.7825233"><ele>298.2</ele><time>2026-05-03T11:23:58.832Z</time></trkpt><trkpt lat="45.9217733" lon="8.7823867"><ele>297.6</ele><time>2026-05-03T11:23:59.832Z</time></trkpt><trkpt lat="45.9217483" lon="8.78227"><ele>297.0</ele><time>2026-05-03T11:24:00.832Z</time></trkpt><trkpt lat="45.9217133" lon="8.7821533"><ele>297.0</ele><time>2026-05-03T11:24:01.831Z</time></trkpt><trkpt lat="45.921665" lon="8.7820383"><ele>297.0</ele><time>2026-05-03T11:24:02.832Z</time></trkpt><trkpt lat="45.9215983" lon="8.781905"><ele>297.0</ele><time>2026-05-03T11:24:03.832Z</time></trkpt><trkpt lat="45.921525" lon="8.7817717"><ele>297.0</ele><time>2026-05-03T11:24:04.832Z</time></trkpt><trkpt lat="45.9214633" lon="8.7816833"><ele>297.0</ele><time>2026-05-03T11:24:05.832Z</time></trkpt><trkpt lat="45.921395" lon="8.78161"><ele>298.0</ele><time>2026-05-03T11:24:06.831Z</time></trkpt><trkpt lat="45.9213233" lon="8.7815733"><ele>299.0</ele><time>2026-05-03T11:24:07.832Z</time></trkpt><trkpt lat="45.921245" lon="8.781575"><ele>300.0</ele><time>2026-05-03T11:24:08.832Z</time></trkpt><trkpt lat="45.9211667" lon="8.7815633"><ele>301.0</ele><time>2026-05-03T11:24:09.832Z</time></trkpt><trkpt lat="45.92111" lon="8.78152"><ele>302.0</ele><time>2026-05-03T11:24:10.832Z</time></trkpt><trkpt lat="45.921115" lon="8.7813333"><ele>303.0</ele><time>2026-05-03T11:24:12.832Z</time></trkpt><trkpt lat="45.9211483" lon="8.7812033"><ele>303.0</ele><time>2026-05-03T11:24:13.832Z</time></trkpt><trkpt lat="45.9211733" lon="8.7810733"><ele>303.0</ele><time>2026-05-03T11:24:14.832Z</time></trkpt><trkpt lat="45.9212133" lon="8.7809717"><ele>303.0</ele><time>2026-05-03T11:24:15.831Z</time></trkpt><trkpt lat="45.9212467" lon="8.78088"><ele>303.0</ele><time>2026-05-03T11:24:16.831Z</time></trkpt><trkpt lat="45.9212617" lon="8.7807717"><ele>303.0</ele><time>2026-05-03T11:24:18.831Z</time></trkpt><trkpt lat="45.92119" lon="8.7808117"><ele>303.0</ele><time>2026-05-03T11:24:20.832Z</time></trkpt><trkpt lat="45.9211467" lon="8.7808783"><ele>303.0</ele><time>2026-05-03T11:24:21.831Z</time></trkpt><trkpt lat="45.9211067" lon="8.7809667"><ele>303.0</ele><time>2026-05-03T11:24:22.832Z</time></trkpt><trkpt lat="45.9210217" lon="8.78105"><ele>303.0</ele><time>2026-05-03T11:24:24.831Z</time></trkpt><trkpt lat="45.9209617" lon="8.7809533"><ele>303.0</ele><time>2026-05-03T11:24:26.832Z</time></trkpt><trkpt lat="45.9209333" lon="8.7808233"><ele>303.0</ele><time>2026-05-03T11:24:28.832Z</time></trkpt><trkpt lat="45.9209467" lon="8.7806233"><ele>303.8</ele><time>2026-05-03T11:24:30.831Z</time></trkpt><trkpt lat="45.92095" lon="8.78049"><ele>304.6</ele><time>2026-05-03T11:24:31.832Z</time></trkpt><trkpt lat="45.9209417" lon="8.780315"><ele>305.4</ele><time>2026-05-03T11:24:32.832Z</time></trkpt><trkpt lat="45.9209283" lon="8.7801683"><ele>306.2</ele><time>2026-05-03T11:24:33.832Z</time></trkpt><trkpt lat="45.9209117" lon="8.7800233"><ele>307.0</ele><time>2026-05-03T11:24:34.831Z</time></trkpt><trkpt lat="45.920895" lon="8.7798883"><ele>306.66666666666663</ele><time>2026-05-03T11:24:35.832Z</time></trkpt><trkpt lat="45.9208717" lon="8.7797633"><ele>306.3333333333333</ele><time>2026-05-03T11:24:36.832Z</time></trkpt><trkpt lat="45.920855" lon="8.7796517"><ele>306.0</ele><time>2026-05-03T11:24:37.832Z</time></trkpt><trkpt lat="45.9208367" lon="8.77956"><ele>305.6666666666667</ele><time>2026-05-03T11:24:38.832Z</time></trkpt><trkpt lat="45.9208483" lon="8.7794"><ele>305.33333333333337</ele><time>2026-05-03T11:24:40.832Z</time></trkpt><trkpt lat="45.9208833" lon="8.7792667"><ele>305.0</ele><time>2026-05-03T11:24:42.831Z</time></trkpt><trkpt lat="45.9209067" lon="8.7791333"><ele>305.0</ele><time>2026-05-03T11:24:44.832Z</time></trkpt><trkpt lat="45.9209333" lon="8.7790217"><ele>305.0</ele><time>2026-05-03T11:24:46.832Z</time></trkpt><trkpt lat="45.9209017" lon="8.77882"><ele>305.0</ele><time>2026-05-03T11:25:10.832Z</time></trkpt><trkpt lat="45.920925" lon="8.7787183"><ele>305.0</ele><time>2026-05-03T11:25:52.831Z</time></trkpt><trkpt lat="45.9209233" lon="8.77861"><ele>305.0</ele><time>2026-05-03T11:25:57.832Z</time></trkpt><trkpt lat="45.9208833" lon="8.7785017"><ele>307.1666666666667</ele><time>2026-05-03T11:26:01.832Z</time></trkpt><trkpt lat="45.9208183" lon="8.77846"><ele>309.33333333333337</ele><time>2026-05-03T11:26:03.832Z</time></trkpt><trkpt lat="45.9207133" lon="8.7784483"><ele>311.5</ele><time>2026-05-03T11:26:05.832Z</time></trkpt><trkpt lat="45.9206167" lon="8.778495"><ele>313.6666666666667</ele><time>2026-05-03T11:26:07.832Z</time></trkpt><trkpt lat="45.920555" lon="8.7785233"><ele>315.8333333333333</ele><time>2026-05-03T11:26:08.832Z</time></trkpt><trkpt lat="45.920495" lon="8.778565"><ele>318.0</ele><time>2026-05-03T11:26:09.831Z</time></trkpt><trkpt lat="45.9204083" lon="8.7786433"><ele>318.1666666666667</ele><time>2026-05-03T11:26:11.832Z</time></trkpt><trkpt lat="45.9203517" lon="8.778685"><ele>318.3333333333333</ele><time>2026-05-03T11:26:13.831Z</time></trkpt><trkpt lat="45.920285" lon="8.778705"><ele>318.5</ele><time>2026-05-03T11:26:21.832Z</time></trkpt><trkpt lat="45.92022" lon="8.778715"><ele>318.66666666666663</ele><time>2026-05-03T11:26:23.832Z</time></trkpt><trkpt lat="45.9201333" lon="8.7787283"><ele>318.8333333333333</ele><time>2026-05-03T11:26:25.832Z</time></trkpt><trkpt lat="45.9200383" lon="8.7787017"><ele>319.0</ele><time>2026-05-03T11:26:27.832Z</time></trkpt><trkpt lat="45.91995" lon="8.7785917"><ele>320.0</ele><time>2026-05-03T11:26:29.831Z</time></trkpt><trkpt lat="45.919895" lon="8.7785133"><ele>321.0</ele><time>2026-05-03T11:26:30.832Z</time></trkpt><trkpt lat="45.9198333" lon="8.77841"><ele>322.0</ele><time>2026-05-03T11:26:31.832Z</time></trkpt><trkpt lat="45.9197567" lon="8.7783167"><ele>323.0</ele><time>2026-05-03T11:26:32.832Z</time></trkpt><trkpt lat="45.9197" lon="8.778225"><ele>324.0</ele><time>2026-05-03T11:26:33.832Z</time></trkpt><trkpt lat="45.919615" lon="8.7781417"><ele>324.0</ele><time>2026-05-03T11:26:34.832Z</time></trkpt><trkpt lat="45.9195467" lon="8.77807"><ele>324.0</ele><time>2026-05-03T11:26:35.831Z</time></trkpt><trkpt lat="45.9194717" lon="8.7780067"><ele>324.0</ele><time>2026-05-03T11:26:36.831Z</time></trkpt><trkpt lat="45.9193983" lon="8.7779317"><ele>324.0</ele><time>2026-05-03T11:26:37.832Z</time></trkpt><trkpt lat="45.9193183" lon="8.7778717"><ele>324.0</ele><time>2026-05-03T11:26:38.831Z</time></trkpt><trkpt lat="45.919255" lon="8.77781"><ele>324.0</ele><time>2026-05-03T11:26:39.832Z</time></trkpt><trkpt lat="45.91918" lon="8.777765"><ele>323.6666666666667</ele><time>2026-05-03T11:26:40.832Z</time></trkpt><trkpt lat="45.9190983" lon="8.7777217"><ele>323.3333333333333</ele><time>2026-05-03T11:26:41.831Z</time></trkpt><trkpt lat="45.9190033" lon="8.7776833"><ele>323.0</ele><time>2026-05-03T11:26:42.831Z</time></trkpt><trkpt lat="45.918905" lon="8.7776583"><ele>322.66666666666663</ele><time>2026-05-03T11:26:43.832Z</time></trkpt><trkpt lat="45.91882" lon="8.77764"><ele>322.3333333333333</ele><time>2026-05-03T11:26:44.831Z</time></trkpt><trkpt lat="45.9187533" lon="8.7776317"><ele>322.0</ele><time>2026-05-03T11:26:45.832Z</time></trkpt><trkpt lat="45.9186733" lon="8.777635"><ele>322.0</ele><time>2026-05-03T11:26:46.831Z</time></trkpt><trkpt lat="45.9185917" lon="8.777645"><ele>322.0</ele><time>2026-05-03T11:26:47.831Z</time></trkpt><trkpt lat="45.9185" lon="8.7776583"><ele>322.0</ele><time>2026-05-03T11:26:48.832Z</time></trkpt><trkpt lat="45.91842" lon="8.7776767"><ele>322.0</ele><time>2026-05-03T11:26:49.832Z</time></trkpt><trkpt lat="45.9183467" lon="8.7776967"><ele>322.0</ele><time>2026-05-03T11:26:50.832Z</time></trkpt><trkpt lat="45.9182817" lon="8.7777167"><ele>322.0</ele><time>2026-05-03T11:26:51.832Z</time></trkpt><trkpt lat="45.9182167" lon="8.777745"><ele>323.16666666666663</ele><time>2026-05-03T11:26:52.832Z</time></trkpt><trkpt lat="45.9181367" lon="8.77778"><ele>324.3333333333333</ele><time>2026-05-03T11:26:53.832Z</time></trkpt><trkpt lat="45.9180383" lon="8.7778033"><ele>325.5</ele><time>2026-05-03T11:26:54.832Z</time></trkpt><trkpt lat="45.9179433" lon="8.777825"><ele>326.6666666666667</ele><time>2026-05-03T11:26:55.832Z</time></trkpt><trkpt lat="45.9178717" lon="8.7778483"><ele>327.83333333333337</ele><time>2026-05-03T11:26:56.832Z</time></trkpt><trkpt lat="45.9178" lon="8.7778733"><ele>329.0</ele><time>2026-05-03T11:26:57.832Z</time></trkpt><trkpt lat="45.917735" lon="8.7778983"><ele>329.0</ele><time>2026-05-03T11:26:58.832Z</time></trkpt><trkpt lat="45.9176283" lon="8.7779183"><ele>329.0</ele><time>2026-05-03T11:27:00.832Z</time></trkpt><trkpt lat="45.91755" lon="8.7779017"><ele>329.0</ele><time>2026-05-03T11:27:03.832Z</time></trkpt><trkpt lat="45.917445" lon="8.7778517"><ele>329.0</ele><time>2026-05-03T11:27:12.832Z</time></trkpt><trkpt lat="45.9173683" lon="8.7778617"><ele>329.0</ele><time>2026-05-03T11:27:15.832Z</time></trkpt><trkpt lat="45.917315" lon="8.777925"><ele>329.0</ele><time>2026-05-03T11:27:18.832Z</time></trkpt><trkpt lat="45.91716" lon="8.7779817"><ele>328.57142857142856</ele><time>2026-05-03T11:27:34.832Z</time></trkpt><trkpt lat="45.917085" lon="8.77799"><ele>328.1428571428571</ele><time>2026-05-03T11:27:41.832Z</time></trkpt><trkpt lat="45.9170217" lon="8.77795"><ele>327.7142857142857</ele><time>2026-05-03T11:27:46.832Z</time></trkpt><trkpt lat="45.9169583" lon="8.77795"><ele>327.2857142857143</ele><time>2026-05-03T11:27:51.832Z</time></trkpt><trkpt lat="45.9168917" lon="8.7779517"><ele>326.85714285714283</ele><time>2026-05-03T11:27:57.832Z</time></trkpt><trkpt lat="45.9168133" lon="8.77796"><ele>326.42857142857144</ele><time>2026-05-03T11:28:03.832Z</time></trkpt><trkpt lat="45.9167483" lon="8.77795"><ele>326.0</ele><time>2026-05-03T11:28:06.832Z</time></trkpt><trkpt lat="45.9166783" lon="8.7779317"><ele>325.14285714285717</ele><time>2026-05-03T11:28:10.832Z</time></trkpt><trkpt lat="45.9166183" lon="8.7779983"><ele>324.2857142857143</ele><time>2026-05-03T11:28:15.832Z</time></trkpt><trkpt lat="45.9165517" lon="8.7780383"><ele>323.42857142857144</ele><time>2026-05-03T11:28:18.831Z</time></trkpt><trkpt lat="45.9164883" lon="8.77807"><ele>322.57142857142856</ele><time>2026-05-03T11:28:22.832Z</time></trkpt><trkpt lat="45.9164333" lon="8.7780183"><ele>321.7142857142857</ele><time>2026-05-03T11:28:27.832Z</time></trkpt><trkpt lat="45.9163867" lon="8.7779367"><ele>320.85714285714283</ele><time>2026-05-03T11:28:51.832Z</time></trkpt><trkpt lat="45.91638" lon="8.77782"><ele>320.0</ele><time>2026-05-03T11:28:55.831Z</time></trkpt><trkpt lat="45.9163583" lon="8.7777267"><ele>317.6666666666667</ele><time>2026-05-03T11:29:01.832Z</time></trkpt><trkpt lat="45.9162817" lon="8.77764"><ele>315.33333333333337</ele><time>2026-05-03T11:29:16.832Z</time></trkpt><trkpt lat="45.916245" lon="8.7775533"><ele>313.0</ele><time>2026-05-03T11:29:21.832Z</time></trkpt><trkpt lat="45.916195" lon="8.7774533"><ele>310.6666666666667</ele><time>2026-05-03T11:29:26.832Z</time></trkpt><trkpt lat="45.9161433" lon="8.7774"><ele>308.3333333333333</ele><time>2026-05-03T11:29:30.832Z</time></trkpt><trkpt lat="45.9160933" lon="8.7773267"><ele>306.0</ele><time>2026-05-03T11:29:34.832Z</time></trkpt><trkpt lat="45.9160167" lon="8.7772783"><ele>306.0</ele><time>2026-05-03T11:29:37.832Z</time></trkpt><trkpt lat="45.91594" lon="8.7772383"><ele>306.0</ele><time>2026-05-03T11:29:40.832Z</time></trkpt><trkpt lat="45.9158717" lon="8.7772017"><ele>306.0</ele><time>2026-05-03T11:29:43.831Z</time></trkpt><trkpt lat="45.9158217" lon="8.7770967"><ele>306.0</ele><time>2026-05-03T11:29:46.832Z</time></trkpt><trkpt lat="45.91578" lon="8.7770217"><ele>306.0</ele><time>2026-05-03T11:29:48.832Z</time></trkpt><trkpt lat="45.915745" lon="8.7769267"><ele>306.0</ele><time>2026-05-03T11:29:50.831Z</time></trkpt><trkpt lat="45.9157233" lon="8.7767983"><ele>302.2</ele><time>2026-05-03T11:29:52.832Z</time></trkpt><trkpt lat="45.9156933" lon="8.7766367"><ele>298.40000000000003</ele><time>2026-05-03T11:29:54.832Z</time></trkpt><trkpt lat="45.91566" lon="8.77649"><ele>294.6</ele><time>2026-05-03T11:29:56.831Z</time></trkpt><trkpt lat="45.9156367" lon="8.776405"><ele>290.8</ele><time>2026-05-03T11:29:57.832Z</time></trkpt><trkpt lat="45.9156017" lon="8.7762017"><ele>287.0</ele><time>2026-05-03T11:29:59.831Z</time></trkpt><trkpt lat="45.915595" lon="8.7760583"><ele>285.6666666666667</ele><time>2026-05-03T11:30:01.831Z</time></trkpt><trkpt lat="45.91562" lon="8.7759417"><ele>284.33333333333337</ele><time>2026-05-03T11:30:04.831Z</time></trkpt><trkpt lat="45.9156483" lon="8.7758483"><ele>283.0</ele><time>2026-05-03T11:30:07.831Z</time></trkpt><trkpt lat="45.9155883" lon="8.7757767"><ele>281.6666666666667</ele><time>2026-05-03T11:30:10.83Z</time></trkpt><trkpt lat="45.91551" lon="8.7757433"><ele>280.3333333333333</ele><time>2026-05-03T11:30:12.831Z</time></trkpt><trkpt lat="45.9154233" lon="8.775735"><ele>279.0</ele><time>2026-05-03T11:30:14.831Z</time></trkpt><trkpt lat="45.9153533" lon="8.77571"><ele>278.99999999999994</ele><time>2026-05-03T11:30:16.831Z</time></trkpt><trkpt lat="45.9152833" lon="8.775655"><ele>279.0</ele><time>2026-05-03T11:30:19.83Z</time></trkpt><trkpt lat="45.915235" lon="8.775585"><ele>279.0</ele><time>2026-05-03T11:30:22.83Z</time></trkpt><trkpt lat="45.9151983" lon="8.7755067"><ele>279.0</ele><time>2026-05-03T11:30:26.831Z</time></trkpt><trkpt lat="45.9151783" lon="8.7754117"><ele>279.0</ele><time>2026-05-03T11:30:30.831Z</time></trkpt><trkpt lat="45.9151417" lon="8.7753083"><ele>278.99999999999994</ele><time>2026-05-03T11:30:33.83Z</time></trkpt><trkpt lat="45.9150917" lon="8.77522"><ele>279.0</ele><time>2026-05-03T11:30:37.83Z</time></trkpt><trkpt lat="45.9150117" lon="8.7751867"><ele>279.8333333333333</ele><time>2026-05-03T11:30:40.831Z</time></trkpt><trkpt lat="45.9149383" lon="8.7751583"><ele>280.6666666666667</ele><time>2026-05-03T11:30:43.831Z</time></trkpt><trkpt lat="45.91485" lon="8.7751833"><ele>281.5</ele><time>2026-05-03T11:30:46.831Z</time></trkpt><trkpt lat="45.9147867" lon="8.7752167"><ele>282.33333333333337</ele><time>2026-05-03T11:30:49.83Z</time></trkpt><trkpt lat="45.91471" lon="8.7752417"><ele>283.1666666666667</ele><time>2026-05-03T11:30:52.831Z</time></trkpt><trkpt lat="45.9146433" lon="8.77529"><ele>284.0</ele><time>2026-05-03T11:30:55.831Z</time></trkpt><trkpt lat="45.9145883" lon="8.7753417"><ele>284.0</ele><time>2026-05-03T11:30:57.831Z</time></trkpt><trkpt lat="45.914525" lon="8.7754117"><ele>284.0</ele><time>2026-05-03T11:30:59.831Z</time></trkpt><trkpt lat="45.91446" lon="8.77546"><ele>284.0</ele><time>2026-05-03T11:31:01.831Z</time></trkpt><trkpt lat="45.9143733" lon="8.7754933"><ele>284.0</ele><time>2026-05-03T11:31:03.831Z</time></trkpt><trkpt lat="45.9142983" lon="8.77551"><ele>284.0</ele><time>2026-05-03T11:31:05.83Z</time></trkpt><trkpt lat="45.9141983" lon="8.7754683"><ele>284.0</ele><time>2026-05-03T11:31:07.831Z</time></trkpt><trkpt lat="45.9140933" lon="8.7754383"><ele>288.0</ele><time>2026-05-03T11:31:09.831Z</time></trkpt><trkpt lat="45.9139633" lon="8.7754183"><ele>292.0</ele><time>2026-05-03T11:31:11.83Z</time></trkpt><trkpt lat="45.9138567" lon="8.7754467"><ele>296.0</ele><time>2026-05-03T11:31:12.831Z</time></trkpt><trkpt lat="45.9137367" lon="8.7754833"><ele>300.0</ele><time>2026-05-03T11:31:13.831Z</time></trkpt><trkpt lat="45.9136017" lon="8.7755333"><ele>300.0</ele><time>2026-05-03T11:31:14.831Z</time></trkpt><trkpt lat="45.9135" lon="8.7755867"><ele>300.0</ele><time>2026-05-03T11:31:15.83Z</time></trkpt><trkpt lat="45.9134083" lon="8.7756117"><ele>300.0</ele><time>2026-05-03T11:31:16.831Z</time></trkpt><trkpt lat="45.9133333" lon="8.7756217"><ele>300.0</ele><time>2026-05-03T11:31:17.83Z</time></trkpt><trkpt lat="45.9132567" lon="8.7756183"><ele>300.0</ele><time>2026-05-03T11:31:19.831Z</time></trkpt><trkpt lat="45.9132133" lon="8.775545"><ele>300.0</ele><time>2026-05-03T11:31:46.831Z</time></trkpt><trkpt lat="45.9131883" lon="8.77543"><ele>301.6</ele><time>2026-05-03T11:31:48.831Z</time></trkpt><trkpt lat="45.9131717" lon="8.77529"><ele>303.2</ele><time>2026-05-03T11:31:50.83Z</time></trkpt><trkpt lat="45.9132017" lon="8.7751483"><ele>304.8</ele><time>2026-05-03T11:31:52.831Z</time></trkpt><trkpt lat="45.9132267" lon="8.775065"><ele>306.4</ele><time>2026-05-03T11:31:53.83Z</time></trkpt><trkpt lat="45.9132617" lon="8.7749433"><ele>308.0</ele><time>2026-05-03T11:31:55.831Z</time></trkpt><trkpt lat="45.9133217" lon="8.7748183"><ele>308.0</ele><time>2026-05-03T11:31:57.831Z</time></trkpt><trkpt lat="45.9133617" lon="8.7747433"><ele>308.0</ele><time>2026-05-03T11:31:58.831Z</time></trkpt><trkpt lat="45.9134233" lon="8.77465"><ele>308.0</ele><time>2026-05-03T11:31:59.831Z</time></trkpt><trkpt lat="45.9135017" lon="8.7745317"><ele>308.0</ele><time>2026-05-03T11:32:00.831Z</time></trkpt><trkpt lat="45.91358" lon="8.7744167"><ele>308.0</ele><time>2026-05-03T11:32:01.83Z</time></trkpt><trkpt lat="45.9136767" lon="8.77429"><ele>306.25</ele><time>2026-05-03T11:32:02.831Z</time></trkpt><trkpt lat="45.9137683" lon="8.7741633"><ele>304.5</ele><time>2026-05-03T11:32:03.83Z</time></trkpt><trkpt lat="45.9138583" lon="8.7740367"><ele>302.75</ele><time>2026-05-03T11:32:04.831Z</time></trkpt><trkpt lat="45.913945" lon="8.773915"><ele>301.0</ele><time>2026-05-03T11:32:05.831Z</time></trkpt><trkpt lat="45.9140333" lon="8.7738117"><ele>301.0</ele><time>2026-05-03T11:32:06.831Z</time></trkpt><trkpt lat="45.914115" lon="8.7737083"><ele>301.0</ele><time>2026-05-03T11:32:07.83Z</time></trkpt><trkpt lat="45.9141817" lon="8.7736117"><ele>301.0</ele><time>2026-05-03T11:32:08.831Z</time></trkpt><trkpt lat="45.9142283" lon="8.77354"><ele>301.0</ele><time>2026-05-03T11:32:09.83Z</time></trkpt><trkpt lat="45.9142533" lon="8.773425"><ele>301.0</ele><time>2026-05-03T11:32:11.831Z</time></trkpt><trkpt lat="45.9141383" lon="8.7732883"><ele>301.0</ele><time>2026-05-03T11:32:13.831Z</time></trkpt><trkpt lat="45.91405" lon="8.7732167"><ele>301.0</ele><time>2026-05-03T11:32:14.831Z</time></trkpt><trkpt lat="45.91397" lon="8.7731417"><ele>301.0</ele><time>2026-05-03T11:32:15.831Z</time></trkpt><trkpt lat="45.9138967" lon="8.7730733"><ele>301.0</ele><time>2026-05-03T11:32:16.831Z</time></trkpt><trkpt lat="45.9138367" lon="8.773"><ele>301.0</ele><time>2026-05-03T11:32:17.831Z</time></trkpt><trkpt lat="45.9138033" lon="8.7729217"><ele>301.0</ele><time>2026-05-03T11:32:18.831Z</time></trkpt><trkpt lat="45.913815" lon="8.772825"><ele>301.0</ele><time>2026-05-03T11:32:19.83Z</time></trkpt><trkpt lat="45.9138717" lon="8.7727033"><ele>301.0</ele><time>2026-05-03T11:32:20.83Z</time></trkpt><trkpt lat="45.9139517" lon="8.7725683"><ele>301.0</ele><time>2026-05-03T11:32:21.831Z</time></trkpt><trkpt lat="45.9140133" lon="8.77244"><ele>301.0</ele><time>2026-05-03T11:32:22.831Z</time></trkpt><trkpt lat="45.91407" lon="8.7723167"><ele>301.0</ele><time>2026-05-03T11:32:23.83Z</time></trkpt><trkpt lat="45.9141067" lon="8.7721867"><ele>301.0</ele><time>2026-05-03T11:32:24.831Z</time></trkpt><trkpt lat="45.914145" lon="8.7720583"><ele>301.0</ele><time>2026-05-03T11:32:25.83Z</time></trkpt><trkpt lat="45.9141783" lon="8.7719383"><ele>301.0</ele><time>2026-05-03T11:32:26.831Z</time></trkpt><trkpt lat="45.9142083" lon="8.7718317"><ele>301.0</ele><time>2026-05-03T11:32:27.831Z</time></trkpt><trkpt lat="45.9142517" lon="8.7717417"><ele>301.0</ele><time>2026-05-03T11:32:28.83Z</time></trkpt><trkpt lat="45.9143083" lon="8.771655"><ele>301.0</ele><time>2026-05-03T11:32:29.831Z</time></trkpt><trkpt lat="45.91437" lon="8.771575"><ele>300.6</ele><time>2026-05-03T11:32:30.831Z</time></trkpt><trkpt lat="45.9144283" lon="8.7715"><ele>300.20000000000005</ele><time>2026-05-03T11:32:31.831Z</time></trkpt><trkpt lat="45.914475" lon="8.7714183"><ele>299.79999999999995</ele><time>2026-05-03T11:32:32.831Z</time></trkpt><trkpt lat="45.9145067" lon="8.7712817"><ele>299.4</ele><time>2026-05-03T11:32:34.831Z</time></trkpt><trkpt lat="45.9144533" lon="8.771175"><ele>299.0</ele><time>2026-05-03T11:32:38.831Z</time></trkpt><trkpt lat="45.91431" lon="8.7711067"><ele>299.4</ele><time>2026-05-03T11:32:40.831Z</time></trkpt><trkpt lat="45.9142217" lon="8.77105"><ele>299.79999999999995</ele><time>2026-05-03T11:32:41.831Z</time></trkpt><trkpt lat="45.91412" lon="8.7709817"><ele>300.20000000000005</ele><time>2026-05-03T11:32:42.83Z</time></trkpt><trkpt lat="45.9140183" lon="8.7709383"><ele>300.6</ele><time>2026-05-03T11:32:43.831Z</time></trkpt><trkpt lat="45.9138917" lon="8.7709317"><ele>301.0</ele><time>2026-05-03T11:32:44.83Z</time></trkpt><trkpt lat="45.9137533" lon="8.77096"><ele>301.5</ele><time>2026-05-03T11:32:45.83Z</time></trkpt><trkpt lat="45.9135983" lon="8.7709833"><ele>302.0</ele><time>2026-05-03T11:32:46.831Z</time></trkpt><trkpt lat="45.9134467" lon="8.7709883"><ele>302.5</ele><time>2026-05-03T11:32:47.83Z</time></trkpt><trkpt lat="45.9133067" lon="8.7709833"><ele>303.0</ele><time>2026-05-03T11:32:48.831Z</time></trkpt><trkpt lat="45.91318" lon="8.7709717"><ele>303.0</ele><time>2026-05-03T11:32:49.831Z</time></trkpt><trkpt lat="45.91308" lon="8.7709583"><ele>303.0</ele><time>2026-05-03T11:32:50.831Z</time></trkpt><trkpt lat="45.9129967" lon="8.77095"><ele>303.0</ele><time>2026-05-03T11:32:51.831Z</time></trkpt><trkpt lat="45.9128867" lon="8.770915"><ele>303.0</ele><time>2026-05-03T11:32:53.83Z</time></trkpt><trkpt lat="45.9128433" lon="8.770785"><ele>303.0</ele><time>2026-05-03T11:32:55.831Z</time></trkpt><trkpt lat="45.9128283" lon="8.77067"><ele>303.0</ele><time>2026-05-03T11:32:56.831Z</time></trkpt><trkpt lat="45.9128217" lon="8.77052"><ele>303.0</ele><time>2026-05-03T11:32:57.831Z</time></trkpt><trkpt lat="45.91282" lon="8.7703433"><ele>303.0</ele><time>2026-05-03T11:32:58.831Z</time></trkpt><trkpt lat="45.912825" lon="8.7701717"><ele>303.0</ele><time>2026-05-03T11:32:59.831Z</time></trkpt><trkpt lat="45.9128333" lon="8.7700117"><ele>303.3333333333333</ele><time>2026-05-03T11:33:00.831Z</time></trkpt><trkpt lat="45.9128417" lon="8.7698683"><ele>303.6666666666667</ele><time>2026-05-03T11:33:01.831Z</time></trkpt><trkpt lat="45.9128633" lon="8.769735"><ele>304.0</ele><time>2026-05-03T11:33:02.831Z</time></trkpt><trkpt lat="45.9128783" lon="8.7696367"><ele>304.33333333333337</ele><time>2026-05-03T11:33:03.831Z</time></trkpt><trkpt lat="45.9128683" lon="8.7695433"><ele>304.6666666666667</ele><time>2026-05-03T11:33:06.83Z</time></trkpt><trkpt lat="45.91279" lon="8.76959"><ele>305.0</ele><time>2026-05-03T11:33:11.83Z</time></trkpt><trkpt lat="45.9127567" lon="8.7696833"><ele>305.0</ele><time>2026-05-03T11:33:14.831Z</time></trkpt><trkpt lat="45.91269" lon="8.7698133"><ele>305.0</ele><time>2026-05-03T11:33:17.831Z</time></trkpt><trkpt lat="45.912615" lon="8.769915"><ele>305.0</ele><time>2026-05-03T11:33:19.831Z</time></trkpt><trkpt lat="45.912565" lon="8.769975"><ele>305.0</ele><time>2026-05-03T11:33:20.831Z</time></trkpt><trkpt lat="45.9124617" lon="8.7700733"><ele>305.0</ele><time>2026-05-03T11:33:22.83Z</time></trkpt><trkpt lat="45.9123917" lon="8.77011"><ele>309.1666666666667</ele><time>2026-05-03T11:33:24.83Z</time></trkpt><trkpt lat="45.91232" lon="8.7701083"><ele>313.33333333333337</ele><time>2026-05-03T11:33:26.831Z</time></trkpt><trkpt lat="45.912245" lon="8.7700317"><ele>317.5</ele><time>2026-05-03T11:33:29.83Z</time></trkpt><trkpt lat="45.9121883" lon="8.7699683"><ele>321.6666666666667</ele><time>2026-05-03T11:33:31.831Z</time></trkpt><trkpt lat="45.9121167" lon="8.769915"><ele>325.8333333333333</ele><time>2026-05-03T11:33:34.831Z</time></trkpt><trkpt lat="45.9120383" lon="8.769895"><ele>330.0</ele><time>2026-05-03T11:33:36.831Z</time></trkpt><trkpt lat="45.911945" lon="8.76993"><ele>330.0</ele><time>2026-05-03T11:33:39.83Z</time></trkpt><trkpt lat="45.911865" lon="8.769995"><ele>330.0</ele><time>2026-05-03T11:33:41.831Z</time></trkpt><trkpt lat="45.911735" lon="8.77008"><ele>330.0</ele><time>2026-05-03T11:33:43.831Z</time></trkpt><trkpt lat="45.911665" lon="8.7701217"><ele>330.0</ele><time>2026-05-03T11:33:44.83Z</time></trkpt><trkpt lat="45.91156" lon="8.7701983"><ele>330.0</ele><time>2026-05-03T11:33:45.831Z</time></trkpt><trkpt lat="45.91149" lon="8.7702367"><ele>331.6</ele><time>2026-05-03T11:33:46.83Z</time></trkpt><trkpt lat="45.91136" lon="8.7703067"><ele>333.2</ele><time>2026-05-03T11:33:48.831Z</time></trkpt><trkpt lat="45.9112833" lon="8.7703183"><ele>334.79999999999995</ele><time>2026-05-03T11:33:50.831Z</time></trkpt><trkpt lat="45.9112217" lon="8.770225"><ele>336.4</ele><time>2026-05-03T11:33:53.831Z</time></trkpt><trkpt lat="45.9111717" lon="8.7701317"><ele>338.0</ele><time>2026-05-03T11:33:55.831Z</time></trkpt><trkpt lat="45.9110833" lon="8.7699983"><ele>339.6666666666667</ele><time>2026-05-03T11:33:57.831Z</time></trkpt><trkpt lat="45.9110333" lon="8.7699183"><ele>341.33333333333337</ele><time>2026-05-03T11:33:58.83Z</time></trkpt><trkpt lat="45.9109883" lon="8.7698317"><ele>343.0</ele><time>2026-05-03T11:33:59.83Z</time></trkpt><trkpt lat="45.9109517" lon="8.7697283"><ele>344.6666666666667</ele><time>2026-05-03T11:34:00.831Z</time></trkpt><trkpt lat="45.91092" lon="8.76963"><ele>346.3333333333333</ele><time>2026-05-03T11:34:01.83Z</time></trkpt><trkpt lat="45.9108917" lon="8.7695317"><ele>348.0</ele><time>2026-05-03T11:34:02.831Z</time></trkpt><trkpt lat="45.9108617" lon="8.7694317"><ele>350.5</ele><time>2026-05-03T11:34:03.831Z</time></trkpt><trkpt lat="45.91084" lon="8.7693217"><ele>353.0</ele><time>2026-05-03T11:34:04.831Z</time></trkpt><trkpt lat="45.9108" lon="8.7692233"><ele>355.5</ele><time>2026-05-03T11:34:05.831Z</time></trkpt><trkpt lat="45.9107667" lon="8.7691367"><ele>358.0</ele><time>2026-05-03T11:34:06.831Z</time></trkpt><trkpt lat="45.9107167" lon="8.7689983"><ele>360.5</ele><time>2026-05-03T11:34:08.831Z</time></trkpt><trkpt lat="45.9106733" lon="8.7688583"><ele>363.0</ele><time>2026-05-03T11:34:10.831Z</time></trkpt><trkpt lat="45.91066" lon="8.7687217"><ele>363.0</ele><time>2026-05-03T11:34:12.831Z</time></trkpt><trkpt lat="45.9106483" lon="8.7685767"><ele>363.0</ele><time>2026-05-03T11:34:14.831Z</time></trkpt><trkpt lat="45.910645" lon="8.768485"><ele>363.0</ele><time>2026-05-03T11:34:15.831Z</time></trkpt><trkpt lat="45.910615" lon="8.7683217"><ele>363.0</ele><time>2026-05-03T11:34:17.831Z</time></trkpt><trkpt lat="45.9105583" lon="8.768205"><ele>363.0</ele><time>2026-05-03T11:34:19.831Z</time></trkpt><trkpt lat="45.9104967" lon="8.76809"><ele>363.4</ele><time>2026-05-03T11:34:21.83Z</time></trkpt><trkpt lat="45.9104533" lon="8.7679683"><ele>363.79999999999995</ele><time>2026-05-03T11:34:23.831Z</time></trkpt><trkpt lat="45.9104083" lon="8.7678533"><ele>364.2</ele><time>2026-05-03T11:34:25.831Z</time></trkpt><trkpt lat="45.9103717" lon="8.7677283"><ele>364.6</ele><time>2026-05-03T11:34:27.831Z</time></trkpt><trkpt lat="45.91033" lon="8.7676183"><ele>365.0</ele><time>2026-05-03T11:34:29.83Z</time></trkpt><trkpt lat="45.9102433" lon="8.76755"><ele>365.8</ele><time>2026-05-03T11:34:31.831Z</time></trkpt><trkpt lat="45.9101183" lon="8.7674433"><ele>366.6</ele><time>2026-05-03T11:34:55.831Z</time></trkpt><trkpt lat="45.91005" lon="8.76739"><ele>367.4</ele><time>2026-05-03T11:35:14.831Z</time></trkpt><trkpt lat="45.909965" lon="8.767435"><ele>368.2</ele><time>2026-05-03T11:35:17.831Z</time></trkpt><trkpt lat="45.9098817" lon="8.7675117"><ele>369.0</ele><time>2026-05-03T11:35:19.83Z</time></trkpt><trkpt lat="45.9098217" lon="8.7675483"><ele>369.79999999999995</ele><time>2026-05-03T11:35:20.83Z</time></trkpt><trkpt lat="45.9097433" lon="8.7676183"><ele>370.59999999999997</ele><time>2026-05-03T11:35:22.831Z</time></trkpt><trkpt lat="45.9097467" lon="8.7674967"><ele>371.4</ele><time>2026-05-03T11:35:30.83Z</time></trkpt><trkpt lat="45.909805" lon="8.7673667"><ele>372.2</ele><time>2026-05-03T11:35:32.831Z</time></trkpt><trkpt lat="45.9098167" lon="8.76724"><ele>373.0</ele><time>2026-05-03T11:35:34.831Z</time></trkpt><trkpt lat="45.9097967" lon="8.7671083"><ele>373.0</ele><time>2026-05-03T11:35:36.83Z</time></trkpt><trkpt lat="45.9097467" lon="8.7669583"><ele>373.0</ele><time>2026-05-03T11:35:38.83Z</time></trkpt><trkpt lat="45.9096767" lon="8.76684"><ele>373.0</ele><time>2026-05-03T11:35:40.831Z</time></trkpt><trkpt lat="45.9096017" lon="8.7667367"><ele>373.0</ele><time>2026-05-03T11:35:42.831Z</time></trkpt><trkpt lat="45.9095233" lon="8.7666467"><ele>373.0</ele><time>2026-05-03T11:35:44.831Z</time></trkpt><trkpt lat="45.90943" lon="8.7665467"><ele>373.57142857142856</ele><time>2026-05-03T11:35:46.831Z</time></trkpt><trkpt lat="45.9093483" lon="8.7664733"><ele>374.14285714285717</ele><time>2026-05-03T11:35:48.831Z</time></trkpt><trkpt lat="45.9092883" lon="8.7664367"><ele>374.71428571428567</ele><time>2026-05-03T11:35:50.831Z</time></trkpt><trkpt lat="45.909245" lon="8.7663433"><ele>375.2857142857143</ele><time>2026-05-03T11:35:58.831Z</time></trkpt><trkpt lat="45.90921" lon="8.766265"><ele>375.85714285714283</ele><time>2026-05-03T11:36:01.831Z</time></trkpt><trkpt lat="45.909195" lon="8.76617"><ele>376.4285714285714</ele><time>2026-05-03T11:36:04.831Z</time></trkpt><trkpt lat="45.90919" lon="8.766065"><ele>377.0</ele><time>2026-05-03T11:36:07.831Z</time></trkpt><trkpt lat="45.909175" lon="8.7661867"><ele>377.0</ele><time>2026-05-03T11:41:21.831Z</time></trkpt><trkpt lat="45.9092" lon="8.76628"><ele>377.0</ele><time>2026-05-03T11:41:24.831Z</time></trkpt><trkpt lat="45.9092433" lon="8.766375"><ele>377.0</ele><time>2026-05-03T11:41:26.831Z</time></trkpt><trkpt lat="45.909315" lon="8.7664783"><ele>377.0</ele><time>2026-05-03T11:41:28.83Z</time></trkpt><trkpt lat="45.9093717" lon="8.76654"><ele>377.0</ele><time>2026-05-03T11:41:29.831Z</time></trkpt><trkpt lat="45.9094483" lon="8.766625"><ele>377.0</ele><time>2026-05-03T11:41:31.831Z</time></trkpt><trkpt lat="45.90951" lon="8.7667117"><ele>377.0</ele><time>2026-05-03T11:41:33.83Z</time></trkpt><trkpt lat="45.909575" lon="8.766825"><ele>377.0</ele><time>2026-05-03T11:41:35.831Z</time></trkpt><trkpt lat="45.9096283" lon="8.766945"><ele>377.0</ele><time>2026-05-03T11:41:37.831Z</time></trkpt><trkpt lat="45.9096783" lon="8.7670833"><ele>377.0</ele><time>2026-05-03T11:41:39.831Z</time></trkpt><trkpt lat="45.90969" lon="8.7672067"><ele>377.0</ele><time>2026-05-03T11:41:41.83Z</time></trkpt><trkpt lat="45.9096767" lon="8.767305"><ele>376.33333333333337</ele><time>2026-05-03T11:41:43.831Z</time></trkpt><trkpt lat="45.9096483" lon="8.76739"><ele>375.6666666666667</ele><time>2026-05-03T11:41:45.831Z</time></trkpt><trkpt lat="45.9096133" lon="8.76748"><ele>375.0</ele><time>2026-05-03T11:41:47.831Z</time></trkpt><trkpt lat="45.909585" lon="8.7675617"><ele>374.3333333333333</ele><time>2026-05-03T11:41:49.831Z</time></trkpt><trkpt lat="45.9095983" lon="8.7676583"><ele>373.66666666666663</ele><time>2026-05-03T11:41:53.83Z</time></trkpt><trkpt lat="45.9096967" lon="8.767565"><ele>373.0</ele><time>2026-05-03T11:41:56.831Z</time></trkpt><trkpt lat="45.9097833" lon="8.76748"><ele>373.0</ele><time>2026-05-03T11:41:58.83Z</time></trkpt><trkpt lat="45.90985" lon="8.76744"><ele>373.0</ele><time>2026-05-03T11:42:00.83Z</time></trkpt><trkpt lat="45.9099333" lon="8.7674467"><ele>373.0</ele><time>2026-05-03T11:42:03.831Z</time></trkpt><trkpt lat="45.9100167" lon="8.7674617"><ele>373.0</ele><time>2026-05-03T11:42:06.831Z</time></trkpt><trkpt lat="45.910085" lon="8.7675"><ele>373.0</ele><time>2026-05-03T11:42:08.831Z</time></trkpt><trkpt lat="45.9101383" lon="8.76755"><ele>373.0</ele><time>2026-05-03T11:42:10.83Z</time></trkpt><trkpt lat="45.9101767" lon="8.7676433"><ele>371.66666666666663</ele><time>2026-05-03T11:42:12.83Z</time></trkpt><trkpt lat="45.9101967" lon="8.7677367"><ele>370.3333333333333</ele><time>2026-05-03T11:42:14.83Z</time></trkpt><trkpt lat="45.9102233" lon="8.7678483"><ele>369.0</ele><time>2026-05-03T11:42:16.831Z</time></trkpt><trkpt lat="45.9102533" lon="8.7680033"><ele>367.6666666666667</ele><time>2026-05-03T11:42:18.83Z</time></trkpt><trkpt lat="45.9102917" lon="8.76811"><ele>366.33333333333337</ele><time>2026-05-03T11:42:20.83Z</time></trkpt><trkpt lat="45.9103367" lon="8.7681783"><ele>365.0</ele><time>2026-05-03T11:42:22.831Z</time></trkpt><trkpt lat="45.9103967" lon="8.768245"><ele>365.0</ele><time>2026-05-03T11:42:25.831Z</time></trkpt><trkpt lat="45.910545" lon="8.768325"><ele>365.0</ele><time>2026-05-03T11:42:52.831Z</time></trkpt><trkpt lat="45.9106133" lon="8.76835"><ele>365.0</ele><time>2026-05-03T11:42:57.83Z</time></trkpt><trkpt lat="45.9107017" lon="8.7683633"><ele>365.0</ele><time>2026-05-03T11:43:00.831Z</time></trkpt><trkpt lat="45.9107667" lon="8.7683367"><ele>365.0</ele><time>2026-05-03T11:43:02.831Z</time></trkpt><trkpt lat="45.9108167" lon="8.768265"><ele>365.0</ele><time>2026-05-03T11:43:04.831Z</time></trkpt><trkpt lat="45.910875" lon="8.7681667"><ele>365.0</ele><time>2026-05-03T11:43:06.831Z</time></trkpt><trkpt lat="45.9109167" lon="8.768035"><ele>365.0</ele><time>2026-05-03T11:43:08.831Z</time></trkpt><trkpt lat="45.910955" lon="8.7678583"><ele>365.0</ele><time>2026-05-03T11:43:10.831Z</time></trkpt><trkpt lat="45.9109783" lon="8.7677633"><ele>365.0</ele><time>2026-05-03T11:43:11.831Z</time></trkpt><trkpt lat="45.911015" lon="8.76768"><ele>362.5</ele><time>2026-05-03T11:43:12.831Z</time></trkpt><trkpt lat="45.9110533" lon="8.7675967"><ele>360.0</ele><time>2026-05-03T11:43:13.83Z</time></trkpt><trkpt lat="45.911085" lon="8.7675083"><ele>357.5</ele><time>2026-05-03T11:43:14.831Z</time></trkpt><trkpt lat="45.911165" lon="8.7673667"><ele>355.0</ele><time>2026-05-03T11:43:16.83Z</time></trkpt><trkpt lat="45.91122" lon="8.7673133"><ele>352.5</ele><time>2026-05-03T11:43:17.831Z</time></trkpt><trkpt lat="45.91128" lon="8.767255"><ele>350.0</ele><time>2026-05-03T11:43:18.831Z</time></trkpt><trkpt lat="45.9113867" lon="8.76719"><ele>350.0</ele><time>2026-05-03T11:43:20.831Z</time></trkpt><trkpt lat="45.9114567" lon="8.7671567"><ele>350.0</ele><time>2026-05-03T11:43:22.83Z</time></trkpt><trkpt lat="45.91152" lon="8.7671267"><ele>350.0</ele><time>2026-05-03T11:43:24.831Z</time></trkpt><trkpt lat="45.9115667" lon="8.7670633"><ele>350.0</ele><time>2026-05-03T11:43:26.831Z</time></trkpt><trkpt lat="45.9115967" lon="8.7669517"><ele>350.0</ele><time>2026-05-03T11:43:28.831Z</time></trkpt><trkpt lat="45.91165" lon="8.7668383"><ele>350.0</ele><time>2026-05-03T11:43:30.831Z</time></trkpt><trkpt lat="45.9116883" lon="8.7667417"><ele>349.6666666666667</ele><time>2026-05-03T11:43:32.831Z</time></trkpt><trkpt lat="45.91173" lon="8.766655"><ele>349.33333333333337</ele><time>2026-05-03T11:43:34.83Z</time></trkpt><trkpt lat="45.9117783" lon="8.7665783"><ele>349.0</ele><time>2026-05-03T11:43:36.83Z</time></trkpt><trkpt lat="45.911855" lon="8.7665067"><ele>348.6666666666667</ele><time>2026-05-03T11:43:38.83Z</time></trkpt><trkpt lat="45.91192" lon="8.7664567"><ele>348.3333333333333</ele><time>2026-05-03T11:43:40.831Z</time></trkpt><trkpt lat="45.9119917" lon="8.7664283"><ele>348.0</ele><time>2026-05-03T11:43:42.831Z</time></trkpt><trkpt lat="45.9120617" lon="8.7664"><ele>346.7142857142857</ele><time>2026-05-03T11:43:44.83Z</time></trkpt><trkpt lat="45.9121017" lon="8.766315"><ele>345.42857142857144</ele><time>2026-05-03T11:43:47.831Z</time></trkpt><trkpt lat="45.9120667" lon="8.7662217"><ele>344.1428571428571</ele><time>2026-05-03T11:43:48.831Z</time></trkpt><trkpt lat="45.9120317" lon="8.7661283"><ele>342.8571428571429</ele><time>2026-05-03T11:43:49.831Z</time></trkpt><trkpt lat="45.9119933" lon="8.7660417"><ele>341.5714285714286</ele><time>2026-05-03T11:43:50.831Z</time></trkpt><trkpt lat="45.9119667" lon="8.7659417"><ele>340.2857142857143</ele><time>2026-05-03T11:43:51.831Z</time></trkpt><trkpt lat="45.9119417" lon="8.7658333"><ele>339.0</ele><time>2026-05-03T11:43:52.83Z</time></trkpt><trkpt lat="45.91192" lon="8.7657217"><ele>338.3333333333333</ele><time>2026-05-03T11:43:53.83Z</time></trkpt><trkpt lat="45.9118933" lon="8.7656167"><ele>337.6666666666667</ele><time>2026-05-03T11:43:54.831Z</time></trkpt><trkpt lat="45.9118683" lon="8.7655283"><ele>337.0</ele><time>2026-05-03T11:43:55.83Z</time></trkpt><trkpt lat="45.9118217" lon="8.7654517"><ele>336.33333333333337</ele><time>2026-05-03T11:43:56.831Z</time></trkpt><trkpt lat="45.9117567" lon="8.765375"><ele>335.6666666666667</ele><time>2026-05-03T11:43:57.831Z</time></trkpt><trkpt lat="45.9116817" lon="8.7653033"><ele>335.0</ele><time>2026-05-03T11:43:58.83Z</time></trkpt><trkpt lat="45.9115967" lon="8.765245"><ele>336.6666666666667</ele><time>2026-05-03T11:43:59.831Z</time></trkpt><trkpt lat="45.9115117" lon="8.7651967"><ele>338.33333333333337</ele><time>2026-05-03T11:44:00.831Z</time></trkpt><trkpt lat="45.91143" lon="8.7651333"><ele>340.0</ele><time>2026-05-03T11:44:01.83Z</time></trkpt><trkpt lat="45.9113567" lon="8.7650683"><ele>341.6666666666667</ele><time>2026-05-03T11:44:02.83Z</time></trkpt><trkpt lat="45.9112983" lon="8.765015"><ele>343.3333333333333</ele><time>2026-05-03T11:44:03.831Z</time></trkpt><trkpt lat="45.911255" lon="8.7648767"><ele>345.0</ele><time>2026-05-03T11:44:05.831Z</time></trkpt><trkpt lat="45.9112333" lon="8.764745"><ele>345.0</ele><time>2026-05-03T11:44:07.831Z</time></trkpt><trkpt lat="45.9112217" lon="8.76462"><ele>345.0</ele><time>2026-05-03T11:44:09.831Z</time></trkpt><trkpt lat="45.9112433" lon="8.7644883"><ele>345.0</ele><time>2026-05-03T11:44:11.831Z</time></trkpt><trkpt lat="45.9112633" lon="8.7643367"><ele>345.0</ele><time>2026-05-03T11:44:13.83Z</time></trkpt><trkpt lat="45.9112417" lon="8.7641533"><ele>345.0</ele><time>2026-05-03T11:44:15.831Z</time></trkpt><trkpt lat="45.9111983" lon="8.7640367"><ele>342.75</ele><time>2026-05-03T11:44:16.831Z</time></trkpt><trkpt lat="45.911145" lon="8.7638933"><ele>340.5</ele><time>2026-05-03T11:44:17.831Z</time></trkpt><trkpt lat="45.9110583" lon="8.7637333"><ele>338.25</ele><time>2026-05-03T11:44:18.831Z</time></trkpt><trkpt lat="45.91098" lon="8.76358"><ele>336.0</ele><time>2026-05-03T11:44:19.83Z</time></trkpt><trkpt lat="45.9109017" lon="8.76344"><ele>336.0</ele><time>2026-05-03T11:44:20.831Z</time></trkpt><trkpt lat="45.910825" lon="8.7633183"><ele>336.0</ele><time>2026-05-03T11:44:21.83Z</time></trkpt><trkpt lat="45.9107617" lon="8.7632133"><ele>336.0</ele><time>2026-05-03T11:44:22.83Z</time></trkpt><trkpt lat="45.910695" lon="8.763115"><ele>336.0</ele><time>2026-05-03T11:44:23.831Z</time></trkpt><trkpt lat="45.9106067" lon="8.7630233"><ele>336.0</ele><time>2026-05-03T11:44:24.831Z</time></trkpt><trkpt lat="45.9105217" lon="8.7629383"><ele>336.0</ele><time>2026-05-03T11:44:25.831Z</time></trkpt><trkpt lat="45.9104467" lon="8.7628467"><ele>336.0</ele><time>2026-05-03T11:44:26.831Z</time></trkpt><trkpt lat="45.9103833" lon="8.76276"><ele>336.0</ele><time>2026-05-03T11:44:27.831Z</time></trkpt><trkpt lat="45.91032" lon="8.76267"><ele>336.0</ele><time>2026-05-03T11:44:28.831Z</time></trkpt><trkpt lat="45.910255" lon="8.76258"><ele>336.0</ele><time>2026-05-03T11:44:29.831Z</time></trkpt><trkpt lat="45.91019" lon="8.76249"><ele>337.20000000000005</ele><time>2026-05-03T11:44:30.831Z</time></trkpt><trkpt lat="45.9101217" lon="8.7624133"><ele>338.40000000000003</ele><time>2026-05-03T11:44:31.831Z</time></trkpt><trkpt lat="45.91006" lon="8.762345"><ele>339.6</ele><time>2026-05-03T11:44:32.831Z</time></trkpt><trkpt lat="45.9099833" lon="8.76223"><ele>340.8</ele><time>2026-05-03T11:44:34.831Z</time></trkpt><trkpt lat="45.9099267" lon="8.7620967"><ele>342.0</ele><time>2026-05-03T11:44:36.83Z</time></trkpt><trkpt lat="45.9098883" lon="8.7619983"><ele>342.0</ele><time>2026-05-03T11:44:37.83Z</time></trkpt><trkpt lat="45.90985" lon="8.7619017"><ele>342.0</ele><time>2026-05-03T11:44:38.83Z</time></trkpt><trkpt lat="45.9098033" lon="8.7618117"><ele>342.0</ele><time>2026-05-03T11:44:39.831Z</time></trkpt><trkpt lat="45.9097567" lon="8.7617267"><ele>342.0</ele><time>2026-05-03T11:44:40.83Z</time></trkpt><trkpt lat="45.9097017" lon="8.761655"><ele>342.0</ele><time>2026-05-03T11:44:41.83Z</time></trkpt><trkpt lat="45.90965" lon="8.7615717"><ele>342.0</ele><time>2026-05-03T11:44:42.83Z</time></trkpt><trkpt lat="45.909595" lon="8.7614883"><ele>341.3333333333333</ele><time>2026-05-03T11:44:43.83Z</time></trkpt><trkpt lat="45.9095283" lon="8.76139"><ele>340.6666666666667</ele><time>2026-05-03T11:44:45.831Z</time></trkpt><trkpt lat="45.909455" lon="8.7613717"><ele>340.0</ele><time>2026-05-03T11:44:49.83Z</time></trkpt><trkpt lat="45.90939" lon="8.7614517"><ele>339.33333333333337</ele><time>2026-05-03T11:44:52.83Z</time></trkpt><trkpt lat="45.9093133" lon="8.7614967"><ele>338.6666666666667</ele><time>2026-05-03T11:44:55.831Z</time></trkpt><trkpt lat="45.90925" lon="8.7614683"><ele>338.0</ele><time>2026-05-03T11:44:57.831Z</time></trkpt><trkpt lat="45.9091683" lon="8.7614267"><ele>337.83333333333337</ele><time>2026-05-03T11:44:59.831Z</time></trkpt><trkpt lat="45.9090867" lon="8.761395"><ele>337.6666666666667</ele><time>2026-05-03T11:45:01.831Z</time></trkpt><trkpt lat="45.9090033" lon="8.7613883"><ele>337.5</ele><time>2026-05-03T11:45:03.831Z</time></trkpt><trkpt lat="45.9089383" lon="8.761405"><ele>337.3333333333333</ele><time>2026-05-03T11:45:05.831Z</time></trkpt><trkpt lat="45.9088817" lon="8.7614667"><ele>337.16666666666663</ele><time>2026-05-03T11:45:07.831Z</time></trkpt><trkpt lat="45.908805" lon="8.761545"><ele>337.0</ele><time>2026-05-03T11:45:09.83Z</time></trkpt><trkpt lat="45.9087117" lon="8.76166"><ele>337.0</ele><time>2026-05-03T11:45:11.831Z</time></trkpt><trkpt lat="45.9086433" lon="8.7617133"><ele>337.0</ele><time>2026-05-03T11:45:12.831Z</time></trkpt><trkpt lat="45.9085667" lon="8.7617783"><ele>337.0</ele><time>2026-05-03T11:45:13.831Z</time></trkpt><trkpt lat="45.9084817" lon="8.7618483"><ele>337.0</ele><time>2026-05-03T11:45:14.831Z</time></trkpt><trkpt lat="45.90839" lon="8.76194"><ele>337.0</ele><time>2026-05-03T11:45:15.83Z</time></trkpt><trkpt lat="45.9083117" lon="8.7620233"><ele>335.16666666666663</ele><time>2026-05-03T11:45:16.831Z</time></trkpt><trkpt lat="45.9082433" lon="8.76209"><ele>333.3333333333333</ele><time>2026-05-03T11:45:17.83Z</time></trkpt><trkpt lat="45.908185" lon="8.762165"><ele>331.5</ele><time>2026-05-03T11:45:18.831Z</time></trkpt><trkpt lat="45.9081233" lon="8.7622883"><ele>329.6666666666667</ele><time>2026-05-03T11:45:20.831Z</time></trkpt><trkpt lat="45.9081117" lon="8.7623917"><ele>327.83333333333337</ele><time>2026-05-03T11:45:22.831Z</time></trkpt><trkpt lat="45.908065" lon="8.76248"><ele>326.0</ele><time>2026-05-03T11:45:24.831Z</time></trkpt><trkpt lat="45.90795" lon="8.7625417"><ele>326.0</ele><time>2026-05-03T11:45:26.831Z</time></trkpt><trkpt lat="45.9078483" lon="8.762565"><ele>326.0</ele><time>2026-05-03T11:45:28.831Z</time></trkpt><trkpt lat="45.9077317" lon="8.76257"><ele>326.0</ele><time>2026-05-03T11:45:30.83Z</time></trkpt><trkpt lat="45.9076117" lon="8.76257"><ele>326.0</ele><time>2026-05-03T11:45:32.831Z</time></trkpt><trkpt lat="45.9075217" lon="8.7625667"><ele>326.0</ele><time>2026-05-03T11:45:34.831Z</time></trkpt><trkpt lat="45.90744" lon="8.7625333"><ele>323.6</ele><time>2026-05-03T11:45:36.83Z</time></trkpt><trkpt lat="45.9073933" lon="8.7624383"><ele>321.20000000000005</ele><time>2026-05-03T11:45:39.831Z</time></trkpt><trkpt lat="45.90737" lon="8.76233"><ele>318.79999999999995</ele><time>2026-05-03T11:45:44.831Z</time></trkpt><trkpt lat="45.9073567" lon="8.76224"><ele>316.4</ele><time>2026-05-03T11:45:46.831Z</time></trkpt><trkpt lat="45.90726" lon="8.7620833"><ele>314.0</ele><time>2026-05-03T11:45:48.831Z</time></trkpt><trkpt lat="45.907165" lon="8.7619767"><ele>315.2</ele><time>2026-05-03T11:45:49.831Z</time></trkpt><trkpt lat="45.9070767" lon="8.7618633"><ele>316.4</ele><time>2026-05-03T11:45:50.831Z</time></trkpt><trkpt lat="45.907" lon="8.7617467"><ele>317.6</ele><time>2026-05-03T11:45:51.831Z</time></trkpt><trkpt lat="45.9069383" lon="8.7616283"><ele>318.8</ele><time>2026-05-03T11:45:52.83Z</time></trkpt><trkpt lat="45.9068783" lon="8.7614883"><ele>320.0</ele><time>2026-05-03T11:45:53.831Z</time></trkpt><trkpt lat="45.9068267" lon="8.7613433"><ele>320.0</ele><time>2026-05-03T11:45:54.831Z</time></trkpt><trkpt lat="45.9067833" lon="8.7612083"><ele>320.0</ele><time>2026-05-03T11:45:55.83Z</time></trkpt><trkpt lat="45.9067283" lon="8.7610733"><ele>320.0</ele><time>2026-05-03T11:45:56.831Z</time></trkpt><trkpt lat="45.906675" lon="8.7609483"><ele>320.0</ele><time>2026-05-03T11:45:57.831Z</time></trkpt><trkpt lat="45.9066183" lon="8.7608017"><ele>320.0</ele><time>2026-05-03T11:45:58.831Z</time></trkpt><trkpt lat="45.9065567" lon="8.7606367"><ele>318.25</ele><time>2026-05-03T11:45:59.831Z</time></trkpt><trkpt lat="45.9064983" lon="8.7604767"><ele>316.5</ele><time>2026-05-03T11:46:00.831Z</time></trkpt><trkpt lat="45.9064367" lon="8.760315"><ele>314.75</ele><time>2026-05-03T11:46:01.831Z</time></trkpt><trkpt lat="45.906375" lon="8.7601683"><ele>313.0</ele><time>2026-05-03T11:46:02.831Z</time></trkpt><trkpt lat="45.9063267" lon="8.76002"><ele>313.0</ele><time>2026-05-03T11:46:03.831Z</time></trkpt><trkpt lat="45.906265" lon="8.7598833"><ele>313.0</ele><time>2026-05-03T11:46:04.831Z</time></trkpt><trkpt lat="45.9062183" lon="8.75976"><ele>313.0</ele><time>2026-05-03T11:46:05.831Z</time></trkpt><trkpt lat="45.9061767" lon="8.75966"><ele>313.0</ele><time>2026-05-03T11:46:06.831Z</time></trkpt><trkpt lat="45.9060517" lon="8.7596683"><ele>313.0</ele><time>2026-05-03T11:46:11.83Z</time></trkpt><trkpt lat="45.9059433" lon="8.7597133"><ele>310.0</ele><time>2026-05-03T11:46:12.831Z</time></trkpt><trkpt lat="45.9058067" lon="8.7597667"><ele>307.0</ele><time>2026-05-03T11:46:13.831Z</time></trkpt><trkpt lat="45.9056733" lon="8.75982"><ele>304.0</ele><time>2026-05-03T11:46:14.831Z</time></trkpt><trkpt lat="45.9055583" lon="8.7598633"><ele>301.0</ele><time>2026-05-03T11:46:15.831Z</time></trkpt><trkpt lat="45.9054583" lon="8.759905"><ele>301.0</ele><time>2026-05-03T11:46:16.83Z</time></trkpt><trkpt lat="45.9053817" lon="8.75994"><ele>301.0</ele><time>2026-05-03T11:46:17.831Z</time></trkpt><trkpt lat="45.9052917" lon="8.7599517"><ele>301.0</ele><time>2026-05-03T11:46:19.83Z</time></trkpt><trkpt lat="45.9052333" lon="8.7598367"><ele>301.0</ele><time>2026-05-03T11:46:21.831Z</time></trkpt><trkpt lat="45.905185" lon="8.7596817"><ele>301.0</ele><time>2026-05-03T11:46:23.83Z</time></trkpt><trkpt lat="45.9051483" lon="8.7595633"><ele>301.0</ele><time>2026-05-03T11:46:25.831Z</time></trkpt><trkpt lat="45.905095" lon="8.75942"><ele>301.0</ele><time>2026-05-03T11:46:27.83Z</time></trkpt><trkpt lat="45.905055" lon="8.75933"><ele>301.0</ele><time>2026-05-03T11:46:28.831Z</time></trkpt><trkpt lat="45.9050117" lon="8.75924"><ele>301.0</ele><time>2026-05-03T11:46:29.831Z</time></trkpt><trkpt lat="45.9049617" lon="8.7591433"><ele>301.0</ele><time>2026-05-03T11:46:30.831Z</time></trkpt><trkpt lat="45.9049083" lon="8.759045"><ele>301.0</ele><time>2026-05-03T11:46:31.831Z</time></trkpt><trkpt lat="45.9048483" lon="8.758935"><ele>300.2</ele><time>2026-05-03T11:46:32.831Z</time></trkpt><trkpt lat="45.90479" lon="8.7588217"><ele>299.40000000000003</ele><time>2026-05-03T11:46:33.831Z</time></trkpt><trkpt lat="45.90472" lon="8.7587117"><ele>298.6</ele><time>2026-05-03T11:46:34.831Z</time></trkpt><trkpt lat="45.9046433" lon="8.758595"><ele>297.8</ele><time>2026-05-03T11:46:35.83Z</time></trkpt><trkpt lat="45.90456" lon="8.75847"><ele>297.0</ele><time>2026-05-03T11:46:36.831Z</time></trkpt><trkpt lat="45.9044633" lon="8.758365"><ele>296.8</ele><time>2026-05-03T11:46:37.831Z</time></trkpt><trkpt lat="45.904375" lon="8.7582633"><ele>296.6</ele><time>2026-05-03T11:46:38.831Z</time></trkpt><trkpt lat="45.9042933" lon="8.7581683"><ele>296.40000000000003</ele><time>2026-05-03T11:46:39.831Z</time></trkpt><trkpt lat="45.904215" lon="8.7580717"><ele>296.2</ele><time>2026-05-03T11:46:40.831Z</time></trkpt><trkpt lat="45.9041283" lon="8.7579717"><ele>296.0</ele><time>2026-05-03T11:46:41.831Z</time></trkpt><trkpt lat="45.9040517" lon="8.7578633"><ele>295.8</ele><time>2026-05-03T11:46:42.831Z</time></trkpt><trkpt lat="45.9039883" lon="8.7577567"><ele>295.6</ele><time>2026-05-03T11:46:43.831Z</time></trkpt><trkpt lat="45.9039367" lon="8.75765"><ele>295.4</ele><time>2026-05-03T11:46:44.831Z</time></trkpt><trkpt lat="45.9038867" lon="8.7575433"><ele>295.2</ele><time>2026-05-03T11:46:45.831Z</time></trkpt><trkpt lat="45.9038383" lon="8.757455"><ele>295.0</ele><time>2026-05-03T11:46:46.831Z</time></trkpt><trkpt lat="45.9037783" lon="8.75733"><ele>295.5</ele><time>2026-05-03T11:46:48.831Z</time></trkpt><trkpt lat="45.9037117" lon="8.7572517"><ele>296.0</ele><time>2026-05-03T11:46:49.83Z</time></trkpt><trkpt lat="45.90361" lon="8.757145"><ele>296.5</ele><time>2026-05-03T11:46:50.831Z</time></trkpt><trkpt lat="45.9035" lon="8.7570267"><ele>297.0</ele><time>2026-05-03T11:46:51.831Z</time></trkpt><trkpt lat="45.9034" lon="8.7569133"><ele>296.25</ele><time>2026-05-03T11:46:52.831Z</time></trkpt><trkpt lat="45.90331" lon="8.756805"><ele>295.5</ele><time>2026-05-03T11:46:53.83Z</time></trkpt><trkpt lat="45.9032217" lon="8.7566833"><ele>294.75</ele><time>2026-05-03T11:46:54.83Z</time></trkpt><trkpt lat="45.9031483" lon="8.75654"><ele>294.0</ele><time>2026-05-03T11:46:55.831Z</time></trkpt><trkpt lat="45.9030767" lon="8.7563983"><ele>294.0</ele><time>2026-05-03T11:46:56.831Z</time></trkpt><trkpt lat="45.9030067" lon="8.756265"><ele>294.0</ele><time>2026-05-03T11:46:57.831Z</time></trkpt><trkpt lat="45.90292" lon="8.75615"><ele>294.0</ele><time>2026-05-03T11:46:58.831Z</time></trkpt><trkpt lat="45.9028283" lon="8.7560417"><ele>294.0</ele><time>2026-05-03T11:46:59.83Z</time></trkpt><trkpt lat="45.9027483" lon="8.7559317"><ele>294.0</ele><time>2026-05-03T11:47:00.831Z</time></trkpt><trkpt lat="45.9026833" lon="8.7558083"><ele>294.0</ele><time>2026-05-03T11:47:01.83Z</time></trkpt><trkpt lat="45.9026367" lon="8.7556633"><ele>294.0</ele><time>2026-05-03T11:47:02.831Z</time></trkpt><trkpt lat="45.9025933" lon="8.75551"><ele>294.0</ele><time>2026-05-03T11:47:03.83Z</time></trkpt><trkpt lat="45.9025367" lon="8.755355"><ele>293.75</ele><time>2026-05-03T11:47:04.831Z</time></trkpt><trkpt lat="45.9024783" lon="8.7552117"><ele>293.5</ele><time>2026-05-03T11:47:05.831Z</time></trkpt><trkpt lat="45.9024317" lon="8.7550733"><ele>293.25</ele><time>2026-05-03T11:47:06.83Z</time></trkpt><trkpt lat="45.9023817" lon="8.7549167"><ele>293.0</ele><time>2026-05-03T11:47:07.831Z</time></trkpt><trkpt lat="45.9023433" lon="8.7547517"><ele>293.5</ele><time>2026-05-03T11:47:08.831Z</time></trkpt><trkpt lat="45.902315" lon="8.754575"><ele>294.0</ele><time>2026-05-03T11:47:09.83Z</time></trkpt><trkpt lat="45.9022883" lon="8.75439"><ele>294.5</ele><time>2026-05-03T11:47:10.83Z</time></trkpt><trkpt lat="45.9022633" lon="8.7542283"><ele>295.0</ele><time>2026-05-03T11:47:11.83Z</time></trkpt><trkpt lat="45.9022333" lon="8.7540783"><ele>295.2</ele><time>2026-05-03T11:47:12.831Z</time></trkpt><trkpt lat="45.902195" lon="8.7539583"><ele>295.4</ele><time>2026-05-03T11:47:13.83Z</time></trkpt><trkpt lat="45.9021467" lon="8.7538433"><ele>295.6</ele><time>2026-05-03T11:47:14.831Z</time></trkpt><trkpt lat="45.9020733" lon="8.753745"><ele>295.8</ele><time>2026-05-03T11:47:15.83Z</time></trkpt><trkpt lat="45.9019883" lon="8.75365"><ele>296.0</ele><time>2026-05-03T11:47:16.831Z</time></trkpt><trkpt lat="45.9019" lon="8.7535633"><ele>296.0</ele><time>2026-05-03T11:47:17.83Z</time></trkpt><trkpt lat="45.9018017" lon="8.7535117"><ele>296.0</ele><time>2026-05-03T11:47:18.831Z</time></trkpt><trkpt lat="45.9016817" lon="8.7534717"><ele>296.0</ele><time>2026-05-03T11:47:19.831Z</time></trkpt><trkpt lat="45.901545" lon="8.7534567"><ele>296.0</ele><time>2026-05-03T11:47:20.831Z</time></trkpt><trkpt lat="45.90141" lon="8.7534417"><ele>295.25</ele><time>2026-05-03T11:47:21.831Z</time></trkpt><trkpt lat="45.9012817" lon="8.7534017"><ele>294.5</ele><time>2026-05-03T11:47:22.83Z</time></trkpt><trkpt lat="45.9011583" lon="8.75332"><ele>293.75</ele><time>2026-05-03T11:47:23.831Z</time></trkpt><trkpt lat="45.90104" lon="8.753195"><ele>293.0</ele><time>2026-05-03T11:47:24.831Z</time></trkpt><trkpt lat="45.9009133" lon="8.7530283"><ele>293.0</ele><time>2026-05-03T11:47:25.831Z</time></trkpt><trkpt lat="45.9008117" lon="8.7528433"><ele>293.0</ele><time>2026-05-03T11:47:26.83Z</time></trkpt><trkpt lat="45.9007233" lon="8.752665"><ele>293.0</ele><time>2026-05-03T11:47:27.83Z</time></trkpt><trkpt lat="45.900655" lon="8.7525067"><ele>293.0</ele><time>2026-05-03T11:47:28.831Z</time></trkpt><trkpt lat="45.90059" lon="8.7523617"><ele>293.0</ele><time>2026-05-03T11:47:29.831Z</time></trkpt><trkpt lat="45.900515" lon="8.752235"><ele>293.0</ele><time>2026-05-03T11:47:30.83Z</time></trkpt><trkpt lat="45.900425" lon="8.752115"><ele>293.0</ele><time>2026-05-03T11:47:31.831Z</time></trkpt><trkpt lat="45.9003417" lon="8.7520083"><ele>293.0</ele><time>2026-05-03T11:47:32.83Z</time></trkpt><trkpt lat="45.90026" lon="8.7518983"><ele>292.5</ele><time>2026-05-03T11:47:33.831Z</time></trkpt><trkpt lat="45.9002033" lon="8.7517617"><ele>292.0</ele><time>2026-05-03T11:47:34.831Z</time></trkpt><trkpt lat="45.9001483" lon="8.7515933"><ele>291.5</ele><time>2026-05-03T11:47:35.831Z</time></trkpt><trkpt lat="45.9000833" lon="8.7513933"><ele>291.0</ele><time>2026-05-03T11:47:36.831Z</time></trkpt><trkpt lat="45.9000267" lon="8.7511917"><ele>292.25</ele><time>2026-05-03T11:47:37.831Z</time></trkpt><trkpt lat="45.8999733" lon="8.751015"><ele>293.5</ele><time>2026-05-03T11:47:38.831Z</time></trkpt><trkpt lat="45.899925" lon="8.7508483"><ele>294.75</ele><time>2026-05-03T11:47:39.831Z</time></trkpt><trkpt lat="45.8998733" lon="8.7507017"><ele>296.0</ele><time>2026-05-03T11:47:40.83Z</time></trkpt><trkpt lat="45.8998" lon="8.7505683"><ele>296.0</ele><time>2026-05-03T11:47:41.831Z</time></trkpt><trkpt lat="45.8997167" lon="8.7504367"><ele>296.0</ele><time>2026-05-03T11:47:42.831Z</time></trkpt><trkpt lat="45.8996383" lon="8.7503117"><ele>296.0</ele><time>2026-05-03T11:47:43.831Z</time></trkpt><trkpt lat="45.8995783" lon="8.7501983"><ele>296.0</ele><time>2026-05-03T11:47:44.831Z</time></trkpt><trkpt lat="45.8995317" lon="8.7500717"><ele>296.0</ele><time>2026-05-03T11:47:45.831Z</time></trkpt><trkpt lat="45.8994817" lon="8.7499133"><ele>294.75</ele><time>2026-05-03T11:47:46.831Z</time></trkpt><trkpt lat="45.8994217" lon="8.74974"><ele>293.5</ele><time>2026-05-03T11:47:47.831Z</time></trkpt><trkpt lat="45.89936" lon="8.74957"><ele>292.25</ele><time>2026-05-03T11:47:48.831Z</time></trkpt><trkpt lat="45.89931" lon="8.7494183"><ele>291.0</ele><time>2026-05-03T11:47:49.83Z</time></trkpt><trkpt lat="45.8992817" lon="8.74928"><ele>290.0</ele><time>2026-05-03T11:47:50.831Z</time></trkpt><trkpt lat="45.8992633" lon="8.7491167"><ele>289.0</ele><time>2026-05-03T11:47:51.831Z</time></trkpt><trkpt lat="45.8992533" lon="8.74894"><ele>288.0</ele><time>2026-05-03T11:47:52.831Z</time></trkpt><trkpt lat="45.899255" lon="8.74872"><ele>287.0</ele><time>2026-05-03T11:47:53.83Z</time></trkpt><trkpt lat="45.8992767" lon="8.7484767"><ele>287.0</ele><time>2026-05-03T11:47:54.831Z</time></trkpt><trkpt lat="45.8993067" lon="8.74825"><ele>287.0</ele><time>2026-05-03T11:47:55.831Z</time></trkpt><trkpt lat="45.89934" lon="8.7480467"><ele>287.0</ele><time>2026-05-03T11:47:56.83Z</time></trkpt><trkpt lat="45.8993567" lon="8.7478533"><ele>287.0</ele><time>2026-05-03T11:47:57.831Z</time></trkpt><trkpt lat="45.89936" lon="8.7476733"><ele>287.0</ele><time>2026-05-03T11:47:58.831Z</time></trkpt><trkpt lat="45.8993567" lon="8.7474983"><ele>287.0</ele><time>2026-05-03T11:47:59.83Z</time></trkpt><trkpt lat="45.89933" lon="8.7473067"><ele>287.0</ele><time>2026-05-03T11:48:00.831Z</time></trkpt><trkpt lat="45.8992867" lon="8.747105"><ele>287.0</ele><time>2026-05-03T11:48:01.831Z</time></trkpt><trkpt lat="45.8992567" lon="8.74689"><ele>287.0</ele><time>2026-05-03T11:48:02.83Z</time></trkpt><trkpt lat="45.899235" lon="8.7466667"><ele>287.0</ele><time>2026-05-03T11:48:03.831Z</time></trkpt><trkpt lat="45.899245" lon="8.7464467"><ele>287.0</ele><time>2026-05-03T11:48:04.831Z</time></trkpt><trkpt lat="45.8992667" lon="8.7462317"><ele>287.0</ele><time>2026-05-03T11:48:05.831Z</time></trkpt><trkpt lat="45.8992817" lon="8.7460267"><ele>287.0</ele><time>2026-05-03T11:48:06.831Z</time></trkpt><trkpt lat="45.8992983" lon="8.7458483"><ele>287.0</ele><time>2026-05-03T11:48:07.831Z</time></trkpt><trkpt lat="45.8993117" lon="8.74568"><ele>287.0</ele><time>2026-05-03T11:48:08.831Z</time></trkpt><trkpt lat="45.8993167" lon="8.7455117"><ele>287.0</ele><time>2026-05-03T11:48:09.831Z</time></trkpt><trkpt lat="45.8993033" lon="8.7453317"><ele>287.0</ele><time>2026-05-03T11:48:10.831Z</time></trkpt><trkpt lat="45.8992983" lon="8.74516"><ele>287.0</ele><time>2026-05-03T11:48:11.831Z</time></trkpt><trkpt lat="45.8992967" lon="8.7449783"><ele>287.0</ele><time>2026-05-03T11:48:12.831Z</time></trkpt><trkpt lat="45.899275" lon="8.744815"><ele>285.6666666666667</ele><time>2026-05-03T11:48:13.831Z</time></trkpt><trkpt lat="45.8992867" lon="8.7445983"><ele>284.3333333333333</ele><time>2026-05-03T11:48:14.831Z</time></trkpt><trkpt lat="45.89928" lon="8.7443733"><ele>283.0</ele><time>2026-05-03T11:48:15.831Z</time></trkpt><trkpt lat="45.8992783" lon="8.7441"><ele>282.0</ele><time>2026-05-03T11:48:16.831Z</time></trkpt><trkpt lat="45.899275" lon="8.7438367"><ele>281.0</ele><time>2026-05-03T11:48:17.83Z</time></trkpt><trkpt lat="45.8992633" lon="8.7435917"><ele>280.0</ele><time>2026-05-03T11:48:18.83Z</time></trkpt><trkpt lat="45.899255" lon="8.74336"><ele>283.5</ele><time>2026-05-03T11:48:19.83Z</time></trkpt><trkpt lat="45.89925" lon="8.7431417"><ele>287.0</ele><time>2026-05-03T11:48:20.829Z</time></trkpt><trkpt lat="45.8992467" lon="8.7429367"><ele>290.5</ele><time>2026-05-03T11:48:21.829Z</time></trkpt><trkpt lat="45.899235" lon="8.7427383"><ele>294.0</ele><time>2026-05-03T11:48:22.83Z</time></trkpt><trkpt lat="45.8992" lon="8.7425467"><ele>294.0</ele><time>2026-05-03T11:48:23.83Z</time></trkpt><trkpt lat="45.8991567" lon="8.74234"><ele>294.0</ele><time>2026-05-03T11:48:24.83Z</time></trkpt><trkpt lat="45.8991017" lon="8.7421383"><ele>294.0</ele><time>2026-05-03T11:48:25.83Z</time></trkpt><trkpt lat="45.8990533" lon="8.7419483"><ele>294.0</ele><time>2026-05-03T11:48:26.83Z</time></trkpt><trkpt lat="45.8990333" lon="8.741775"><ele>292.5</ele><time>2026-05-03T11:48:27.829Z</time></trkpt><trkpt lat="45.89906" lon="8.7416117"><ele>291.0</ele><time>2026-05-03T11:48:28.83Z</time></trkpt><trkpt lat="45.89909" lon="8.7414467"><ele>289.5</ele><time>2026-05-03T11:48:29.83Z</time></trkpt><trkpt lat="45.8991333" lon="8.74128"><ele>288.0</ele><time>2026-05-03T11:48:30.83Z</time></trkpt><trkpt lat="45.8991883" lon="8.7411133"><ele>287.75</ele><time>2026-05-03T11:48:31.83Z</time></trkpt><trkpt lat="45.899245" lon="8.74095"><ele>287.5</ele><time>2026-05-03T11:48:32.83Z</time></trkpt><trkpt lat="45.8992967" lon="8.7408"><ele>287.25</ele><time>2026-05-03T11:48:33.83Z</time></trkpt><trkpt lat="45.8993317" lon="8.7406483"><ele>287.0</ele><time>2026-05-03T11:48:34.83Z</time></trkpt><trkpt lat="45.899355" lon="8.7404717"><ele>284.6666666666667</ele><time>2026-05-03T11:48:35.83Z</time></trkpt><trkpt lat="45.8993533" lon="8.7402767"><ele>282.3333333333333</ele><time>2026-05-03T11:48:36.83Z</time></trkpt><trkpt lat="45.8993483" lon="8.7400533"><ele>280.0</ele><time>2026-05-03T11:48:37.83Z</time></trkpt><trkpt lat="45.8993417" lon="8.7398133"><ele>279.66666666666663</ele><time>2026-05-03T11:48:38.83Z</time></trkpt><trkpt lat="45.899335" lon="8.739585"><ele>279.3333333333333</ele><time>2026-05-03T11:48:39.83Z</time></trkpt><trkpt lat="45.899325" lon="8.7393733"><ele>279.0</ele><time>2026-05-03T11:48:40.83Z</time></trkpt><trkpt lat="45.89932" lon="8.7391567"><ele>278.75</ele><time>2026-05-03T11:48:41.829Z</time></trkpt><trkpt lat="45.8993183" lon="8.7389567"><ele>278.5</ele><time>2026-05-03T11:48:42.83Z</time></trkpt><trkpt lat="45.8993083" lon="8.73878"><ele>278.25</ele><time>2026-05-03T11:48:43.83Z</time></trkpt><trkpt lat="45.8993067" lon="8.73861"><ele>278.0</ele><time>2026-05-03T11:48:44.83Z</time></trkpt><trkpt lat="45.8993083" lon="8.73844"><ele>278.0</ele><time>2026-05-03T11:48:45.83Z</time></trkpt><trkpt lat="45.8993083" lon="8.7382867"><ele>278.0</ele><time>2026-05-03T11:48:46.83Z</time></trkpt><trkpt lat="45.8993083" lon="8.7381583"><ele>278.0</ele><time>2026-05-03T11:48:47.829Z</time></trkpt><trkpt lat="45.8993" lon="8.7380567"><ele>278.0</ele><time>2026-05-03T11:48:48.83Z</time></trkpt><trkpt lat="45.8992733" lon="8.73797"><ele>278.0</ele><time>2026-05-03T11:48:49.83Z</time></trkpt><trkpt lat="45.8991633" lon="8.7378983"><ele>278.5</ele><time>2026-05-03T11:48:51.83Z</time></trkpt><trkpt lat="45.899085" lon="8.737915"><ele>279.0</ele><time>2026-05-03T11:48:52.83Z</time></trkpt><trkpt lat="45.8990017" lon="8.7379433"><ele>279.5</ele><time>2026-05-03T11:48:53.829Z</time></trkpt><trkpt lat="45.8989267" lon="8.7379517"><ele>280.0</ele><time>2026-05-03T11:48:54.829Z</time></trkpt><trkpt lat="45.8988233" lon="8.7378733"><ele>280.5</ele><time>2026-05-03T11:48:56.83Z</time></trkpt><trkpt lat="45.8987933" lon="8.7377617"><ele>281.0</ele><time>2026-05-03T11:48:57.829Z</time></trkpt><trkpt lat="45.8987667" lon="8.737615"><ele>281.0</ele><time>2026-05-03T11:48:58.83Z</time></trkpt><trkpt lat="45.89874" lon="8.73745"><ele>281.0</ele><time>2026-05-03T11:48:59.83Z</time></trkpt><trkpt lat="45.8987117" lon="8.73728"><ele>281.0</ele><time>2026-05-03T11:49:00.83Z</time></trkpt><trkpt lat="45.8986817" lon="8.73712"><ele>281.0</ele><time>2026-05-03T11:49:01.83Z</time></trkpt><trkpt lat="45.8986533" lon="8.736975"><ele>281.0</ele><time>2026-05-03T11:49:02.83Z</time></trkpt><trkpt lat="45.8986183" lon="8.736835"><ele>281.0</ele><time>2026-05-03T11:49:03.83Z</time></trkpt><trkpt lat="45.8985883" lon="8.736695"><ele>281.0</ele><time>2026-05-03T11:49:04.83Z</time></trkpt><trkpt lat="45.8985633" lon="8.7365483"><ele>281.0</ele><time>2026-05-03T11:49:05.83Z</time></trkpt><trkpt lat="45.89854" lon="8.7364183"><ele>281.0</ele><time>2026-05-03T11:49:06.829Z</time></trkpt><trkpt lat="45.8985233" lon="8.7362983"><ele>281.0</ele><time>2026-05-03T11:49:07.829Z</time></trkpt><trkpt lat="45.8984917" lon="8.73619"><ele>281.0</ele><time>2026-05-03T11:49:08.83Z</time></trkpt><trkpt lat="45.8984467" lon="8.7361033"><ele>281.0</ele><time>2026-05-03T11:49:09.83Z</time></trkpt><trkpt lat="45.89838" lon="8.7360483"><ele>281.0</ele><time>2026-05-03T11:49:10.829Z</time></trkpt><trkpt lat="45.8983" lon="8.7360217"><ele>281.0</ele><time>2026-05-03T11:49:11.829Z</time></trkpt><trkpt lat="45.8982067" lon="8.73602"><ele>281.0</ele><time>2026-05-03T11:49:12.829Z</time></trkpt><trkpt lat="45.8981083" lon="8.736015"><ele>281.40000000000003</ele><time>2026-05-03T11:49:13.83Z</time></trkpt><trkpt lat="45.8980017" lon="8.736005"><ele>281.8</ele><time>2026-05-03T11:49:14.83Z</time></trkpt><trkpt lat="45.8979017" lon="8.7359833"><ele>282.20000000000005</ele><time>2026-05-03T11:49:15.83Z</time></trkpt><trkpt lat="45.897815" lon="8.7359517"><ele>282.6</ele><time>2026-05-03T11:49:16.83Z</time></trkpt><trkpt lat="45.8977417" lon="8.7359067"><ele>283.0</ele><time>2026-05-03T11:49:17.83Z</time></trkpt><trkpt lat="45.8976767" lon="8.735835"><ele>283.0</ele><time>2026-05-03T11:49:18.829Z</time></trkpt><trkpt lat="45.8976317" lon="8.7357333"><ele>283.0</ele><time>2026-05-03T11:49:19.83Z</time></trkpt><trkpt lat="45.8975933" lon="8.7355867"><ele>283.0</ele><time>2026-05-03T11:49:20.83Z</time></trkpt><trkpt lat="45.89755" lon="8.7353933"><ele>283.0</ele><time>2026-05-03T11:49:21.83Z</time></trkpt><trkpt lat="45.89751" lon="8.7351917"><ele>284.25</ele><time>2026-05-03T11:49:22.829Z</time></trkpt><trkpt lat="45.8974517" lon="8.7349867"><ele>285.5</ele><time>2026-05-03T11:49:23.829Z</time></trkpt><trkpt lat="45.8973967" lon="8.7347883"><ele>286.75</ele><time>2026-05-03T11:49:24.829Z</time></trkpt><trkpt lat="45.8973533" lon="8.73461"><ele>288.0</ele><time>2026-05-03T11:49:25.83Z</time></trkpt><trkpt lat="45.8973183" lon="8.73447"><ele>288.14285714285717</ele><time>2026-05-03T11:49:26.83Z</time></trkpt><trkpt lat="45.8972883" lon="8.7343583"><ele>288.2857142857143</ele><time>2026-05-03T11:49:27.83Z</time></trkpt><trkpt lat="45.8972767" lon="8.7342617"><ele>288.42857142857144</ele><time>2026-05-03T11:49:28.829Z</time></trkpt><trkpt lat="45.8973133" lon="8.73414"><ele>288.57142857142856</ele><time>2026-05-03T11:49:30.83Z</time></trkpt><trkpt lat="45.8973767" lon="8.7341167"><ele>288.7142857142857</ele><time>2026-05-03T11:49:31.83Z</time></trkpt><trkpt lat="45.89745" lon="8.7340983"><ele>288.8571428571429</ele><time>2026-05-03T11:49:32.83Z</time></trkpt><trkpt lat="45.89751" lon="8.7340667"><ele>289.0</ele><time>2026-05-03T11:49:33.829Z</time></trkpt><trkpt lat="45.89756" lon="8.7340117"><ele>289.0</ele><time>2026-05-03T11:49:35.829Z</time></trkpt><trkpt lat="45.8975567" lon="8.7338717"><ele>289.0</ele><time>2026-05-03T11:49:37.83Z</time></trkpt><trkpt lat="45.8975133" lon="8.7337483"><ele>289.0</ele><time>2026-05-03T11:49:38.83Z</time></trkpt><trkpt lat="45.8974533" lon="8.7335983"><ele>289.0</ele><time>2026-05-03T11:49:39.83Z</time></trkpt><trkpt lat="45.89739" lon="8.7334283"><ele>289.0</ele><time>2026-05-03T11:49:40.829Z</time></trkpt><trkpt lat="45.8973183" lon="8.7332433"><ele>288.66666666666663</ele><time>2026-05-03T11:49:41.83Z</time></trkpt><trkpt lat="45.8972383" lon="8.733035"><ele>288.3333333333333</ele><time>2026-05-03T11:49:42.829Z</time></trkpt><trkpt lat="45.8971533" lon="8.7328383"><ele>288.0</ele><time>2026-05-03T11:49:43.83Z</time></trkpt><trkpt lat="45.89708" lon="8.7326467"><ele>288.0</ele><time>2026-05-03T11:49:44.829Z</time></trkpt><trkpt lat="45.89701" lon="8.7324567"><ele>288.0</ele><time>2026-05-03T11:49:45.829Z</time></trkpt><trkpt lat="45.8969383" lon="8.7322667"><ele>288.0</ele><time>2026-05-03T11:49:46.83Z</time></trkpt><trkpt lat="45.896865" lon="8.7320817"><ele>288.0</ele><time>2026-05-03T11:49:47.83Z</time></trkpt><trkpt lat="45.8968067" lon="8.731895"><ele>289.25</ele><time>2026-05-03T11:49:48.83Z</time></trkpt><trkpt lat="45.8967433" lon="8.73171"><ele>290.5</ele><time>2026-05-03T11:49:49.83Z</time></trkpt><trkpt lat="45.8966883" lon="8.73153"><ele>291.75</ele><time>2026-05-03T11:49:50.83Z</time></trkpt><trkpt lat="45.8966317" lon="8.73133"><ele>293.0</ele><time>2026-05-03T11:49:51.829Z</time></trkpt><trkpt lat="45.89658" lon="8.731125"><ele>292.5</ele><time>2026-05-03T11:49:52.83Z</time></trkpt><trkpt lat="45.8965217" lon="8.730935"><ele>292.0</ele><time>2026-05-03T11:49:53.83Z</time></trkpt><trkpt lat="45.8964683" lon="8.7307517"><ele>291.5</ele><time>2026-05-03T11:49:54.83Z</time></trkpt><trkpt lat="45.8964117" lon="8.7305617"><ele>291.0</ele><time>2026-05-03T11:49:55.83Z</time></trkpt><trkpt lat="45.8963633" lon="8.7303767"><ele>290.5</ele><time>2026-05-03T11:49:56.83Z</time></trkpt><trkpt lat="45.8963117" lon="8.7301917"><ele>290.0</ele><time>2026-05-03T11:49:57.83Z</time></trkpt><trkpt lat="45.8962567" lon="8.730005"><ele>289.5</ele><time>2026-05-03T11:49:58.83Z</time></trkpt><trkpt lat="45.8962067" lon="8.7298283"><ele>289.0</ele><time>2026-05-03T11:49:59.829Z</time></trkpt><trkpt lat="45.8961567" lon="8.72965"><ele>289.0</ele><time>2026-05-03T11:50:00.83Z</time></trkpt><trkpt lat="45.896105" lon="8.7294733"><ele>289.0</ele><time>2026-05-03T11:50:01.83Z</time></trkpt><trkpt lat="45.896055" lon="8.7292883"><ele>289.0</ele><time>2026-05-03T11:50:02.83Z</time></trkpt><trkpt lat="45.896" lon="8.7291033"><ele>289.0</ele><time>2026-05-03T11:50:03.83Z</time></trkpt><trkpt lat="45.8959333" lon="8.728925"><ele>289.66666666666663</ele><time>2026-05-03T11:50:04.83Z</time></trkpt><trkpt lat="45.8958367" lon="8.7287517"><ele>290.3333333333333</ele><time>2026-05-03T11:50:05.829Z</time></trkpt><trkpt lat="45.8957217" lon="8.7285833"><ele>291.0</ele><time>2026-05-03T11:50:06.829Z</time></trkpt><trkpt lat="45.8956" lon="8.7284167"><ele>291.3333333333333</ele><time>2026-05-03T11:50:07.829Z</time></trkpt><trkpt lat="45.89547" lon="8.7282717"><ele>291.66666666666663</ele><time>2026-05-03T11:50:08.83Z</time></trkpt><trkpt lat="45.8953367" lon="8.7281367"><ele>292.0</ele><time>2026-05-03T11:50:09.83Z</time></trkpt><trkpt lat="45.8952083" lon="8.7279933"><ele>291.66666666666663</ele><time>2026-05-03T11:50:10.829Z</time></trkpt><trkpt lat="45.8950817" lon="8.7278583"><ele>291.3333333333333</ele><time>2026-05-03T11:50:11.83Z</time></trkpt><trkpt lat="45.8949617" lon="8.727725"><ele>291.0</ele><time>2026-05-03T11:50:12.83Z</time></trkpt><trkpt lat="45.8948283" lon="8.7276"><ele>291.0</ele><time>2026-05-03T11:50:13.83Z</time></trkpt><trkpt lat="45.8946967" lon="8.7274833"><ele>291.0</ele><time>2026-05-03T11:50:14.83Z</time></trkpt><trkpt lat="45.8945867" lon="8.727375"><ele>291.0</ele><time>2026-05-03T11:50:15.829Z</time></trkpt><trkpt lat="45.8944967" lon="8.7272517"><ele>291.0</ele><time>2026-05-03T11:50:16.83Z</time></trkpt><trkpt lat="45.8944267" lon="8.7270983"><ele>291.0</ele><time>2026-05-03T11:50:17.83Z</time></trkpt><trkpt lat="45.8943683" lon="8.7269267"><ele>291.0</ele><time>2026-05-03T11:50:18.83Z</time></trkpt><trkpt lat="45.8943233" lon="8.7267533"><ele>291.0</ele><time>2026-05-03T11:50:19.829Z</time></trkpt><trkpt lat="45.8942783" lon="8.72659"><ele>291.0</ele><time>2026-05-03T11:50:20.829Z</time></trkpt><trkpt lat="45.8942433" lon="8.7264483"><ele>293.6666666666667</ele><time>2026-05-03T11:50:21.83Z</time></trkpt><trkpt lat="45.8942067" lon="8.7263183"><ele>296.3333333333333</ele><time>2026-05-03T11:50:22.83Z</time></trkpt><trkpt lat="45.894165" lon="8.7262083"><ele>299.0</ele><time>2026-05-03T11:50:23.83Z</time></trkpt><trkpt lat="45.8941333" lon="8.7261083"><ele>301.66666666666663</ele><time>2026-05-03T11:50:24.829Z</time></trkpt><trkpt lat="45.894105" lon="8.726005"><ele>304.3333333333333</ele><time>2026-05-03T11:50:25.83Z</time></trkpt><trkpt lat="45.8940883" lon="8.7259167"><ele>307.0</ele><time>2026-05-03T11:50:26.829Z</time></trkpt><trkpt lat="45.8940983" lon="8.7257483"><ele>307.0</ele><time>2026-05-03T11:50:28.83Z</time></trkpt><trkpt lat="45.894105" lon="8.7256567"><ele>307.0</ele><time>2026-05-03T11:50:29.83Z</time></trkpt><trkpt lat="45.8941117" lon="8.7255517"><ele>307.0</ele><time>2026-05-03T11:50:30.83Z</time></trkpt><trkpt lat="45.894115" lon="8.7254383"><ele>307.0</ele><time>2026-05-03T11:50:31.83Z</time></trkpt><trkpt lat="45.8941233" lon="8.7253183"><ele>307.0</ele><time>2026-05-03T11:50:32.83Z</time></trkpt><trkpt lat="45.8941217" lon="8.725195"><ele>307.0</ele><time>2026-05-03T11:50:33.83Z</time></trkpt><trkpt lat="45.8941217" lon="8.7250867"><ele>305.8333333333333</ele><time>2026-05-03T11:50:34.83Z</time></trkpt><trkpt lat="45.8941133" lon="8.7249917"><ele>304.66666666666663</ele><time>2026-05-03T11:50:35.83Z</time></trkpt><trkpt lat="45.8941133" lon="8.7248983"><ele>303.5</ele><time>2026-05-03T11:50:36.829Z</time></trkpt><trkpt lat="45.8941067" lon="8.7248083"><ele>302.3333333333333</ele><time>2026-05-03T11:50:37.83Z</time></trkpt><trkpt lat="45.8941" lon="8.7247067"><ele>301.1666666666667</ele><time>2026-05-03T11:50:38.829Z</time></trkpt><trkpt lat="45.8940683" lon="8.7245167"><ele>300.0</ele><time>2026-05-03T11:50:40.829Z</time></trkpt><trkpt lat="45.8940467" lon="8.72442"><ele>298.4</ele><time>2026-05-03T11:50:41.829Z</time></trkpt><trkpt lat="45.8940267" lon="8.7243117"><ele>296.8</ele><time>2026-05-03T11:50:42.829Z</time></trkpt><trkpt lat="45.894" lon="8.7241883"><ele>295.2</ele><time>2026-05-03T11:50:43.829Z</time></trkpt><trkpt lat="45.8939717" lon="8.7240517"><ele>293.6</ele><time>2026-05-03T11:50:44.83Z</time></trkpt><trkpt lat="45.8939433" lon="8.7238883"><ele>292.0</ele><time>2026-05-03T11:50:45.83Z</time></trkpt><trkpt lat="45.8939167" lon="8.7237117"><ele>291.0</ele><time>2026-05-03T11:50:46.829Z</time></trkpt><trkpt lat="45.8939" lon="8.72352"><ele>290.0</ele><time>2026-05-03T11:50:47.829Z</time></trkpt><trkpt lat="45.893885" lon="8.7233217"><ele>289.0</ele><time>2026-05-03T11:50:48.829Z</time></trkpt><trkpt lat="45.893875" lon="8.72315"><ele>288.0</ele><time>2026-05-03T11:50:49.829Z</time></trkpt><trkpt lat="45.893875" lon="8.722985"><ele>288.0</ele><time>2026-05-03T11:50:50.829Z</time></trkpt><trkpt lat="45.8938633" lon="8.7228283"><ele>288.0</ele><time>2026-05-03T11:50:51.83Z</time></trkpt><trkpt lat="45.8938583" lon="8.7226817"><ele>288.0</ele><time>2026-05-03T11:50:52.83Z</time></trkpt><trkpt lat="45.8938567" lon="8.7225383"><ele>288.0</ele><time>2026-05-03T11:50:53.829Z</time></trkpt><trkpt lat="45.8938467" lon="8.722395"><ele>288.0</ele><time>2026-05-03T11:50:54.83Z</time></trkpt><trkpt lat="45.89384" lon="8.7222333"><ele>288.0</ele><time>2026-05-03T11:50:55.83Z</time></trkpt><trkpt lat="45.8938367" lon="8.7220583"><ele>288.0</ele><time>2026-05-03T11:50:56.83Z</time></trkpt><trkpt lat="45.893825" lon="8.7218717"><ele>288.0</ele><time>2026-05-03T11:50:57.83Z</time></trkpt><trkpt lat="45.893825" lon="8.7216783"><ele>288.0</ele><time>2026-05-03T11:50:58.829Z</time></trkpt><trkpt lat="45.8938183" lon="8.7214933"><ele>286.8</ele><time>2026-05-03T11:50:59.829Z</time></trkpt><trkpt lat="45.8938" lon="8.7213167"><ele>285.6</ele><time>2026-05-03T11:51:00.829Z</time></trkpt><trkpt lat="45.89379" lon="8.7211633"><ele>284.4</ele><time>2026-05-03T11:51:01.83Z</time></trkpt><trkpt lat="45.8937867" lon="8.7210167"><ele>283.2</ele><time>2026-05-03T11:51:02.83Z</time></trkpt><trkpt lat="45.89378" lon="8.7208533"><ele>282.0</ele><time>2026-05-03T11:51:03.83Z</time></trkpt><trkpt lat="45.8937783" lon="8.7206783"><ele>281.25</ele><time>2026-05-03T11:51:04.83Z</time></trkpt><trkpt lat="45.89378" lon="8.7204917"><ele>280.5</ele><time>2026-05-03T11:51:05.829Z</time></trkpt><trkpt lat="45.893775" lon="8.7203083"><ele>279.75</ele><time>2026-05-03T11:51:06.83Z</time></trkpt><trkpt lat="45.89377" lon="8.720135"><ele>279.0</ele><time>2026-05-03T11:51:07.83Z</time></trkpt><trkpt lat="45.8937717" lon="8.7199533"><ele>278.0</ele><time>2026-05-03T11:51:08.83Z</time></trkpt><trkpt lat="45.8937833" lon="8.719765"><ele>277.0</ele><time>2026-05-03T11:51:09.83Z</time></trkpt><trkpt lat="45.8937967" lon="8.7195917"><ele>276.0</ele><time>2026-05-03T11:51:10.83Z</time></trkpt><trkpt lat="45.8938183" lon="8.7194183"><ele>275.0</ele><time>2026-05-03T11:51:11.83Z</time></trkpt><trkpt lat="45.8938283" lon="8.7192717"><ele>274.8</ele><time>2026-05-03T11:51:12.83Z</time></trkpt><trkpt lat="45.8938383" lon="8.7191233"><ele>274.6</ele><time>2026-05-03T11:51:13.83Z</time></trkpt><trkpt lat="45.8938367" lon="8.7189617"><ele>274.4</ele><time>2026-05-03T11:51:14.83Z</time></trkpt><trkpt lat="45.8938217" lon="8.718795"><ele>274.2</ele><time>2026-05-03T11:51:15.83Z</time></trkpt><trkpt lat="45.8938" lon="8.7186317"><ele>274.0</ele><time>2026-05-03T11:51:16.83Z</time></trkpt><trkpt lat="45.8937767" lon="8.7184383"><ele>274.0</ele><time>2026-05-03T11:51:17.83Z</time></trkpt><trkpt lat="45.8937633" lon="8.7182583"><ele>274.0</ele><time>2026-05-03T11:51:18.83Z</time></trkpt><trkpt lat="45.893755" lon="8.7180833"><ele>274.0</ele><time>2026-05-03T11:51:19.83Z</time></trkpt><trkpt lat="45.893755" lon="8.7179333"><ele>274.0</ele><time>2026-05-03T11:51:20.829Z</time></trkpt><trkpt lat="45.8937533" lon="8.7177933"><ele>274.5</ele><time>2026-05-03T11:51:21.83Z</time></trkpt><trkpt lat="45.8937417" lon="8.7176767"><ele>275.0</ele><time>2026-05-03T11:51:22.83Z</time></trkpt><trkpt lat="45.8937233" lon="8.7175683"><ele>275.5</ele><time>2026-05-03T11:51:23.829Z</time></trkpt><trkpt lat="45.8936967" lon="8.7174567"><ele>276.0</ele><time>2026-05-03T11:51:24.83Z</time></trkpt><trkpt lat="45.8936733" lon="8.7173417"><ele>276.5</ele><time>2026-05-03T11:51:25.83Z</time></trkpt><trkpt lat="45.8936583" lon="8.7172067"><ele>277.0</ele><time>2026-05-03T11:51:26.83Z</time></trkpt><trkpt lat="45.8936533" lon="8.71704"><ele>277.5</ele><time>2026-05-03T11:51:27.83Z</time></trkpt><trkpt lat="45.89365" lon="8.71684"><ele>278.0</ele><time>2026-05-03T11:51:28.83Z</time></trkpt><trkpt lat="45.8936383" lon="8.716635"><ele>278.5</ele><time>2026-05-03T11:51:29.83Z</time></trkpt><trkpt lat="45.8936383" lon="8.71643"><ele>279.0</ele><time>2026-05-03T11:51:30.829Z</time></trkpt><trkpt lat="45.8936317" lon="8.716245"><ele>279.0</ele><time>2026-05-03T11:51:31.83Z</time></trkpt><trkpt lat="45.89363" lon="8.7160717"><ele>279.0</ele><time>2026-05-03T11:51:32.83Z</time></trkpt><trkpt lat="45.8936267" lon="8.71593"><ele>279.0</ele><time>2026-05-03T11:51:33.83Z</time></trkpt><trkpt lat="45.89363" lon="8.71581"><ele>279.0</ele><time>2026-05-03T11:51:34.829Z</time></trkpt><trkpt lat="45.8936317" lon="8.715705"><ele>279.0</ele><time>2026-05-03T11:51:35.829Z</time></trkpt><trkpt lat="45.8936567" lon="8.7156217"><ele>279.0</ele><time>2026-05-03T11:51:36.829Z</time></trkpt><trkpt lat="45.89369" lon="8.715535"><ele>280.25</ele><time>2026-05-03T11:51:37.83Z</time></trkpt><trkpt lat="45.8937383" lon="8.7154383"><ele>281.5</ele><time>2026-05-03T11:51:38.829Z</time></trkpt><trkpt lat="45.8938333" lon="8.7153267"><ele>282.75</ele><time>2026-05-03T11:51:39.83Z</time></trkpt><trkpt lat="45.893935" lon="8.7151967"><ele>284.0</ele><time>2026-05-03T11:51:40.83Z</time></trkpt><trkpt lat="45.8940167" lon="8.715075"><ele>283.75</ele><time>2026-05-03T11:51:41.83Z</time></trkpt><trkpt lat="45.8941017" lon="8.71495"><ele>283.5</ele><time>2026-05-03T11:51:42.829Z</time></trkpt><trkpt lat="45.894185" lon="8.71481"><ele>283.25</ele><time>2026-05-03T11:51:43.829Z</time></trkpt><trkpt lat="45.8942483" lon="8.7146767"><ele>283.0</ele><time>2026-05-03T11:51:44.83Z</time></trkpt><trkpt lat="45.8942967" lon="8.7145533"><ele>283.0</ele><time>2026-05-03T11:51:45.829Z</time></trkpt><trkpt lat="45.8943433" lon="8.7144383"><ele>283.0</ele><time>2026-05-03T11:51:46.83Z</time></trkpt><trkpt lat="45.89439" lon="8.7143183"><ele>283.0</ele><time>2026-05-03T11:51:47.83Z</time></trkpt><trkpt lat="45.8944417" lon="8.7141933"><ele>283.0</ele><time>2026-05-03T11:51:48.83Z</time></trkpt><trkpt lat="45.894485" lon="8.7140433"><ele>283.0</ele><time>2026-05-03T11:51:49.83Z</time></trkpt><trkpt lat="45.8945233" lon="8.7138783"><ele>282.75</ele><time>2026-05-03T11:51:50.829Z</time></trkpt><trkpt lat="45.8945567" lon="8.7137"><ele>282.5</ele><time>2026-05-03T11:51:51.83Z</time></trkpt><trkpt lat="45.8945917" lon="8.713505"><ele>282.25</ele><time>2026-05-03T11:51:52.83Z</time></trkpt><trkpt lat="45.8946283" lon="8.7133383"><ele>282.0</ele><time>2026-05-03T11:51:53.83Z</time></trkpt><trkpt lat="45.894665" lon="8.7131917"><ele>282.0</ele><time>2026-05-03T11:51:54.83Z</time></trkpt><trkpt lat="45.8947133" lon="8.7130467"><ele>282.0</ele><time>2026-05-03T11:51:55.83Z</time></trkpt><trkpt lat="45.8947733" lon="8.71289"><ele>282.0</ele><time>2026-05-03T11:51:56.83Z</time></trkpt><trkpt lat="45.8948367" lon="8.712735"><ele>282.0</ele><time>2026-05-03T11:51:57.83Z</time></trkpt><trkpt lat="45.894895" lon="8.7125967"><ele>283.25</ele><time>2026-05-03T11:51:58.83Z</time></trkpt><trkpt lat="45.8949433" lon="8.7124767"><ele>284.5</ele><time>2026-05-03T11:51:59.829Z</time></trkpt><trkpt lat="45.8949967" lon="8.7123417"><ele>285.75</ele><time>2026-05-03T11:52:00.83Z</time></trkpt><trkpt lat="45.8950617" lon="8.712195"><ele>287.0</ele><time>2026-05-03T11:52:01.83Z</time></trkpt><trkpt lat="45.8951367" lon="8.7120467"><ele>285.2</ele><time>2026-05-03T11:52:02.83Z</time></trkpt><trkpt lat="45.8951967" lon="8.7119133"><ele>283.4</ele><time>2026-05-03T11:52:03.83Z</time></trkpt><trkpt lat="45.895235" lon="8.7117817"><ele>281.6</ele><time>2026-05-03T11:52:04.83Z</time></trkpt><trkpt lat="45.89527" lon="8.711645"><ele>279.8</ele><time>2026-05-03T11:52:05.83Z</time></trkpt><trkpt lat="45.8952983" lon="8.7115067"><ele>278.0</ele><time>2026-05-03T11:52:06.829Z</time></trkpt><trkpt lat="45.8953133" lon="8.711375"><ele>278.0</ele><time>2026-05-03T11:52:07.83Z</time></trkpt><trkpt lat="45.8953033" lon="8.7112667"><ele>278.0</ele><time>2026-05-03T11:52:08.83Z</time></trkpt><trkpt lat="45.8952817" lon="8.7111733"><ele>278.0</ele><time>2026-05-03T11:52:09.83Z</time></trkpt><trkpt lat="45.8952283" lon="8.71104"><ele>278.0</ele><time>2026-05-03T11:52:11.83Z</time></trkpt><trkpt lat="45.8951617" lon="8.71084"><ele>278.0</ele><time>2026-05-03T11:53:20.829Z</time></trkpt><trkpt lat="45.89507" lon="8.7106783"><ele>279.4</ele><time>2026-05-03T11:53:22.83Z</time></trkpt><trkpt lat="45.8949917" lon="8.710575"><ele>280.8</ele><time>2026-05-03T11:53:23.829Z</time></trkpt><trkpt lat="45.8949117" lon="8.7104817"><ele>282.2</ele><time>2026-05-03T11:53:24.83Z</time></trkpt><trkpt lat="45.89484" lon="8.710395"><ele>283.6</ele><time>2026-05-03T11:53:25.83Z</time></trkpt><trkpt lat="45.8947817" lon="8.7103167"><ele>285.0</ele><time>2026-05-03T11:53:26.83Z</time></trkpt><trkpt lat="45.8947367" lon="8.7102367"><ele>285.3333333333333</ele><time>2026-05-03T11:53:27.83Z</time></trkpt><trkpt lat="45.89471" lon="8.71015"><ele>285.6666666666667</ele><time>2026-05-03T11:53:28.83Z</time></trkpt><trkpt lat="45.894705" lon="8.7100517"><ele>286.0</ele><time>2026-05-03T11:53:29.83Z</time></trkpt><trkpt lat="45.8947067" lon="8.7099383"><ele>286.33333333333337</ele><time>2026-05-03T11:53:30.829Z</time></trkpt><trkpt lat="45.89471" lon="8.7098333"><ele>286.6666666666667</ele><time>2026-05-03T11:53:31.829Z</time></trkpt><trkpt lat="45.894715" lon="8.7097"><ele>287.0</ele><time>2026-05-03T11:53:33.83Z</time></trkpt><trkpt lat="45.894655" lon="8.709615"><ele>287.0</ele><time>2026-05-03T11:53:36.83Z</time></trkpt><trkpt lat="45.8945833" lon="8.7095533"><ele>287.0</ele><time>2026-05-03T11:53:38.83Z</time></trkpt><trkpt lat="45.894525" lon="8.7095183"><ele>287.0</ele><time>2026-05-03T11:53:40.83Z</time></trkpt><trkpt lat="45.8944633" lon="8.70959"><ele>287.0</ele><time>2026-05-03T11:53:44.83Z</time></trkpt><trkpt lat="45.8944067" lon="8.7096883"><ele>287.0</ele><time>2026-05-03T11:53:46.83Z</time></trkpt><trkpt lat="45.89436" lon="8.7097717"><ele>287.0</ele><time>2026-05-03T11:53:47.83Z</time></trkpt><trkpt lat="45.89429" lon="8.7098567"><ele>290.2</ele><time>2026-05-03T11:53:48.83Z</time></trkpt><trkpt lat="45.8942233" lon="8.7099433"><ele>293.4</ele><time>2026-05-03T11:53:49.83Z</time></trkpt><trkpt lat="45.8941517" lon="8.71004"><ele>296.6</ele><time>2026-05-03T11:53:50.829Z</time></trkpt><trkpt lat="45.8940733" lon="8.7101467"><ele>299.8</ele><time>2026-05-03T11:53:51.83Z</time></trkpt><trkpt lat="45.893995" lon="8.710235"><ele>303.0</ele><time>2026-05-03T11:53:52.83Z</time></trkpt><trkpt lat="45.89391" lon="8.71032"><ele>303.0</ele><time>2026-05-03T11:53:53.83Z</time></trkpt><trkpt lat="45.8938117" lon="8.7104017"><ele>303.0</ele><time>2026-05-03T11:53:54.83Z</time></trkpt><trkpt lat="45.8937117" lon="8.7104867"><ele>303.0</ele><time>2026-05-03T11:53:55.83Z</time></trkpt><trkpt lat="45.8936083" lon="8.7105367"><ele>303.0</ele><time>2026-05-03T11:53:56.829Z</time></trkpt><trkpt lat="45.8935" lon="8.7105867"><ele>305.0</ele><time>2026-05-03T11:53:57.83Z</time></trkpt><trkpt lat="45.89341" lon="8.7106083"><ele>307.0</ele><time>2026-05-03T11:53:58.83Z</time></trkpt><trkpt lat="45.8933267" lon="8.7106267"><ele>309.0</ele><time>2026-05-03T11:53:59.83Z</time></trkpt><trkpt lat="45.8932383" lon="8.7106183"><ele>311.0</ele><time>2026-05-03T11:54:00.83Z</time></trkpt><trkpt lat="45.8931583" lon="8.7106017"><ele>313.0</ele><time>2026-05-03T11:54:01.829Z</time></trkpt><trkpt lat="45.8931" lon="8.7105667"><ele>315.0</ele><time>2026-05-03T11:54:02.829Z</time></trkpt><trkpt lat="45.8930417" lon="8.7105083"><ele>315.0</ele><time>2026-05-03T11:54:03.829Z</time></trkpt><trkpt lat="45.8929867" lon="8.7104333"><ele>315.0</ele><time>2026-05-03T11:54:04.83Z</time></trkpt><trkpt lat="45.8929383" lon="8.71035"><ele>315.0</ele><time>2026-05-03T11:54:05.829Z</time></trkpt><trkpt lat="45.8928967" lon="8.7102633"><ele>315.0</ele><time>2026-05-03T11:54:06.83Z</time></trkpt><trkpt lat="45.8928433" lon="8.7101917"><ele>315.0</ele><time>2026-05-03T11:54:07.83Z</time></trkpt><trkpt lat="45.89277" lon="8.7101367"><ele>315.0</ele><time>2026-05-03T11:54:08.83Z</time></trkpt><trkpt lat="45.8926917" lon="8.7100917"><ele>316.1666666666667</ele><time>2026-05-03T11:54:09.83Z</time></trkpt><trkpt lat="45.892615" lon="8.7100517"><ele>317.3333333333333</ele><time>2026-05-03T11:54:10.829Z</time></trkpt><trkpt lat="45.8925467" lon="8.7100217"><ele>318.5</ele><time>2026-05-03T11:54:11.83Z</time></trkpt><trkpt lat="45.892445" lon="8.7100167"><ele>319.66666666666663</ele><time>2026-05-03T11:54:13.83Z</time></trkpt><trkpt lat="45.892395" lon="8.71011"><ele>320.8333333333333</ele><time>2026-05-03T11:54:15.83Z</time></trkpt><trkpt lat="45.89237" lon="8.7102167"><ele>322.0</ele><time>2026-05-03T11:54:17.83Z</time></trkpt><trkpt lat="45.8923083" lon="8.7103567"><ele>322.0</ele><time>2026-05-03T11:54:19.83Z</time></trkpt><trkpt lat="45.8922567" lon="8.710415"><ele>322.0</ele><time>2026-05-03T11:54:20.83Z</time></trkpt><trkpt lat="45.8921883" lon="8.710455"><ele>322.0</ele><time>2026-05-03T11:54:21.83Z</time></trkpt><trkpt lat="45.89211" lon="8.7104867"><ele>322.0</ele><time>2026-05-03T11:54:22.829Z</time></trkpt><trkpt lat="45.8920183" lon="8.7105"><ele>322.0</ele><time>2026-05-03T11:54:23.83Z</time></trkpt><trkpt lat="45.8919117" lon="8.7104867"><ele>322.0</ele><time>2026-05-03T11:54:24.83Z</time></trkpt><trkpt lat="45.8918183" lon="8.71047"><ele>324.25</ele><time>2026-05-03T11:54:25.83Z</time></trkpt><trkpt lat="45.8917317" lon="8.7104333"><ele>326.5</ele><time>2026-05-03T11:54:26.829Z</time></trkpt><trkpt lat="45.891635" lon="8.7103667"><ele>328.75</ele><time>2026-05-03T11:54:27.83Z</time></trkpt><trkpt lat="45.8915167" lon="8.7102533"><ele>331.0</ele><time>2026-05-03T11:54:28.83Z</time></trkpt><trkpt lat="45.8914133" lon="8.7101583"><ele>334.20000000000005</ele><time>2026-05-03T11:54:29.83Z</time></trkpt><trkpt lat="45.8913267" lon="8.71006"><ele>337.40000000000003</ele><time>2026-05-03T11:54:30.83Z</time></trkpt><trkpt lat="45.89124" lon="8.7099767"><ele>340.6</ele><time>2026-05-03T11:54:31.83Z</time></trkpt><trkpt lat="45.891145" lon="8.7098967"><ele>343.8</ele><time>2026-05-03T11:54:32.83Z</time></trkpt><trkpt lat="45.891045" lon="8.709835"><ele>347.0</ele><time>2026-05-03T11:54:33.83Z</time></trkpt><trkpt lat="45.8909533" lon="8.7097817"><ele>346.8</ele><time>2026-05-03T11:54:34.83Z</time></trkpt><trkpt lat="45.890865" lon="8.7097383"><ele>346.6</ele><time>2026-05-03T11:54:35.83Z</time></trkpt><trkpt lat="45.8907917" lon="8.7096967"><ele>346.40000000000003</ele><time>2026-05-03T11:54:36.83Z</time></trkpt><trkpt lat="45.8907267" lon="8.7096417"><ele>346.20000000000005</ele><time>2026-05-03T11:54:37.829Z</time></trkpt><trkpt lat="45.8906617" lon="8.7095533"><ele>346.0</ele><time>2026-05-03T11:54:38.83Z</time></trkpt><trkpt lat="45.8905967" lon="8.7094183"><ele>353.66666666666663</ele><time>2026-05-03T11:54:39.829Z</time></trkpt><trkpt lat="45.8904833" lon="8.7092917"><ele>361.3333333333333</ele><time>2026-05-03T11:54:40.83Z</time></trkpt><trkpt lat="45.8903483" lon="8.7091683"><ele>369.0</ele><time>2026-05-03T11:54:41.829Z</time></trkpt><trkpt lat="45.89021" lon="8.7090567"><ele>364.75</ele><time>2026-05-03T11:54:42.83Z</time></trkpt><trkpt lat="45.8900783" lon="8.7089667"><ele>360.5</ele><time>2026-05-03T11:54:43.829Z</time></trkpt><trkpt lat="45.8899583" lon="8.708895"><ele>356.25</ele><time>2026-05-03T11:54:44.83Z</time></trkpt><trkpt lat="45.88986" lon="8.7088417"><ele>352.0</ele><time>2026-05-03T11:54:45.83Z</time></trkpt><trkpt lat="45.8897883" lon="8.7087483"><ele>352.0</ele><time>2026-05-03T11:54:46.83Z</time></trkpt><trkpt lat="45.8897117" lon="8.70864"><ele>352.0</ele><time>2026-05-03T11:54:47.83Z</time></trkpt><trkpt lat="45.889625" lon="8.7085317"><ele>352.0</ele><time>2026-05-03T11:54:48.83Z</time></trkpt><trkpt lat="45.88954" lon="8.70844"><ele>352.0</ele><time>2026-05-03T11:54:49.829Z</time></trkpt><trkpt lat="45.8894533" lon="8.7083833"><ele>352.0</ele><time>2026-05-03T11:54:50.83Z</time></trkpt><trkpt lat="45.8893733" lon="8.70835"><ele>354.3333333333333</ele><time>2026-05-03T11:54:51.83Z</time></trkpt><trkpt lat="45.889305" lon="8.708345"><ele>356.66666666666663</ele><time>2026-05-03T11:54:52.83Z</time></trkpt><trkpt lat="45.88924" lon="8.70835"><ele>359.0</ele><time>2026-05-03T11:54:53.83Z</time></trkpt><trkpt lat="45.889175" lon="8.7083467"><ele>361.3333333333333</ele><time>2026-05-03T11:54:54.829Z</time></trkpt><trkpt lat="45.88911" lon="8.708325"><ele>363.6666666666667</ele><time>2026-05-03T11:54:55.829Z</time></trkpt><trkpt lat="45.8890483" lon="8.708285"><ele>366.0</ele><time>2026-05-03T11:54:56.83Z</time></trkpt><trkpt lat="45.8889283" lon="8.7082267"><ele>366.0</ele><time>2026-05-03T11:54:58.829Z</time></trkpt><trkpt lat="45.88884" lon="8.7082367"><ele>366.0</ele><time>2026-05-03T11:54:59.829Z</time></trkpt><trkpt lat="45.8887283" lon="8.70826"><ele>366.0</ele><time>2026-05-03T11:55:00.83Z</time></trkpt><trkpt lat="45.8886183" lon="8.7083067"><ele>366.0</ele><time>2026-05-03T11:55:01.829Z</time></trkpt><trkpt lat="45.8885117" lon="8.708355"><ele>366.0</ele><time>2026-05-03T11:55:02.83Z</time></trkpt><trkpt lat="45.8884183" lon="8.7083983"><ele>365.4</ele><time>2026-05-03T11:55:03.829Z</time></trkpt><trkpt lat="45.8883417" lon="8.7084317"><ele>364.8</ele><time>2026-05-03T11:55:04.829Z</time></trkpt><trkpt lat="45.8882533" lon="8.70847"><ele>364.2</ele><time>2026-05-03T11:55:05.83Z</time></trkpt><trkpt lat="45.888155" lon="8.7085083"><ele>363.59999999999997</ele><time>2026-05-03T11:55:06.83Z</time></trkpt><trkpt lat="45.8880517" lon="8.7085533"><ele>363.0</ele><time>2026-05-03T11:55:07.83Z</time></trkpt><trkpt lat="45.887945" lon="8.7085867"><ele>363.0</ele><time>2026-05-03T11:55:08.83Z</time></trkpt><trkpt lat="45.8878367" lon="8.7086217"><ele>363.0</ele><time>2026-05-03T11:55:09.83Z</time></trkpt><trkpt lat="45.8876867" lon="8.7086233"><ele>363.0</ele><time>2026-05-03T11:55:10.829Z</time></trkpt><trkpt lat="45.88757" lon="8.7086033"><ele>363.0</ele><time>2026-05-03T11:55:11.83Z</time></trkpt><trkpt lat="45.8874767" lon="8.7085817"><ele>365.2</ele><time>2026-05-03T11:55:12.83Z</time></trkpt><trkpt lat="45.8873867" lon="8.7085683"><ele>367.4</ele><time>2026-05-03T11:55:13.83Z</time></trkpt><trkpt lat="45.887315" lon="8.7085733"><ele>369.59999999999997</ele><time>2026-05-03T11:55:14.83Z</time></trkpt><trkpt lat="45.887225" lon="8.7085533"><ele>371.79999999999995</ele><time>2026-05-03T11:55:16.829Z</time></trkpt><trkpt lat="45.8871733" lon="8.7083833"><ele>374.0</ele><time>2026-05-03T11:55:18.829Z</time></trkpt><trkpt lat="45.8871617" lon="8.70826"><ele>374.0</ele><time>2026-05-03T11:55:19.83Z</time></trkpt><trkpt lat="45.8871333" lon="8.7081483"><ele>374.0</ele><time>2026-05-03T11:55:20.83Z</time></trkpt><trkpt lat="45.8871117" lon="8.708035"><ele>374.0</ele><time>2026-05-03T11:55:21.83Z</time></trkpt><trkpt lat="45.8870817" lon="8.707925"><ele>374.0</ele><time>2026-05-03T11:55:22.829Z</time></trkpt><trkpt lat="45.8870517" lon="8.7078233"><ele>374.0</ele><time>2026-05-03T11:55:23.83Z</time></trkpt><trkpt lat="45.8870283" lon="8.7077317"><ele>374.0</ele><time>2026-05-03T11:55:24.83Z</time></trkpt><trkpt lat="45.88699" lon="8.7075833"><ele>373.6666666666667</ele><time>2026-05-03T11:55:26.83Z</time></trkpt><trkpt lat="45.8869567" lon="8.7074667"><ele>373.33333333333337</ele><time>2026-05-03T11:55:28.83Z</time></trkpt><trkpt lat="45.88693" lon="8.70738"><ele>373.0</ele><time>2026-05-03T11:55:31.829Z</time></trkpt><trkpt lat="45.8868867" lon="8.7072767"><ele>372.6666666666667</ele><time>2026-05-03T11:55:40.83Z</time></trkpt><trkpt lat="45.8868467" lon="8.7071833"><ele>372.3333333333333</ele><time>2026-05-03T11:55:41.83Z</time></trkpt><trkpt lat="45.8867917" lon="8.7070533"><ele>372.0</ele><time>2026-05-03T11:55:42.829Z</time></trkpt><trkpt lat="45.886725" lon="8.7068983"><ele>372.0</ele><time>2026-05-03T11:55:43.83Z</time></trkpt><trkpt lat="45.886645" lon="8.706715"><ele>372.0</ele><time>2026-05-03T11:55:44.829Z</time></trkpt><trkpt lat="45.886565" lon="8.7065433"><ele>372.0</ele><time>2026-05-03T11:55:45.83Z</time></trkpt><trkpt lat="45.886495" lon="8.706385"><ele>372.0</ele><time>2026-05-03T11:55:46.83Z</time></trkpt><trkpt lat="45.8864333" lon="8.70624"><ele>372.0</ele><time>2026-05-03T11:55:47.83Z</time></trkpt><trkpt lat="45.8863667" lon="8.7060883"><ele>372.0</ele><time>2026-05-03T11:55:48.83Z</time></trkpt><trkpt lat="45.8862917" lon="8.7059067"><ele>372.0</ele><time>2026-05-03T11:55:49.83Z</time></trkpt><trkpt lat="45.8862033" lon="8.7057167"><ele>372.0</ele><time>2026-05-03T11:55:50.83Z</time></trkpt><trkpt lat="45.8861183" lon="8.7055283"><ele>371.5</ele><time>2026-05-03T11:55:51.829Z</time></trkpt><trkpt lat="45.8860517" lon="8.7053417"><ele>371.0</ele><time>2026-05-03T11:55:52.829Z</time></trkpt><trkpt lat="45.8859933" lon="8.705155"><ele>370.5</ele><time>2026-05-03T11:55:53.83Z</time></trkpt><trkpt lat="45.88594" lon="8.70498"><ele>370.0</ele><time>2026-05-03T11:55:54.83Z</time></trkpt><trkpt lat="45.8858817" lon="8.704815"><ele>370.0</ele><time>2026-05-03T11:55:55.829Z</time></trkpt><trkpt lat="45.8858183" lon="8.7046667"><ele>370.0</ele><time>2026-05-03T11:55:56.83Z</time></trkpt><trkpt lat="45.8857583" lon="8.7045267"><ele>370.0</ele><time>2026-05-03T11:55:57.83Z</time></trkpt><trkpt lat="45.885695" lon="8.7043983"><ele>370.0</ele><time>2026-05-03T11:55:58.829Z</time></trkpt><trkpt lat="45.8856483" lon="8.70428"><ele>370.0</ele><time>2026-05-03T11:55:59.83Z</time></trkpt><trkpt lat="45.8856017" lon="8.704175"><ele>369.6</ele><time>2026-05-03T11:56:00.83Z</time></trkpt><trkpt lat="45.885565" lon="8.7040767"><ele>369.2</ele><time>2026-05-03T11:56:01.83Z</time></trkpt><trkpt lat="45.8854833" lon="8.7039883"><ele>368.79999999999995</ele><time>2026-05-03T11:56:03.83Z</time></trkpt><trkpt lat="45.8853667" lon="8.7040467"><ele>368.4</ele><time>2026-05-03T11:56:05.829Z</time></trkpt><trkpt lat="45.8852967" lon="8.7041033"><ele>368.0</ele><time>2026-05-03T11:56:06.83Z</time></trkpt><trkpt lat="45.885235" lon="8.7041517"><ele>368.0</ele><time>2026-05-03T11:56:07.83Z</time></trkpt><trkpt lat="45.88517" lon="8.7041583"><ele>368.0</ele><time>2026-05-03T11:56:08.83Z</time></trkpt><trkpt lat="45.8850933" lon="8.7041"><ele>368.0</ele><time>2026-05-03T11:56:09.83Z</time></trkpt><trkpt lat="45.8850017" lon="8.7040133"><ele>368.0</ele><time>2026-05-03T11:56:10.829Z</time></trkpt><trkpt lat="45.8849033" lon="8.7039217"><ele>368.0</ele><time>2026-05-03T11:56:11.83Z</time></trkpt><trkpt lat="45.8847933" lon="8.7038267"><ele>367.5</ele><time>2026-05-03T11:56:12.83Z</time></trkpt><trkpt lat="45.884685" lon="8.7037267"><ele>367.0</ele><time>2026-05-03T11:56:13.83Z</time></trkpt><trkpt lat="45.8845767" lon="8.7036217"><ele>366.5</ele><time>2026-05-03T11:56:14.83Z</time></trkpt><trkpt lat="45.88447" lon="8.70352"><ele>366.0</ele><time>2026-05-03T11:56:15.829Z</time></trkpt><trkpt lat="45.8843733" lon="8.70343"><ele>365.5</ele><time>2026-05-03T11:56:16.83Z</time></trkpt><trkpt lat="45.8842667" lon="8.7033433"><ele>365.0</ele><time>2026-05-03T11:56:17.83Z</time></trkpt><trkpt lat="45.8841533" lon="8.7032733"><ele>364.5</ele><time>2026-05-03T11:56:18.83Z</time></trkpt><trkpt lat="45.884035" lon="8.7032333"><ele>364.0</ele><time>2026-05-03T11:56:19.829Z</time></trkpt><trkpt lat="45.88391" lon="8.7032067"><ele>363.6</ele><time>2026-05-03T11:56:20.83Z</time></trkpt><trkpt lat="45.8837967" lon="8.7031983"><ele>363.2</ele><time>2026-05-03T11:56:21.83Z</time></trkpt><trkpt lat="45.8836867" lon="8.7031667"><ele>362.8</ele><time>2026-05-03T11:56:22.83Z</time></trkpt><trkpt lat="45.8835933" lon="8.7031367"><ele>362.40000000000003</ele><time>2026-05-03T11:56:23.83Z</time></trkpt><trkpt lat="45.8835133" lon="8.7030933"><ele>362.0</ele><time>2026-05-03T11:56:24.83Z</time></trkpt><trkpt lat="45.8834533" lon="8.7030217"><ele>362.25</ele><time>2026-05-03T11:56:25.83Z</time></trkpt><trkpt lat="45.8833967" lon="8.7029167"><ele>362.5</ele><time>2026-05-03T11:56:26.83Z</time></trkpt><trkpt lat="45.8833267" lon="8.702785"><ele>362.75</ele><time>2026-05-03T11:56:27.83Z</time></trkpt><trkpt lat="45.88322" lon="8.7026467"><ele>363.0</ele><time>2026-05-03T11:56:28.829Z</time></trkpt><trkpt lat="45.8830983" lon="8.7025067"><ele>361.75</ele><time>2026-05-03T11:56:29.83Z</time></trkpt><trkpt lat="45.8829817" lon="8.7023833"><ele>360.5</ele><time>2026-05-03T11:56:30.83Z</time></trkpt><trkpt lat="45.8828717" lon="8.7022517"><ele>359.25</ele><time>2026-05-03T11:56:31.829Z</time></trkpt><trkpt lat="45.8827733" lon="8.7021217"><ele>358.0</ele><time>2026-05-03T11:56:32.83Z</time></trkpt><trkpt lat="45.8826817" lon="8.7019917"><ele>358.0</ele><time>2026-05-03T11:56:33.83Z</time></trkpt><trkpt lat="45.8825983" lon="8.7018583"><ele>358.0</ele><time>2026-05-03T11:56:34.83Z</time></trkpt><trkpt lat="45.8825267" lon="8.7017333"><ele>358.0</ele><time>2026-05-03T11:56:35.83Z</time></trkpt><trkpt lat="45.8824567" lon="8.70162"><ele>358.0</ele><time>2026-05-03T11:56:36.83Z</time></trkpt><trkpt lat="45.8823833" lon="8.70152"><ele>358.0</ele><time>2026-05-03T11:56:37.83Z</time></trkpt><trkpt lat="45.8822917" lon="8.7014417"><ele>358.0</ele><time>2026-05-03T11:56:38.83Z</time></trkpt><trkpt lat="45.882205" lon="8.7013783"><ele>358.0</ele><time>2026-05-03T11:56:39.83Z</time></trkpt><trkpt lat="45.8821233" lon="8.701315"><ele>358.0</ele><time>2026-05-03T11:56:40.83Z</time></trkpt><trkpt lat="45.8820533" lon="8.7012367"><ele>358.0</ele><time>2026-05-03T11:56:41.83Z</time></trkpt><trkpt lat="45.8819883" lon="8.7011467"><ele>358.0</ele><time>2026-05-03T11:56:42.83Z</time></trkpt><trkpt lat="45.8819233" lon="8.701055"><ele>358.0</ele><time>2026-05-03T11:56:43.829Z</time></trkpt><trkpt lat="45.8818517" lon="8.70097"><ele>358.0</ele><time>2026-05-03T11:56:44.829Z</time></trkpt><trkpt lat="45.8817683" lon="8.7008733"><ele>358.0</ele><time>2026-05-03T11:56:45.83Z</time></trkpt><trkpt lat="45.8816833" lon="8.7007917"><ele>358.0</ele><time>2026-05-03T11:56:46.83Z</time></trkpt><trkpt lat="45.8816083" lon="8.700725"><ele>358.0</ele><time>2026-05-03T11:56:47.829Z</time></trkpt><trkpt lat="45.8815417" lon="8.7006767"><ele>358.0</ele><time>2026-05-03T11:56:48.83Z</time></trkpt><trkpt lat="45.8814783" lon="8.7006533"><ele>358.0</ele><time>2026-05-03T11:56:49.83Z</time></trkpt><trkpt lat="45.8813633" lon="8.700625"><ele>358.0</ele><time>2026-05-03T11:56:51.829Z</time></trkpt><trkpt lat="45.8812483" lon="8.7005617"><ele>358.0</ele><time>2026-05-03T11:56:53.83Z</time></trkpt><trkpt lat="45.881165" lon="8.7005117"><ele>358.0</ele><time>2026-05-03T11:56:54.83Z</time></trkpt><trkpt lat="45.8810667" lon="8.7004717"><ele>358.0</ele><time>2026-05-03T11:56:55.829Z</time></trkpt><trkpt lat="45.8809883" lon="8.70044"><ele>358.0</ele><time>2026-05-03T11:56:56.83Z</time></trkpt><trkpt lat="45.8809083" lon="8.7003933"><ele>358.0</ele><time>2026-05-03T11:56:57.829Z</time></trkpt><trkpt lat="45.8808317" lon="8.7003417"><ele>358.0</ele><time>2026-05-03T11:56:58.83Z</time></trkpt><trkpt lat="45.880755" lon="8.70026"><ele>358.0</ele><time>2026-05-03T11:56:59.83Z</time></trkpt><trkpt lat="45.88068" lon="8.700155"><ele>358.5</ele><time>2026-05-03T11:57:00.83Z</time></trkpt><trkpt lat="45.8806183" lon="8.7000433"><ele>359.0</ele><time>2026-05-03T11:57:01.83Z</time></trkpt><trkpt lat="45.8805583" lon="8.69993"><ele>359.5</ele><time>2026-05-03T11:57:02.83Z</time></trkpt><trkpt lat="45.88051" lon="8.6998217"><ele>360.0</ele><time>2026-05-03T11:57:03.83Z</time></trkpt><trkpt lat="45.88047" lon="8.69973"><ele>360.5</ele><time>2026-05-03T11:57:04.83Z</time></trkpt><trkpt lat="45.8804317" lon="8.6996417"><ele>361.0</ele><time>2026-05-03T11:57:05.83Z</time></trkpt><trkpt lat="45.880395" lon="8.6995583"><ele>361.0</ele><time>2026-05-03T11:57:06.83Z</time></trkpt><trkpt lat="45.8803617" lon="8.6994783"><ele>361.0</ele><time>2026-05-03T11:57:07.83Z</time></trkpt><trkpt lat="45.88033" lon="8.6993867"><ele>361.0</ele><time>2026-05-03T11:57:08.83Z</time></trkpt><trkpt lat="45.8802933" lon="8.699295"><ele>361.0</ele><time>2026-05-03T11:57:09.83Z</time></trkpt><trkpt lat="45.8802683" lon="8.6991983"><ele>361.0</ele><time>2026-05-03T11:57:10.83Z</time></trkpt><trkpt lat="45.88025" lon="8.69909"><ele>361.0</ele><time>2026-05-03T11:57:11.83Z</time></trkpt><trkpt lat="45.8802367" lon="8.6989817"><ele>361.0</ele><time>2026-05-03T11:57:12.829Z</time></trkpt><trkpt lat="45.8802283" lon="8.6988767"><ele>360.5714285714286</ele><time>2026-05-03T11:57:13.829Z</time></trkpt><trkpt lat="45.88023" lon="8.69878"><ele>360.1428571428571</ele><time>2026-05-03T11:57:14.83Z</time></trkpt><trkpt lat="45.8802267" lon="8.6986883"><ele>359.7142857142857</ele><time>2026-05-03T11:57:15.829Z</time></trkpt><trkpt lat="45.880215" lon="8.6985967"><ele>359.28571428571433</ele><time>2026-05-03T11:57:16.829Z</time></trkpt><trkpt lat="45.880195" lon="8.698505"><ele>358.8571428571429</ele><time>2026-05-03T11:57:17.83Z</time></trkpt><trkpt lat="45.88017" lon="8.6984083"><ele>358.42857142857144</ele><time>2026-05-03T11:57:18.83Z</time></trkpt><trkpt lat="45.8801367" lon="8.6983083"><ele>358.0</ele><time>2026-05-03T11:57:19.83Z</time></trkpt><trkpt lat="45.8800933" lon="8.698215"><ele>361.3333333333333</ele><time>2026-05-03T11:57:20.829Z</time></trkpt><trkpt lat="45.8800533" lon="8.6981217"><ele>364.66666666666663</ele><time>2026-05-03T11:57:21.829Z</time></trkpt><trkpt lat="45.8800183" lon="8.6980367"><ele>368.0</ele><time>2026-05-03T11:57:22.83Z</time></trkpt><trkpt lat="45.8799917" lon="8.6979467"><ele>371.3333333333333</ele><time>2026-05-03T11:57:23.83Z</time></trkpt><trkpt lat="45.8799583" lon="8.6978367"><ele>374.6666666666667</ele><time>2026-05-03T11:57:25.83Z</time></trkpt><trkpt lat="45.8798417" lon="8.697775"><ele>378.0</ele><time>2026-05-03T11:57:27.83Z</time></trkpt><trkpt lat="45.8797317" lon="8.6977133"><ele>378.0</ele><time>2026-05-03T11:57:29.83Z</time></trkpt><trkpt lat="45.87967" lon="8.6976767"><ele>378.0</ele><time>2026-05-03T11:57:30.829Z</time></trkpt><trkpt lat="45.8796033" lon="8.6976383"><ele>378.0</ele><time>2026-05-03T11:57:31.83Z</time></trkpt><trkpt lat="45.879515" lon="8.6975933"><ele>378.0</ele><time>2026-05-03T11:57:33.83Z</time></trkpt><trkpt lat="45.8794333" lon="8.6975767"><ele>378.0</ele><time>2026-05-03T11:57:36.83Z</time></trkpt><trkpt lat="45.8793433" lon="8.6975683"><ele>378.0</ele><time>2026-05-03T11:57:40.83Z</time></trkpt><trkpt lat="45.879235" lon="8.69754"><ele>380.0</ele><time>2026-05-03T11:57:42.83Z</time></trkpt><trkpt lat="45.8791533" lon="8.697515"><ele>382.0</ele><time>2026-05-03T11:57:43.829Z</time></trkpt><trkpt lat="45.8790717" lon="8.6974883"><ele>384.0</ele><time>2026-05-03T11:57:44.83Z</time></trkpt><trkpt lat="45.8789933" lon="8.6974833"><ele>386.0</ele><time>2026-05-03T11:57:45.83Z</time></trkpt><trkpt lat="45.8789017" lon="8.69747"><ele>388.0</ele><time>2026-05-03T11:57:46.83Z</time></trkpt><trkpt lat="45.8788167" lon="8.6974667"><ele>390.0</ele><time>2026-05-03T11:57:47.83Z</time></trkpt><trkpt lat="45.8787433" lon="8.69745"><ele>390.0</ele><time>2026-05-03T11:57:48.829Z</time></trkpt><trkpt lat="45.8786733" lon="8.6974167"><ele>390.0</ele><time>2026-05-03T11:57:49.83Z</time></trkpt><trkpt lat="45.87861" lon="8.697365"><ele>390.0</ele><time>2026-05-03T11:57:50.829Z</time></trkpt><trkpt lat="45.8785417" lon="8.6972967"><ele>390.0</ele><time>2026-05-03T11:57:51.829Z</time></trkpt><trkpt lat="45.8784733" lon="8.6972183"><ele>390.0</ele><time>2026-05-03T11:57:52.829Z</time></trkpt><trkpt lat="45.8783967" lon="8.69713"><ele>390.0</ele><time>2026-05-03T11:57:53.83Z</time></trkpt><trkpt lat="45.87831" lon="8.697035"><ele>389.8</ele><time>2026-05-03T11:57:54.829Z</time></trkpt><trkpt lat="45.8782233" lon="8.6969483"><ele>389.6</ele><time>2026-05-03T11:57:55.83Z</time></trkpt><trkpt lat="45.8781367" lon="8.696865"><ele>389.4</ele><time>2026-05-03T11:57:56.83Z</time></trkpt><trkpt lat="45.8780467" lon="8.6967767"><ele>389.2</ele><time>2026-05-03T11:57:57.83Z</time></trkpt><trkpt lat="45.8779517" lon="8.696695"><ele>389.0</ele><time>2026-05-03T11:57:58.829Z</time></trkpt><trkpt lat="45.8778617" lon="8.696625"><ele>389.0</ele><time>2026-05-03T11:57:59.83Z</time></trkpt><trkpt lat="45.877785" lon="8.6965667"><ele>389.0</ele><time>2026-05-03T11:58:00.83Z</time></trkpt><trkpt lat="45.8777133" lon="8.6965133"><ele>389.0</ele><time>2026-05-03T11:58:01.83Z</time></trkpt><trkpt lat="45.8776567" lon="8.696465"><ele>389.0</ele><time>2026-05-03T11:58:02.83Z</time></trkpt><trkpt lat="45.87757" lon="8.6963383"><ele>389.0</ele><time>2026-05-03T11:58:04.83Z</time></trkpt><trkpt lat="45.8775183" lon="8.6962133"><ele>389.75</ele><time>2026-05-03T11:58:05.83Z</time></trkpt><trkpt lat="45.877445" lon="8.6960633"><ele>390.5</ele><time>2026-05-03T11:58:06.83Z</time></trkpt><trkpt lat="45.8773533" lon="8.695895"><ele>391.25</ele><time>2026-05-03T11:58:07.829Z</time></trkpt><trkpt lat="45.8772467" lon="8.6957083"><ele>392.0</ele><time>2026-05-03T11:58:08.83Z</time></trkpt><trkpt lat="45.8771417" lon="8.6955183"><ele>392.0</ele><time>2026-05-03T11:58:09.83Z</time></trkpt><trkpt lat="45.8770317" lon="8.6953467"><ele>392.0</ele><time>2026-05-03T11:58:10.83Z</time></trkpt><trkpt lat="45.8769317" lon="8.695185"><ele>392.0</ele><time>2026-05-03T11:58:11.83Z</time></trkpt><trkpt lat="45.87683" lon="8.6950167"><ele>393.66666666666663</ele><time>2026-05-03T11:58:12.83Z</time></trkpt><trkpt lat="45.8767217" lon="8.69485"><ele>395.33333333333337</ele><time>2026-05-03T11:58:13.83Z</time></trkpt><trkpt lat="45.8766117" lon="8.6946917"><ele>397.0</ele><time>2026-05-03T11:58:14.83Z</time></trkpt><trkpt lat="45.8764967" lon="8.6945383"><ele>395.0</ele><time>2026-05-03T11:58:15.83Z</time></trkpt><trkpt lat="45.8763683" lon="8.6943917"><ele>393.0</ele><time>2026-05-03T11:58:16.829Z</time></trkpt><trkpt lat="45.8762217" lon="8.6942467"><ele>391.0</ele><time>2026-05-03T11:58:17.83Z</time></trkpt><trkpt lat="45.8760833" lon="8.6941083"><ele>391.0</ele><time>2026-05-03T11:58:18.83Z</time></trkpt><trkpt lat="45.8759467" lon="8.6939633"><ele>391.0</ele><time>2026-05-03T11:58:19.83Z</time></trkpt><trkpt lat="45.8758133" lon="8.69382"><ele>391.0</ele><time>2026-05-03T11:58:20.83Z</time></trkpt><trkpt lat="45.8756867" lon="8.69368"><ele>391.0</ele><time>2026-05-03T11:58:21.829Z</time></trkpt><trkpt lat="45.8755683" lon="8.693535"><ele>391.0</ele><time>2026-05-03T11:58:22.83Z</time></trkpt><trkpt lat="45.8754433" lon="8.6933917"><ele>391.0</ele><time>2026-05-03T11:58:23.83Z</time></trkpt><trkpt lat="45.8753217" lon="8.6932467"><ele>391.0</ele><time>2026-05-03T11:58:24.83Z</time></trkpt><trkpt lat="45.8751983" lon="8.6930983"><ele>391.0</ele><time>2026-05-03T11:58:25.83Z</time></trkpt><trkpt lat="45.8750767" lon="8.6929583"><ele>391.0</ele><time>2026-05-03T11:58:26.83Z</time></trkpt><trkpt lat="45.8749617" lon="8.6928133"><ele>390.33333333333337</ele><time>2026-05-03T11:58:27.829Z</time></trkpt><trkpt lat="45.8748433" lon="8.6926667"><ele>389.66666666666663</ele><time>2026-05-03T11:58:28.829Z</time></trkpt><trkpt lat="45.8747217" lon="8.692515"><ele>389.0</ele><time>2026-05-03T11:58:29.83Z</time></trkpt><trkpt lat="45.874605" lon="8.6923683"><ele>389.0</ele><time>2026-05-03T11:58:30.829Z</time></trkpt><trkpt lat="45.874485" lon="8.69222"><ele>389.0</ele><time>2026-05-03T11:58:31.83Z</time></trkpt><trkpt lat="45.874365" lon="8.6920717"><ele>389.0</ele><time>2026-05-03T11:58:32.83Z</time></trkpt><trkpt lat="45.8742533" lon="8.6919367"><ele>389.0</ele><time>2026-05-03T11:58:33.83Z</time></trkpt><trkpt lat="45.8741433" lon="8.6918133"><ele>389.0</ele><time>2026-05-03T11:58:34.83Z</time></trkpt><trkpt lat="45.874025" lon="8.6916983"><ele>389.0</ele><time>2026-05-03T11:58:35.83Z</time></trkpt><trkpt lat="45.8739" lon="8.6916"><ele>389.0</ele><time>2026-05-03T11:58:36.83Z</time></trkpt><trkpt lat="45.8737733" lon="8.6915117"><ele>389.0</ele><time>2026-05-03T11:58:37.83Z</time></trkpt><trkpt lat="45.87364" lon="8.6914517"><ele>389.0</ele><time>2026-05-03T11:58:38.83Z</time></trkpt><trkpt lat="45.8734967" lon="8.69141"><ele>389.0</ele><time>2026-05-03T11:58:39.83Z</time></trkpt><trkpt lat="45.8733467" lon="8.691385"><ele>389.0</ele><time>2026-05-03T11:58:40.829Z</time></trkpt><trkpt lat="45.8732" lon="8.691355"><ele>388.75</ele><time>2026-05-03T11:58:41.829Z</time></trkpt><trkpt lat="45.8730617" lon="8.69133"><ele>388.5</ele><time>2026-05-03T11:58:42.83Z</time></trkpt><trkpt lat="45.8729233" lon="8.6913033"><ele>388.25</ele><time>2026-05-03T11:58:43.83Z</time></trkpt><trkpt lat="45.8727833" lon="8.6912717"><ele>388.0</ele><time>2026-05-03T11:58:44.829Z</time></trkpt><trkpt lat="45.872635" lon="8.6912467"><ele>388.33333333333337</ele><time>2026-05-03T11:58:45.83Z</time></trkpt><trkpt lat="45.8724817" lon="8.6912133"><ele>388.66666666666663</ele><time>2026-05-03T11:58:46.83Z</time></trkpt><trkpt lat="45.87232" lon="8.6911817"><ele>389.0</ele><time>2026-05-03T11:58:47.83Z</time></trkpt><trkpt lat="45.8721583" lon="8.6911583"><ele>389.0</ele><time>2026-05-03T11:58:48.83Z</time></trkpt><trkpt lat="45.871995" lon="8.6911217"><ele>389.0</ele><time>2026-05-03T11:58:49.83Z</time></trkpt><trkpt lat="45.8718433" lon="8.6910683"><ele>389.0</ele><time>2026-05-03T11:58:50.83Z</time></trkpt><trkpt lat="45.8716817" lon="8.6910067"><ele>388.3333333333333</ele><time>2026-05-03T11:58:51.83Z</time></trkpt><trkpt lat="45.871525" lon="8.6909367"><ele>387.66666666666663</ele><time>2026-05-03T11:58:52.83Z</time></trkpt><trkpt lat="45.8713667" lon="8.6908717"><ele>387.0</ele><time>2026-05-03T11:58:53.83Z</time></trkpt><trkpt lat="45.871205" lon="8.6908017"><ele>387.0</ele><time>2026-05-03T11:58:54.829Z</time></trkpt><trkpt lat="45.8710467" lon="8.69073"><ele>387.0</ele><time>2026-05-03T11:58:55.829Z</time></trkpt><trkpt lat="45.8709017" lon="8.6906617"><ele>387.0</ele><time>2026-05-03T11:58:56.83Z</time></trkpt><trkpt lat="45.870765" lon="8.6906017"><ele>386.25</ele><time>2026-05-03T11:58:57.83Z</time></trkpt><trkpt lat="45.8706283" lon="8.690535"><ele>385.5</ele><time>2026-05-03T11:58:58.829Z</time></trkpt><trkpt lat="45.8704883" lon="8.6904717"><ele>384.75</ele><time>2026-05-03T11:58:59.829Z</time></trkpt><trkpt lat="45.8703417" lon="8.6904017"><ele>384.0</ele><time>2026-05-03T11:59:00.83Z</time></trkpt><trkpt lat="45.8701917" lon="8.6903267"><ele>383.5</ele><time>2026-05-03T11:59:01.83Z</time></trkpt><trkpt lat="45.87005" lon="8.69024"><ele>383.0</ele><time>2026-05-03T11:59:02.83Z</time></trkpt><trkpt lat="45.8699167" lon="8.6901567"><ele>382.5</ele><time>2026-05-03T11:59:03.83Z</time></trkpt><trkpt lat="45.8697883" lon="8.6900917"><ele>382.0</ele><time>2026-05-03T11:59:04.83Z</time></trkpt><trkpt lat="45.869655" lon="8.69004"><ele>382.0</ele><time>2026-05-03T11:59:05.829Z</time></trkpt><trkpt lat="45.8695167" lon="8.690015"><ele>382.0</ele><time>2026-05-03T11:59:06.83Z</time></trkpt><trkpt lat="45.869365" lon="8.6900183"><ele>382.0</ele><time>2026-05-03T11:59:07.829Z</time></trkpt><trkpt lat="45.86921" lon="8.6900567"><ele>382.0</ele><time>2026-05-03T11:59:08.83Z</time></trkpt><trkpt lat="45.86906" lon="8.6901233"><ele>381.0</ele><time>2026-05-03T11:59:09.83Z</time></trkpt><trkpt lat="45.8689167" lon="8.6901967"><ele>380.0</ele><time>2026-05-03T11:59:10.83Z</time></trkpt><trkpt lat="45.8687817" lon="8.690295"><ele>379.0</ele><time>2026-05-03T11:59:11.829Z</time></trkpt><trkpt lat="45.86864" lon="8.69042"><ele>379.0</ele><time>2026-05-03T11:59:12.83Z</time></trkpt><trkpt lat="45.8685067" lon="8.690545"><ele>379.0</ele><time>2026-05-03T11:59:13.83Z</time></trkpt><trkpt lat="45.868385" lon="8.6906467"><ele>379.0</ele><time>2026-05-03T11:59:14.83Z</time></trkpt><trkpt lat="45.8682583" lon="8.6907433"><ele>379.0</ele><time>2026-05-03T11:59:15.829Z</time></trkpt><trkpt lat="45.8681383" lon="8.690805"><ele>380.2</ele><time>2026-05-03T11:59:16.829Z</time></trkpt><trkpt lat="45.8680183" lon="8.6908317"><ele>381.4</ele><time>2026-05-03T11:59:17.83Z</time></trkpt><trkpt lat="45.867915" lon="8.6908183"><ele>382.6</ele><time>2026-05-03T11:59:18.829Z</time></trkpt><trkpt lat="45.8678383" lon="8.6907683"><ele>383.8</ele><time>2026-05-03T11:59:19.83Z</time></trkpt><trkpt lat="45.86777" lon="8.6906833"><ele>385.0</ele><time>2026-05-03T11:59:20.83Z</time></trkpt><trkpt lat="45.8677067" lon="8.6905483"><ele>385.0</ele><time>2026-05-03T11:59:21.83Z</time></trkpt><trkpt lat="45.8676367" lon="8.6904167"><ele>385.0</ele><time>2026-05-03T11:59:22.83Z</time></trkpt><trkpt lat="45.867545" lon="8.6903033"><ele>385.0</ele><time>2026-05-03T11:59:23.83Z</time></trkpt><trkpt lat="45.867435" lon="8.6902217"><ele>385.0</ele><time>2026-05-03T11:59:24.83Z</time></trkpt><trkpt lat="45.867305" lon="8.690195"><ele>385.6666666666667</ele><time>2026-05-03T11:59:25.829Z</time></trkpt><trkpt lat="45.867155" lon="8.6902283"><ele>386.33333333333337</ele><time>2026-05-03T11:59:26.83Z</time></trkpt><trkpt lat="45.8670133" lon="8.6902933"><ele>387.0</ele><time>2026-05-03T11:59:27.83Z</time></trkpt><trkpt lat="45.8668733" lon="8.690375"><ele>384.0</ele><time>2026-05-03T11:59:28.829Z</time></trkpt><trkpt lat="45.8667333" lon="8.6904683"><ele>381.0</ele><time>2026-05-03T11:59:29.829Z</time></trkpt><trkpt lat="45.8665933" lon="8.6905883"><ele>378.0</ele><time>2026-05-03T11:59:30.83Z</time></trkpt><trkpt lat="45.86646" lon="8.6907183"><ele>378.0</ele><time>2026-05-03T11:59:31.829Z</time></trkpt><trkpt lat="45.86633" lon="8.6908433"><ele>378.0</ele><time>2026-05-03T11:59:32.83Z</time></trkpt><trkpt lat="45.8662017" lon="8.69096"><ele>378.0</ele><time>2026-05-03T11:59:33.83Z</time></trkpt><trkpt lat="45.8660617" lon="8.6910733"><ele>376.75</ele><time>2026-05-03T11:59:34.83Z</time></trkpt><trkpt lat="45.8659267" lon="8.6911767"><ele>375.5</ele><time>2026-05-03T11:59:35.83Z</time></trkpt><trkpt lat="45.865795" lon="8.69128"><ele>374.25</ele><time>2026-05-03T11:59:36.83Z</time></trkpt><trkpt lat="45.8656733" lon="8.6913767"><ele>373.0</ele><time>2026-05-03T11:59:37.83Z</time></trkpt><trkpt lat="45.8655583" lon="8.6914733"><ele>373.0</ele><time>2026-05-03T11:59:38.83Z</time></trkpt><trkpt lat="45.8654533" lon="8.691565"><ele>373.0</ele><time>2026-05-03T11:59:39.83Z</time></trkpt><trkpt lat="45.8653583" lon="8.6916667"><ele>373.0</ele><time>2026-05-03T11:59:40.83Z</time></trkpt><trkpt lat="45.8652633" lon="8.6917717"><ele>373.0</ele><time>2026-05-03T11:59:41.83Z</time></trkpt><trkpt lat="45.8651633" lon="8.6919"><ele>372.5</ele><time>2026-05-03T11:59:42.829Z</time></trkpt><trkpt lat="45.8650767" lon="8.692045"><ele>372.0</ele><time>2026-05-03T11:59:43.83Z</time></trkpt><trkpt lat="45.8649867" lon="8.6921933"><ele>371.5</ele><time>2026-05-03T11:59:44.83Z</time></trkpt><trkpt lat="45.8648933" lon="8.69236"><ele>371.0</ele><time>2026-05-03T11:59:45.829Z</time></trkpt><trkpt lat="45.864795" lon="8.6925267"><ele>371.0</ele><time>2026-05-03T11:59:46.83Z</time></trkpt><trkpt lat="45.864675" lon="8.6926817"><ele>371.0</ele><time>2026-05-03T11:59:47.83Z</time></trkpt><trkpt lat="45.864535" lon="8.6928217"><ele>371.0</ele><time>2026-05-03T11:59:48.83Z</time></trkpt><trkpt lat="45.8643883" lon="8.6929467"><ele>369.33333333333337</ele><time>2026-05-03T11:59:49.83Z</time></trkpt><trkpt lat="45.86425" lon="8.69306"><ele>367.6666666666667</ele><time>2026-05-03T11:59:50.83Z</time></trkpt><trkpt lat="45.864115" lon="8.693185"><ele>366.0</ele><time>2026-05-03T11:59:51.829Z</time></trkpt><trkpt lat="45.863975" lon="8.693305"><ele>366.0</ele><time>2026-05-03T11:59:52.83Z</time></trkpt><trkpt lat="45.8638583" lon="8.6934367"><ele>366.0</ele><time>2026-05-03T11:59:53.83Z</time></trkpt><trkpt lat="45.8637433" lon="8.693585"><ele>366.0</ele><time>2026-05-03T11:59:54.829Z</time></trkpt><trkpt lat="45.863655" lon="8.6937733"><ele>364.3333333333333</ele><time>2026-05-03T11:59:55.829Z</time></trkpt><trkpt lat="45.86357" lon="8.6939933"><ele>362.66666666666663</ele><time>2026-05-03T11:59:56.83Z</time></trkpt><trkpt lat="45.8635017" lon="8.6942317"><ele>361.0</ele><time>2026-05-03T11:59:57.829Z</time></trkpt><trkpt lat="45.863435" lon="8.6944667"><ele>360.25</ele><time>2026-05-03T11:59:58.83Z</time></trkpt><trkpt lat="45.86337" lon="8.694675"><ele>359.5</ele><time>2026-05-03T11:59:59.829Z</time></trkpt><trkpt lat="45.863315" lon="8.694865"><ele>358.75</ele><time>2026-05-03T12:00:00.83Z</time></trkpt><trkpt lat="45.8632567" lon="8.6950367"><ele>358.0</ele><time>2026-05-03T12:00:01.829Z</time></trkpt><trkpt lat="45.8632" lon="8.695195"><ele>358.0</ele><time>2026-05-03T12:00:02.829Z</time></trkpt><trkpt lat="45.863145" lon="8.6953333"><ele>358.0</ele><time>2026-05-03T12:00:03.83Z</time></trkpt><trkpt lat="45.8630683" lon="8.69544"><ele>358.0</ele><time>2026-05-03T12:00:04.83Z</time></trkpt><trkpt lat="45.8629833" lon="8.6955117"><ele>358.0</ele><time>2026-05-03T12:00:05.83Z</time></trkpt><trkpt lat="45.8628933" lon="8.69555"><ele>358.0</ele><time>2026-05-03T12:00:06.83Z</time></trkpt><trkpt lat="45.8627917" lon="8.6955583"><ele>358.0</ele><time>2026-05-03T12:00:07.83Z</time></trkpt><trkpt lat="45.8626767" lon="8.6955217"><ele>358.0</ele><time>2026-05-03T12:00:08.83Z</time></trkpt><trkpt lat="45.86255" lon="8.695445"><ele>358.0</ele><time>2026-05-03T12:00:09.83Z</time></trkpt><trkpt lat="45.8624217" lon="8.6953217"><ele>358.0</ele><time>2026-05-03T12:00:10.83Z</time></trkpt><trkpt lat="45.8623017" lon="8.6952033"><ele>357.5</ele><time>2026-05-03T12:00:11.83Z</time></trkpt><trkpt lat="45.8621867" lon="8.6950817"><ele>357.0</ele><time>2026-05-03T12:00:12.83Z</time></trkpt><trkpt lat="45.8621" lon="8.694945"><ele>356.5</ele><time>2026-05-03T12:00:13.83Z</time></trkpt><trkpt lat="45.8620133" lon="8.6948033"><ele>356.0</ele><time>2026-05-03T12:00:14.829Z</time></trkpt><trkpt lat="45.86195" lon="8.694655"><ele>356.0</ele><time>2026-05-03T12:00:15.829Z</time></trkpt><trkpt lat="45.861915" lon="8.694465"><ele>356.0</ele><time>2026-05-03T12:00:16.83Z</time></trkpt><trkpt lat="45.8618983" lon="8.6942717"><ele>356.0</ele><time>2026-05-03T12:00:17.83Z</time></trkpt><trkpt lat="45.861905" lon="8.6940783"><ele>356.0</ele><time>2026-05-03T12:00:18.83Z</time></trkpt><trkpt lat="45.8619333" lon="8.6938583"><ele>354.33333333333337</ele><time>2026-05-03T12:00:19.83Z</time></trkpt><trkpt lat="45.8619917" lon="8.69363"><ele>352.6666666666667</ele><time>2026-05-03T12:00:20.83Z</time></trkpt><trkpt lat="45.86208" lon="8.6934217"><ele>351.0</ele><time>2026-05-03T12:00:21.83Z</time></trkpt><trkpt lat="45.862165" lon="8.693235"><ele>348.0</ele><time>2026-05-03T12:00:22.829Z</time></trkpt><trkpt lat="45.8622683" lon="8.6930483"><ele>345.0</ele><time>2026-05-03T12:00:23.83Z</time></trkpt><trkpt lat="45.8623417" lon="8.6928733"><ele>342.0</ele><time>2026-05-03T12:00:24.83Z</time></trkpt><trkpt lat="45.862425" lon="8.6927083"><ele>338.75</ele><time>2026-05-03T12:00:25.83Z</time></trkpt><trkpt lat="45.8624867" lon="8.69254"><ele>335.5</ele><time>2026-05-03T12:00:26.83Z</time></trkpt><trkpt lat="45.8625567" lon="8.6923683"><ele>332.25</ele><time>2026-05-03T12:00:27.83Z</time></trkpt><trkpt lat="45.8626117" lon="8.69222"><ele>329.0</ele><time>2026-05-03T12:00:28.83Z</time></trkpt><trkpt lat="45.8626683" lon="8.69208"><ele>330.1666666666667</ele><time>2026-05-03T12:00:29.83Z</time></trkpt><trkpt lat="45.8627183" lon="8.6919617"><ele>331.33333333333337</ele><time>2026-05-03T12:00:30.83Z</time></trkpt><trkpt lat="45.8627633" lon="8.69187"><ele>332.5</ele><time>2026-05-03T12:00:31.83Z</time></trkpt><trkpt lat="45.8628033" lon="8.6917917"><ele>333.6666666666667</ele><time>2026-05-03T12:00:32.83Z</time></trkpt><trkpt lat="45.8628117" lon="8.6916967"><ele>334.8333333333333</ele><time>2026-05-03T12:00:34.83Z</time></trkpt><trkpt lat="45.8627583" lon="8.6917583"><ele>336.0</ele><time>2026-05-03T12:00:36.83Z</time></trkpt><trkpt lat="45.86264" lon="8.6918733"><ele>333.6666666666667</ele><time>2026-05-03T12:00:37.83Z</time></trkpt><trkpt lat="45.8624917" lon="8.6920183"><ele>331.33333333333337</ele><time>2026-05-03T12:00:38.83Z</time></trkpt><trkpt lat="45.8623567" lon="8.6921683"><ele>329.0</ele><time>2026-05-03T12:00:39.83Z</time></trkpt><trkpt lat="45.8622217" lon="8.6923117"><ele>329.0</ele><time>2026-05-03T12:00:40.83Z</time></trkpt><trkpt lat="45.8621183" lon="8.692445"><ele>329.0</ele><time>2026-05-03T12:00:41.83Z</time></trkpt><trkpt lat="45.8620267" lon="8.69256"><ele>329.0</ele><time>2026-05-03T12:00:42.829Z</time></trkpt><trkpt lat="45.86193" lon="8.692675"><ele>329.0</ele><time>2026-05-03T12:00:43.829Z</time></trkpt><trkpt lat="45.8618183" lon="8.6928033"><ele>324.33333333333337</ele><time>2026-05-03T12:00:44.829Z</time></trkpt><trkpt lat="45.8617" lon="8.6929367"><ele>319.6666666666667</ele><time>2026-05-03T12:00:45.83Z</time></trkpt><trkpt lat="45.8615767" lon="8.6930767"><ele>315.0</ele><time>2026-05-03T12:00:46.83Z</time></trkpt><trkpt lat="45.8614533" lon="8.6932183"><ele>315.0</ele><time>2026-05-03T12:00:47.83Z</time></trkpt><trkpt lat="45.8613383" lon="8.69336"><ele>315.0</ele><time>2026-05-03T12:00:48.83Z</time></trkpt><trkpt lat="45.861225" lon="8.693495"><ele>315.0</ele><time>2026-05-03T12:00:49.83Z</time></trkpt><trkpt lat="45.8611083" lon="8.6936267"><ele>315.0</ele><time>2026-05-03T12:00:50.83Z</time></trkpt><trkpt lat="45.8609983" lon="8.6937533"><ele>311.75</ele><time>2026-05-03T12:00:51.829Z</time></trkpt><trkpt lat="45.8609" lon="8.6938717"><ele>308.5</ele><time>2026-05-03T12:00:52.83Z</time></trkpt><trkpt lat="45.860795" lon="8.693965"><ele>305.25</ele><time>2026-05-03T12:00:53.83Z</time></trkpt><trkpt lat="45.8606667" lon="8.6940233"><ele>302.0</ele><time>2026-05-03T12:00:54.83Z</time></trkpt><trkpt lat="45.8605233" lon="8.6940367"><ele>302.0</ele><time>2026-05-03T12:00:55.83Z</time></trkpt><trkpt lat="45.8603667" lon="8.6940217"><ele>302.0</ele><time>2026-05-03T12:00:56.829Z</time></trkpt><trkpt lat="45.8602133" lon="8.6940283"><ele>302.0</ele><time>2026-05-03T12:00:57.83Z</time></trkpt><trkpt lat="45.8600717" lon="8.69406"><ele>298.0</ele><time>2026-05-03T12:00:58.83Z</time></trkpt><trkpt lat="45.8599317" lon="8.6941083"><ele>294.0</ele><time>2026-05-03T12:00:59.83Z</time></trkpt><trkpt lat="45.8597917" lon="8.6941933"><ele>290.0</ele><time>2026-05-03T12:01:00.83Z</time></trkpt><trkpt lat="45.859655" lon="8.69431"><ele>292.0</ele><time>2026-05-03T12:01:01.829Z</time></trkpt><trkpt lat="45.85953" lon="8.694475"><ele>294.0</ele><time>2026-05-03T12:01:02.83Z</time></trkpt><trkpt lat="45.85942" lon="8.6946717"><ele>296.0</ele><time>2026-05-03T12:01:03.83Z</time></trkpt><trkpt lat="45.8593183" lon="8.69487"><ele>293.6666666666667</ele><time>2026-05-03T12:01:04.83Z</time></trkpt><trkpt lat="45.85923" lon="8.6950717"><ele>291.3333333333333</ele><time>2026-05-03T12:01:05.83Z</time></trkpt><trkpt lat="45.8591333" lon="8.6952633"><ele>289.0</ele><time>2026-05-03T12:01:06.83Z</time></trkpt><trkpt lat="45.859045" lon="8.6954483"><ele>289.0</ele><time>2026-05-03T12:01:07.829Z</time></trkpt><trkpt lat="45.85896" lon="8.6956267"><ele>289.0</ele><time>2026-05-03T12:01:08.83Z</time></trkpt><trkpt lat="45.858875" lon="8.6958083"><ele>289.0</ele><time>2026-05-03T12:01:09.83Z</time></trkpt><trkpt lat="45.8588" lon="8.6960067"><ele>290.0</ele><time>2026-05-03T12:01:10.829Z</time></trkpt><trkpt lat="45.8587233" lon="8.6962017"><ele>291.0</ele><time>2026-05-03T12:01:11.83Z</time></trkpt><trkpt lat="45.8586567" lon="8.6964133"><ele>292.0</ele><time>2026-05-03T12:01:12.83Z</time></trkpt><trkpt lat="45.858585" lon="8.6966183"><ele>292.0</ele><time>2026-05-03T12:01:13.83Z</time></trkpt><trkpt lat="45.8585183" lon="8.696825"><ele>292.0</ele><time>2026-05-03T12:01:14.83Z</time></trkpt><trkpt lat="45.85844" lon="8.6970283"><ele>292.0</ele><time>2026-05-03T12:01:15.83Z</time></trkpt><trkpt lat="45.8583917" lon="8.6972217"><ele>291.75</ele><time>2026-05-03T12:01:16.829Z</time></trkpt><trkpt lat="45.8583483" lon="8.6973917"><ele>291.5</ele><time>2026-05-03T12:01:17.829Z</time></trkpt><trkpt lat="45.85829" lon="8.6975667"><ele>291.25</ele><time>2026-05-03T12:01:18.83Z</time></trkpt><trkpt lat="45.85823" lon="8.6977433"><ele>291.0</ele><time>2026-05-03T12:01:19.83Z</time></trkpt><trkpt lat="45.8581617" lon="8.6979283"><ele>290.3333333333333</ele><time>2026-05-03T12:01:20.83Z</time></trkpt><trkpt lat="45.8580733" lon="8.6981117"><ele>289.66666666666663</ele><time>2026-05-03T12:01:21.83Z</time></trkpt><trkpt lat="45.8579817" lon="8.6983033"><ele>289.0</ele><time>2026-05-03T12:01:22.83Z</time></trkpt><trkpt lat="45.85787" lon="8.6984717"><ele>289.66666666666663</ele><time>2026-05-03T12:01:23.829Z</time></trkpt><trkpt lat="45.857735" lon="8.6986017"><ele>290.3333333333333</ele><time>2026-05-03T12:01:24.83Z</time></trkpt><trkpt lat="45.8575917" lon="8.6987317"><ele>291.0</ele><time>2026-05-03T12:01:25.83Z</time></trkpt><trkpt lat="45.8574433" lon="8.6988533"><ele>289.3333333333333</ele><time>2026-05-03T12:01:26.83Z</time></trkpt><trkpt lat="45.8572983" lon="8.6989733"><ele>287.66666666666663</ele><time>2026-05-03T12:01:27.83Z</time></trkpt><trkpt lat="45.857145" lon="8.6990967"><ele>286.0</ele><time>2026-05-03T12:01:28.83Z</time></trkpt><trkpt lat="45.856995" lon="8.6992133"><ele>286.0</ele><time>2026-05-03T12:01:29.83Z</time></trkpt><trkpt lat="45.856855" lon="8.6993283"><ele>286.0</ele><time>2026-05-03T12:01:30.829Z</time></trkpt><trkpt lat="45.856725" lon="8.6994483"><ele>286.0</ele><time>2026-05-03T12:01:31.829Z</time></trkpt><trkpt lat="45.8565983" lon="8.699565"><ele>285.66666666666663</ele><time>2026-05-03T12:01:32.83Z</time></trkpt><trkpt lat="45.8564683" lon="8.6996967"><ele>285.3333333333333</ele><time>2026-05-03T12:01:33.829Z</time></trkpt><trkpt lat="45.8563317" lon="8.6998333"><ele>285.0</ele><time>2026-05-03T12:01:34.83Z</time></trkpt><trkpt lat="45.85619" lon="8.699975"><ele>285.0</ele><time>2026-05-03T12:01:35.829Z</time></trkpt><trkpt lat="45.85605" lon="8.7001167"><ele>285.0</ele><time>2026-05-03T12:01:36.83Z</time></trkpt><trkpt lat="45.8559217" lon="8.7002533"><ele>285.0</ele><time>2026-05-03T12:01:37.83Z</time></trkpt><trkpt lat="45.8557983" lon="8.7003817"><ele>285.0</ele><time>2026-05-03T12:01:38.83Z</time></trkpt><trkpt lat="45.8556817" lon="8.7005083"><ele>285.0</ele><time>2026-05-03T12:01:39.83Z</time></trkpt><trkpt lat="45.8555617" lon="8.70063"><ele>285.0</ele><time>2026-05-03T12:01:40.83Z</time></trkpt><trkpt lat="45.8554467" lon="8.7007583"><ele>285.0</ele><time>2026-05-03T12:01:41.83Z</time></trkpt><trkpt lat="45.8553367" lon="8.70088"><ele>285.0</ele><time>2026-05-03T12:01:42.83Z</time></trkpt><trkpt lat="45.8552267" lon="8.701"><ele>285.0</ele><time>2026-05-03T12:01:43.83Z</time></trkpt><trkpt lat="45.8551183" lon="8.7011167"><ele>285.0</ele><time>2026-05-03T12:01:44.83Z</time></trkpt><trkpt lat="45.85502" lon="8.7012217"><ele>285.0</ele><time>2026-05-03T12:01:45.829Z</time></trkpt><trkpt lat="45.85493" lon="8.701305"><ele>284.75</ele><time>2026-05-03T12:01:46.829Z</time></trkpt><trkpt lat="45.8548367" lon="8.7013717"><ele>284.5</ele><time>2026-05-03T12:01:47.83Z</time></trkpt><trkpt lat="45.8547333" lon="8.7014083"><ele>284.25</ele><time>2026-05-03T12:01:48.83Z</time></trkpt><trkpt lat="45.85462" lon="8.701405"><ele>284.0</ele><time>2026-05-03T12:01:49.83Z</time></trkpt><trkpt lat="45.854495" lon="8.70138"><ele>284.0</ele><time>2026-05-03T12:01:50.83Z</time></trkpt><trkpt lat="45.8543867" lon="8.7013483"><ele>284.0</ele><time>2026-05-03T12:01:51.83Z</time></trkpt><trkpt lat="45.854285" lon="8.7013433"><ele>284.0</ele><time>2026-05-03T12:01:52.83Z</time></trkpt><trkpt lat="45.8541933" lon="8.7013717"><ele>284.0</ele><time>2026-05-03T12:01:53.83Z</time></trkpt><trkpt lat="45.854115" lon="8.701445"><ele>284.0</ele><time>2026-05-03T12:01:54.83Z</time></trkpt><trkpt lat="45.8540483" lon="8.7015533"><ele>283.59999999999997</ele><time>2026-05-03T12:01:55.829Z</time></trkpt><trkpt lat="45.85399" lon="8.7016833"><ele>283.2</ele><time>2026-05-03T12:01:56.83Z</time></trkpt><trkpt lat="45.8539283" lon="8.701795"><ele>282.79999999999995</ele><time>2026-05-03T12:01:57.829Z</time></trkpt><trkpt lat="45.8538683" lon="8.7018783"><ele>282.4</ele><time>2026-05-03T12:01:58.829Z</time></trkpt><trkpt lat="45.8538" lon="8.7019217"><ele>282.0</ele><time>2026-05-03T12:01:59.829Z</time></trkpt><trkpt lat="45.8537" lon="8.7018733"><ele>281.4</ele><time>2026-05-03T12:02:01.829Z</time></trkpt><trkpt lat="45.8536233" lon="8.7017367"><ele>280.79999999999995</ele><time>2026-05-03T12:02:03.829Z</time></trkpt><trkpt lat="45.8535217" lon="8.7017283"><ele>280.2</ele><time>2026-05-03T12:02:05.829Z</time></trkpt><trkpt lat="45.8534783" lon="8.7018133"><ele>279.59999999999997</ele><time>2026-05-03T12:02:06.829Z</time></trkpt><trkpt lat="45.8534433" lon="8.70193"><ele>279.0</ele><time>2026-05-03T12:02:07.829Z</time></trkpt><trkpt lat="45.8533967" lon="8.702075"><ele>279.0</ele><time>2026-05-03T12:02:08.829Z</time></trkpt><trkpt lat="45.85333" lon="8.7022333"><ele>279.0</ele><time>2026-05-03T12:02:09.829Z</time></trkpt><trkpt lat="45.8532383" lon="8.7023983"><ele>279.0</ele><time>2026-05-03T12:02:10.828Z</time></trkpt><trkpt lat="45.853135" lon="8.7025683"><ele>279.0</ele><time>2026-05-03T12:02:11.828Z</time></trkpt><trkpt lat="45.853035" lon="8.7027483"><ele>279.0</ele><time>2026-05-03T12:02:12.828Z</time></trkpt><trkpt lat="45.8529383" lon="8.702925"><ele>279.0</ele><time>2026-05-03T12:02:13.829Z</time></trkpt><trkpt lat="45.8528333" lon="8.703085"><ele>279.0</ele><time>2026-05-03T12:02:14.828Z</time></trkpt><trkpt lat="45.852725" lon="8.7032567"><ele>279.0</ele><time>2026-05-03T12:02:15.829Z</time></trkpt><trkpt lat="45.8526217" lon="8.7034317"><ele>279.0</ele><time>2026-05-03T12:02:16.828Z</time></trkpt><trkpt lat="45.8525233" lon="8.7036"><ele>279.0</ele><time>2026-05-03T12:02:17.829Z</time></trkpt><trkpt lat="45.85242" lon="8.7037583"><ele>278.75</ele><time>2026-05-03T12:02:18.828Z</time></trkpt><trkpt lat="45.85232" lon="8.7039183"><ele>278.5</ele><time>2026-05-03T12:02:19.829Z</time></trkpt><trkpt lat="45.8522267" lon="8.7040767"><ele>278.25</ele><time>2026-05-03T12:02:20.829Z</time></trkpt><trkpt lat="45.8521283" lon="8.7042383"><ele>278.0</ele><time>2026-05-03T12:02:21.828Z</time></trkpt><trkpt lat="45.8520367" lon="8.704405"><ele>278.0</ele><time>2026-05-03T12:02:22.829Z</time></trkpt><trkpt lat="45.8519467" lon="8.7045567"><ele>278.0</ele><time>2026-05-03T12:02:23.829Z</time></trkpt><trkpt lat="45.85186" lon="8.704695"><ele>278.0</ele><time>2026-05-03T12:02:24.829Z</time></trkpt><trkpt lat="45.8517817" lon="8.7048283"><ele>278.0</ele><time>2026-05-03T12:02:25.829Z</time></trkpt><trkpt lat="45.851705" lon="8.7049583"><ele>278.0</ele><time>2026-05-03T12:02:26.829Z</time></trkpt><trkpt lat="45.85162" lon="8.705085"><ele>278.0</ele><time>2026-05-03T12:02:27.829Z</time></trkpt><trkpt lat="45.8515433" lon="8.70521"><ele>278.0</ele><time>2026-05-03T12:02:28.828Z</time></trkpt><trkpt lat="45.8514733" lon="8.7053167"><ele>278.0</ele><time>2026-05-03T12:02:29.828Z</time></trkpt><trkpt lat="45.8514167" lon="8.7054167"><ele>278.0</ele><time>2026-05-03T12:02:30.829Z</time></trkpt><trkpt lat="45.8513633" lon="8.705505"><ele>278.2</ele><time>2026-05-03T12:02:31.829Z</time></trkpt><trkpt lat="45.85132" lon="8.70558"><ele>278.4</ele><time>2026-05-03T12:02:32.828Z</time></trkpt><trkpt lat="45.8512383" lon="8.7057217"><ele>278.59999999999997</ele><time>2026-05-03T12:02:34.829Z</time></trkpt><trkpt lat="45.8511717" lon="8.7058433"><ele>278.8</ele><time>2026-05-03T12:02:36.829Z</time></trkpt><trkpt lat="45.8511217" lon="8.70592"><ele>279.0</ele><time>2026-05-03T12:02:39.829Z</time></trkpt><trkpt lat="45.8510533" lon="8.7060783"><ele>279.25</ele><time>2026-05-03T12:03:00.829Z</time></trkpt><trkpt lat="45.8509767" lon="8.7061833"><ele>279.5</ele><time>2026-05-03T12:03:01.829Z</time></trkpt><trkpt lat="45.8509" lon="8.7063233"><ele>279.75</ele><time>2026-05-03T12:03:02.829Z</time></trkpt><trkpt lat="45.85081" lon="8.7064817"><ele>280.0</ele><time>2026-05-03T12:03:03.829Z</time></trkpt><trkpt lat="45.8507167" lon="8.7066333"><ele>279.3333333333333</ele><time>2026-05-03T12:03:04.829Z</time></trkpt><trkpt lat="45.8506167" lon="8.7067933"><ele>278.6666666666667</ele><time>2026-05-03T12:03:05.828Z</time></trkpt><trkpt lat="45.8505117" lon="8.706965"><ele>278.0</ele><time>2026-05-03T12:03:06.829Z</time></trkpt><trkpt lat="45.8504083" lon="8.707135"><ele>278.0</ele><time>2026-05-03T12:03:07.828Z</time></trkpt><trkpt lat="45.8502983" lon="8.707315"><ele>278.0</ele><time>2026-05-03T12:03:08.828Z</time></trkpt><trkpt lat="45.8501917" lon="8.7074983"><ele>278.0</ele><time>2026-05-03T12:03:09.829Z</time></trkpt><trkpt lat="45.85008" lon="8.7076833"><ele>277.6666666666667</ele><time>2026-05-03T12:03:10.829Z</time></trkpt><trkpt lat="45.8499783" lon="8.7078517"><ele>277.3333333333333</ele><time>2026-05-03T12:03:11.828Z</time></trkpt><trkpt lat="45.84987" lon="8.708005"><ele>277.0</ele><time>2026-05-03T12:03:12.828Z</time></trkpt><trkpt lat="45.849765" lon="8.708185"><ele>277.0</ele><time>2026-05-03T12:03:13.828Z</time></trkpt><trkpt lat="45.8496517" lon="8.7083567"><ele>277.0</ele><time>2026-05-03T12:03:14.829Z</time></trkpt><trkpt lat="45.8495367" lon="8.7085367"><ele>277.0</ele><time>2026-05-03T12:03:15.828Z</time></trkpt><trkpt lat="45.849425" lon="8.7087283"><ele>277.0</ele><time>2026-05-03T12:03:16.829Z</time></trkpt><trkpt lat="45.849315" lon="8.7089133"><ele>277.0</ele><time>2026-05-03T12:03:17.828Z</time></trkpt><trkpt lat="45.8491967" lon="8.7091"><ele>277.0</ele><time>2026-05-03T12:03:18.828Z</time></trkpt><trkpt lat="45.8490833" lon="8.7092867"><ele>277.3333333333333</ele><time>2026-05-03T12:03:19.829Z</time></trkpt><trkpt lat="45.8489717" lon="8.7094833"><ele>277.6666666666667</ele><time>2026-05-03T12:03:20.829Z</time></trkpt><trkpt lat="45.8488583" lon="8.7096783"><ele>278.0</ele><time>2026-05-03T12:03:21.829Z</time></trkpt><trkpt lat="45.8487467" lon="8.7098467"><ele>278.0</ele><time>2026-05-03T12:03:22.829Z</time></trkpt><trkpt lat="45.84863" lon="8.7099967"><ele>278.0</ele><time>2026-05-03T12:03:23.829Z</time></trkpt><trkpt lat="45.8485117" lon="8.71014"><ele>278.0</ele><time>2026-05-03T12:03:24.829Z</time></trkpt><trkpt lat="45.8483917" lon="8.71027"><ele>277.75</ele><time>2026-05-03T12:03:25.829Z</time></trkpt><trkpt lat="45.8482783" lon="8.71038"><ele>277.5</ele><time>2026-05-03T12:03:26.829Z</time></trkpt><trkpt lat="45.848175" lon="8.710485"><ele>277.25</ele><time>2026-05-03T12:03:27.829Z</time></trkpt><trkpt lat="45.8480683" lon="8.7105867"><ele>277.0</ele><time>2026-05-03T12:03:28.829Z</time></trkpt><trkpt lat="45.84796" lon="8.7106933"><ele>277.0</ele><time>2026-05-03T12:03:29.829Z</time></trkpt><trkpt lat="45.84786" lon="8.7107917"><ele>277.0</ele><time>2026-05-03T12:03:30.829Z</time></trkpt><trkpt lat="45.8477617" lon="8.710885"><ele>277.0</ele><time>2026-05-03T12:03:31.829Z</time></trkpt><trkpt lat="45.8476683" lon="8.71097"><ele>277.0</ele><time>2026-05-03T12:03:32.829Z</time></trkpt><trkpt lat="45.847565" lon="8.7110517"><ele>277.25</ele><time>2026-05-03T12:03:33.829Z</time></trkpt><trkpt lat="45.8474617" lon="8.71114"><ele>277.5</ele><time>2026-05-03T12:03:34.828Z</time></trkpt><trkpt lat="45.8473583" lon="8.7112317"><ele>277.75</ele><time>2026-05-03T12:03:35.829Z</time></trkpt><trkpt lat="45.8472433" lon="8.7113283"><ele>278.0</ele><time>2026-05-03T12:03:36.829Z</time></trkpt><trkpt lat="45.8471383" lon="8.71143"><ele>278.0</ele><time>2026-05-03T12:03:37.829Z</time></trkpt><trkpt lat="45.8470333" lon="8.71152"><ele>278.0</ele><time>2026-05-03T12:03:38.829Z</time></trkpt><trkpt lat="45.8469483" lon="8.7116"><ele>278.0</ele><time>2026-05-03T12:03:39.829Z</time></trkpt><trkpt lat="45.84687" lon="8.7116633"><ele>278.0</ele><time>2026-05-03T12:03:40.829Z</time></trkpt><trkpt lat="45.8467933" lon="8.7117217"><ele>278.0</ele><time>2026-05-03T12:03:41.829Z</time></trkpt><trkpt lat="45.8467333" lon="8.7117667"><ele>278.0</ele><time>2026-05-03T12:03:42.828Z</time></trkpt><trkpt lat="45.8466633" lon="8.711805"><ele>278.0</ele><time>2026-05-03T12:03:44.829Z</time></trkpt><trkpt lat="45.8466167" lon="8.71192"><ele>278.0</ele><time>2026-05-03T12:04:09.829Z</time></trkpt><trkpt lat="45.84655" lon="8.7119817"><ele>278.0</ele><time>2026-05-03T12:04:10.829Z</time></trkpt><trkpt lat="45.846475" lon="8.7120483"><ele>278.0</ele><time>2026-05-03T12:04:11.829Z</time></trkpt><trkpt lat="45.8463917" lon="8.7121067"><ele>278.0</ele><time>2026-05-03T12:04:12.829Z</time></trkpt><trkpt lat="45.84628" lon="8.7121633"><ele>278.0</ele><time>2026-05-03T12:04:13.829Z</time></trkpt><trkpt lat="45.8461367" lon="8.7122"><ele>278.0</ele><time>2026-05-03T12:04:14.829Z</time></trkpt><trkpt lat="45.8460017" lon="8.7122317"><ele>278.0</ele><time>2026-05-03T12:04:15.829Z</time></trkpt><trkpt lat="45.845865" lon="8.7122667"><ele>278.0</ele><time>2026-05-03T12:04:16.829Z</time></trkpt><trkpt lat="45.8457167" lon="8.7123117"><ele>277.33333333333337</ele><time>2026-05-03T12:04:17.829Z</time></trkpt><trkpt lat="45.8455483" lon="8.7123883"><ele>276.6666666666667</ele><time>2026-05-03T12:04:18.829Z</time></trkpt><trkpt lat="45.8453633" lon="8.7124867"><ele>276.0</ele><time>2026-05-03T12:04:19.829Z</time></trkpt><trkpt lat="45.845205" lon="8.7125917"><ele>275.3333333333333</ele><time>2026-05-03T12:04:20.828Z</time></trkpt><trkpt lat="45.845045" lon="8.712705"><ele>274.66666666666663</ele><time>2026-05-03T12:04:21.829Z</time></trkpt><trkpt lat="45.8448767" lon="8.71282"><ele>274.0</ele><time>2026-05-03T12:04:22.828Z</time></trkpt><trkpt lat="45.844715" lon="8.7129317"><ele>274.0</ele><time>2026-05-03T12:04:23.829Z</time></trkpt><trkpt lat="45.8445667" lon="8.71304"><ele>274.0</ele><time>2026-05-03T12:04:24.829Z</time></trkpt><trkpt lat="45.84444" lon="8.7131167"><ele>274.0</ele><time>2026-05-03T12:04:25.829Z</time></trkpt><trkpt lat="45.8443283" lon="8.71321"><ele>274.0</ele><time>2026-05-03T12:04:26.828Z</time></trkpt><trkpt lat="45.8442167" lon="8.713285"><ele>273.59999999999997</ele><time>2026-05-03T12:04:27.829Z</time></trkpt><trkpt lat="45.844125" lon="8.7133233"><ele>273.2</ele><time>2026-05-03T12:04:28.828Z</time></trkpt><trkpt lat="45.8440367" lon="8.7133517"><ele>272.79999999999995</ele><time>2026-05-03T12:04:29.829Z</time></trkpt><trkpt lat="45.843965" lon="8.7134"><ele>272.4</ele><time>2026-05-03T12:04:30.828Z</time></trkpt><trkpt lat="45.8438983" lon="8.7134817"><ele>272.0</ele><time>2026-05-03T12:04:31.829Z</time></trkpt><trkpt lat="45.8438217" lon="8.7136167"><ele>272.0</ele><time>2026-05-03T12:04:32.829Z</time></trkpt><trkpt lat="45.8437517" lon="8.7138083"><ele>272.0</ele><time>2026-05-03T12:04:33.828Z</time></trkpt><trkpt lat="45.8436733" lon="8.714005"><ele>272.0</ele><time>2026-05-03T12:04:34.829Z</time></trkpt><trkpt lat="45.843585" lon="8.7142117"><ele>272.0</ele><time>2026-05-03T12:04:35.829Z</time></trkpt><trkpt lat="45.84349" lon="8.7143917"><ele>272.0</ele><time>2026-05-03T12:04:36.829Z</time></trkpt><trkpt lat="45.8434" lon="8.7145633"><ele>272.0</ele><time>2026-05-03T12:04:37.828Z</time></trkpt><trkpt lat="45.8433267" lon="8.7147267"><ele>272.0</ele><time>2026-05-03T12:04:38.828Z</time></trkpt><trkpt lat="45.84326" lon="8.71488"><ele>271.2</ele><time>2026-05-03T12:04:39.829Z</time></trkpt><trkpt lat="45.8431917" lon="8.715025"><ele>270.4</ele><time>2026-05-03T12:04:40.828Z</time></trkpt><trkpt lat="45.843135" lon="8.7151717"><ele>269.6</ele><time>2026-05-03T12:04:41.829Z</time></trkpt><trkpt lat="45.8430917" lon="8.7153017"><ele>268.8</ele><time>2026-05-03T12:04:42.829Z</time></trkpt><trkpt lat="45.8430317" lon="8.715415"><ele>268.0</ele><time>2026-05-03T12:04:43.829Z</time></trkpt><trkpt lat="45.84298" lon="8.71551"><ele>268.0</ele><time>2026-05-03T12:04:44.829Z</time></trkpt><trkpt lat="45.8429583" lon="8.7156217"><ele>268.0</ele><time>2026-05-03T12:04:45.829Z</time></trkpt><trkpt lat="45.8429283" lon="8.7157067"><ele>268.0</ele><time>2026-05-03T12:04:46.828Z</time></trkpt><trkpt lat="45.8428833" lon="8.71577"><ele>268.0</ele><time>2026-05-03T12:04:47.829Z</time></trkpt><trkpt lat="45.8428483" lon="8.7158583"><ele>268.0</ele><time>2026-05-03T12:04:48.828Z</time></trkpt><trkpt lat="45.8428217" lon="8.7159683"><ele>268.0</ele><time>2026-05-03T12:04:49.828Z</time></trkpt><trkpt lat="45.842815" lon="8.7160883"><ele>268.0</ele><time>2026-05-03T12:04:50.829Z</time></trkpt><trkpt lat="45.8427983" lon="8.7162083"><ele>267.6</ele><time>2026-05-03T12:04:51.829Z</time></trkpt><trkpt lat="45.8427867" lon="8.716325"><ele>267.20000000000005</ele><time>2026-05-03T12:04:52.828Z</time></trkpt><trkpt lat="45.84277" lon="8.7164283"><ele>266.8</ele><time>2026-05-03T12:04:53.829Z</time></trkpt><trkpt lat="45.8427417" lon="8.7165917"><ele>266.40000000000003</ele><time>2026-05-03T12:04:55.829Z</time></trkpt><trkpt lat="45.8427217" lon="8.71673"><ele>266.0</ele><time>2026-05-03T12:04:57.829Z</time></trkpt><trkpt lat="45.8427033" lon="8.7168767"><ele>266.5</ele><time>2026-05-03T12:04:59.828Z</time></trkpt><trkpt lat="45.8426833" lon="8.7170083"><ele>267.0</ele><time>2026-05-03T12:05:01.829Z</time></trkpt><trkpt lat="45.8426667" lon="8.71713"><ele>267.5</ele><time>2026-05-03T12:05:03.829Z</time></trkpt><trkpt lat="45.84269" lon="8.7172583"><ele>268.0</ele><time>2026-05-03T12:05:05.829Z</time></trkpt><trkpt lat="45.8427383" lon="8.717375"><ele>268.5</ele><time>2026-05-03T12:05:07.829Z</time></trkpt><trkpt lat="45.8427917" lon="8.7174383"><ele>269.0</ele><time>2026-05-03T12:05:09.829Z</time></trkpt><trkpt lat="45.8428533" lon="8.7175383"><ele>269.0</ele><time>2026-05-03T12:05:12.829Z</time></trkpt><trkpt lat="45.84288" lon="8.7176917"><ele>269.0</ele><time>2026-05-03T12:05:14.828Z</time></trkpt><trkpt lat="45.842915" lon="8.7178367"><ele>269.0</ele><time>2026-05-03T12:05:16.829Z</time></trkpt><trkpt lat="45.8429467" lon="8.71798"><ele>269.0</ele><time>2026-05-03T12:05:18.828Z</time></trkpt><trkpt lat="45.8429867" lon="8.7181167"><ele>269.0</ele><time>2026-05-03T12:05:20.829Z</time></trkpt><trkpt lat="45.8430283" lon="8.7182717"><ele>268.83333333333337</ele><time>2026-05-03T12:05:22.828Z</time></trkpt><trkpt lat="45.8430467" lon="8.7183583"><ele>268.6666666666667</ele><time>2026-05-03T12:05:23.828Z</time></trkpt><trkpt lat="45.8430267" lon="8.7185167"><ele>268.5</ele><time>2026-05-03T12:05:25.829Z</time></trkpt><trkpt lat="45.8429883" lon="8.7185983"><ele>268.3333333333333</ele><time>2026-05-03T12:05:26.829Z</time></trkpt><trkpt lat="45.842935" lon="8.7186767"><ele>268.16666666666663</ele><time>2026-05-03T12:05:27.829Z</time></trkpt><trkpt lat="45.84288" lon="8.7187467"><ele>268.0</ele><time>2026-05-03T12:05:28.829Z</time></trkpt><trkpt lat="45.8428233" lon="8.71882"><ele>267.5</ele><time>2026-05-03T12:05:29.829Z</time></trkpt><trkpt lat="45.842755" lon="8.71891"><ele>267.0</ele><time>2026-05-03T12:05:30.829Z</time></trkpt><trkpt lat="45.8426883" lon="8.7189933"><ele>266.5</ele><time>2026-05-03T12:05:31.829Z</time></trkpt><trkpt lat="45.8426333" lon="8.7190683"><ele>266.0</ele><time>2026-05-03T12:05:32.829Z</time></trkpt><trkpt lat="45.8425833" lon="8.71913"><ele>265.5</ele><time>2026-05-03T12:05:33.829Z</time></trkpt><trkpt lat="45.8425483" lon="8.7192267"><ele>265.0</ele><time>2026-05-03T12:05:35.829Z</time></trkpt><trkpt lat="45.8425733" lon="8.7194117"><ele>267.0</ele><time>2026-05-03T12:06:58.829Z</time></trkpt><trkpt lat="45.8426683" lon="8.7194717"><ele>269.0</ele><time>2026-05-03T12:07:00.829Z</time></trkpt><trkpt lat="45.842735" lon="8.7195333"><ele>271.0</ele><time>2026-05-03T12:07:02.828Z</time></trkpt><trkpt lat="45.8428" lon="8.7195733"><ele>273.0</ele><time>2026-05-03T12:07:05.828Z</time></trkpt><trkpt lat="45.8428874" lon="8.7192843"><ele>273.0</ele><time>2026-05-03T12:07:19.094Z</time></trkpt><trkpt lat="45.8427948" lon="8.7192012"><ele>273.0</ele><time>2026-05-03T12:13:01.151Z</time></trkpt><trkpt lat="45.8427248" lon="8.7190554"><ele>273.0</ele><time>2026-05-03T12:20:42.904Z</time></trkpt><trkpt lat="45.842661" lon="8.7189938"><ele>273.0</ele><time>2026-05-03T12:20:59.907Z</time></trkpt><trkpt lat="45.8426725" lon="8.7188964"><ele>273.0</ele><time>2026-05-03T12:21:09.879Z</time></trkpt><trkpt lat="45.8426634" lon="8.7188051"><ele>273.0</ele><time>2026-05-03T12:21:34.859Z</time></trkpt><trkpt lat="45.8427294" lon="8.7189677"><ele>273.0</ele><time>2026-05-03T12:21:37.903Z</time></trkpt><trkpt lat="45.842788" lon="8.7190149"><ele>273.0</ele><time>2026-05-03T12:21:42.841Z</time></trkpt><trkpt lat="45.8427201" lon="8.7190322"><ele>273.0</ele><time>2026-05-03T12:22:24.924Z</time></trkpt><trkpt lat="45.8426771" lon="8.7189629"><ele>273.0</ele><time>2026-05-03T12:22:34.894Z</time></trkpt><trkpt lat="45.8426249" lon="8.7188876"><ele>273.0</ele><time>2026-05-03T12:22:38.883Z</time></trkpt><trkpt lat="45.8425709" lon="8.7188378"><ele>273.0</ele><time>2026-05-03T12:22:43.922Z</time></trkpt><trkpt lat="45.8424428" lon="8.7187059"><ele>273.0</ele><time>2026-05-03T12:22:52.109Z</time></trkpt><trkpt lat="45.8427978" lon="8.7189375"><ele>273.0</ele><time>2026-05-03T12:23:30.839Z</time></trkpt><trkpt lat="45.8427583" lon="8.7188343"><ele>273.0</ele><time>2026-05-03T12:24:58.898Z</time></trkpt><trkpt lat="45.8427738" lon="8.718738"><ele>273.0</ele><time>2026-05-03T12:25:01.839Z</time></trkpt><trkpt lat="45.8427617" lon="8.71863"><ele>273.0</ele><time>2026-05-03T12:25:04.882Z</time></trkpt><trkpt lat="45.8427339" lon="8.7190643"><ele>273.0</ele><time>2026-05-03T12:27:07.791Z</time></trkpt><trkpt lat="45.8427044" lon="8.719218"><ele>273.0</ele><time>2026-05-03T12:27:12.84Z</time></trkpt><trkpt lat="45.8427047" lon="8.7191173"><ele>273.0</ele><time>2026-05-03T12:27:44.843Z</time></trkpt><trkpt lat="45.8427322" lon="8.7190311"><ele>273.0</ele><time>2026-05-03T12:27:52.839Z</time></trkpt></trkseg></trk></gpx>